     2              Observation         GPS                 RINEX VERSION / TYPE
teqc 1998Oct22 19990510 17:56:05UTC                         PGM / RUN BY / DATE
                                                            COMMENT
Original Marker Name: CD19                                  COMMENT
Campaign Name: northern baja california 1999                COMMENT
4-Character Station Name: CD19                              COMMENT
6-Character Antenna Code: DMRCHT                            COMMENT
Vertical Measurement Point: BCR                             COMMENT
Vertical Offset to Rinex Ref. Point: 0.0349                 COMMENT
Radial Measurement Point: ECF                               COMMENT
Radial Offset to Rinex Ref. Point: 0.1896                   COMMENT
Antenna Height from Field Measurement: 1.4110 m             COMMENT
Additional Antenna Identification Info.:                    COMMENT
Turborogue and Ashtech Choke Ring                           COMMENT
Revised Rinex header created by UCSD GPS archive for        COMMENT
SCEC DC on 07-Jul-1999 (1999.188) 20:44:04 GMT              COMMENT
For assistance contact dagnew@ucsd.edu or hjohnson@ucsd.edu COMMENT
                                                            COMMENT
CD19                                                        MARKER NAME
JRO CICESE (ENSENADA)                                       OBSERVER / AGENCY
312 ASHTECH Z12-XII3 1F50                                   REC # / TYPE / VERS
738 DORNE-MARGOL. TYPE T                                    ANT # / TYPE
 -2287115.9523 -4879840.0209  3399902.9509                  APPROX POSITION XYZ
        1.3633        0.0000        0.0000                  ANTENNA: DELTA H/E/N
     1     1     0                                          WAVELENGTH FACT L1/2
     7    C1    L1    L2    P1    P2    S1    S2            # / TYPES OF OBSERV
     0                                                      INTERVAL
  1999     4    24    19    48   30.000000                  TIME OF FIRST OBS
  1999     4    24    23    59   30.000000                  TIME OF LAST OBS
                                                            END OF HEADER
 99  4 24 19 48 30.0000000  0  6G24G30G 4G 8G 9G10
  20218958.467      -99930.06149    -69693.64348  20218958.117    20218963.766
       245.000         213.000
  23168688.038     -331731.91849   -235733.35845  23168688.930    23168693.622
       223.000         162.000
  21642302.362       69198.61349     49623.25947  21642302.436    21642307.190
       238.000         195.000
  21660282.876      -78530.29349    -57332.19146  21660281.379    21660288.082
       234.000         186.000
  22591475.676       64683.55549     46488.59546  22591475.637    22591483.412
       231.000         183.000
  22885561.829     -278508.89149   -182995.12946  22885561.366    22885570.135
       225.000         168.000
 99  4 24 19 49  0.0000000  0  7G24G30G 4G 5G 8G 9G10
  20210892.582     -142317.57449   -102722.85648  20210891.991    20210897.505
       246.000         214.000
  23140994.946     -477261.58549   -349133.02746  23140994.253    23141000.037
       222.000         165.000
  21647728.954       97714.61649     71843.49747  21647728.799    21647734.085
       238.000         193.000
  20676568.153     -289982.64649   -216376.71547  20676567.350    20676572.723
       243.000         209.000
  21654253.838     -110207.09049    -82015.44347  21654253.422    21654260.567
       233.000         188.000
  22596563.307       91415.72849     67318.74846  22596562.156    22596570.349
       232.000         184.000
  22858933.918     -418437.61149   -292030.31046  22858932.630    22858941.717
       224.000         170.000
 99  4 24 19 49 30.0000000  0  8G24G30G 4G 5G 6G 8G 9G10
  20202297.501     -187485.17649   -137918.37148  20202296.821    20202302.402
       245.000         215.000
  23112711.018     -625893.30749   -464949.90546  23112710.274    23112716.650
       223.000         165.000
  21652590.856      123263.22549     91751.48047  21652590.803    21652595.741
       238.000         195.000
  20657714.644     -389058.71549   -293578.82147  20657713.972    20657719.121
       243.000         209.000

       208.000          74.000
  21647715.634     -144566.95549   -108789.40247  21647714.949    21647722.013
       233.000         189.000
  22601086.565      115187.09349     85841.78346  22601086.204    22601095.008
       232.000         183.000
  22831725.885     -561416.22049   -403442.01646  22831725.745    22831734.099
       224.000         169.000
 99  4 24 19 50  0.0000000  0  8G24G30G 4G 5G 6G 8G 9G10
  20203907.994     -179021.52749   -131323.30148  20203907.366    20203913.158
       245.000         215.000
  23094573.096     -721209.34249   -539222.06746  23094572.500    23094578.413
       224.000         166.000
  21667623.432      202259.87049    153307.28847  21667623.267    21667628.459
       238.000         195.000
  20649054.057     -434570.72349   -329042.71347  20649053.058    20649058.364
       244.000         209.000
                   -246689.14444                                  24840320.783
       207.000         130.000
  21651401.472     -125198.36649    -93697.03347  21651401.197    21651407.405
       235.000         189.000
  22615778.581      192393.59249    146002.57146  22615777.983    22615786.077
       231.000         183.000
  22814674.659     -651020.06449   -473262.99746  22814673.850    22814683.909
       224.000         170.000
 99  4 24 19 50 30.0000000  0  8G24G30G 4G 5G 6G 8G 9G10
  20205616.277     -170044.03749   -124327.83648  20205615.943    20205621.604
       245.000         215.000
  23076470.411     -816339.15749   -613349.12446  23076470.642    23076476.216
       224.000         167.000
  21682716.707      281575.66249    215111.78147  21682716.618    21682721.949
       237.000         194.000
  20640477.049     -479642.93749   -364163.90647  20640476.386    20640481.338
       244.000         209.000
  24827355.997     -407105.20049   -299741.64245  24827354.470    24827364.182
       207.000         137.000
  21655202.176     -105226.21349    -78134.34147  21655201.486    21655208.393
       233.000         189.000
  22630525.465      269888.03849    206387.74146  22630525.943    22630533.575
       231.000         183.000
  22797672.704     -740365.56749   -542882.67546  22797671.660    22797680.644
       223.000         171.000
 99  4 24 19 51  0.0000000  0  8G24G30G 4G 5G 6G 8G 9G10
  20207403.559     -160651.75249   -117009.15448  20207402.976    20207408.709
       245.000         215.000
  23058380.193     -911403.93649   -687425.51046  23058379.876    23058385.574
       226.000         168.000
  21697849.957      361101.45449    277079.90247  21697849.901    21697854.915
       237.000         194.000
  20631963.011     -524384.89549   -399027.75047  20631962.160    20631967.615
       244.000         209.000
  24814389.096     -475240.49149   -352833.87145  24814386.168    24814397.094
       206.000         137.000
  21659097.750      -84755.14049    -62182.89547  21659097.349    21659104.014
       235.000         189.000
  22645307.329      347566.70849    266916.45946  22645307.570    22645314.970
       232.000         182.000
  22780699.235     -829561.58449   -612385.88546  22780698.221    22780706.962
       224.000         171.000
 99  4 24 19 51 30.0000000  0  8G24G30G 4G 5G 6G 8G 9G10
  20209288.191     -150748.12349   -109292.02148  20209287.921    20209293.619
       245.000         215.000
  23040319.844    -1006311.75649   -761379.60946  23040319.419    23040324.851
       225.000         167.000
  21713040.310      440927.34949    339281.87847  21713040.565    21713045.328
       238.000         194.000
  20623529.756     -568701.81549   -433560.39947  20623529.148    20623534.340
       244.000         210.000
  24801432.896     -543323.16449   -405885.07445  24801432.316    24801441.337
       206.000         138.000
  21663110.200      -63669.90749    -45752.87547  21663109.981    21663116.173
       235.000         189.000
  22660139.296      425508.21249    327649.99146  22660139.052    22660146.532
       230.000         181.000
  22763770.645     -918521.77649   -681705.32746  22763769.480    22763778.795
       225.000         171.000
 99  4 24 19 52  0.0000000  0  8G24G30G 4G 5G 6G 8G 9G10
  20211260.484     -140383.79749   -101215.90448  20211260.106    20211265.719
       245.000         215.000
  23022280.472    -1101109.19049   -835247.68546  23022280.127    23022285.250
       225.000         166.000
  21728275.533      520988.45449    401667.13447  21728275.748    21728280.839
       237.000         194.000
  20615168.769     -612639.35249   -467797.42847  20615168.266    20615173.162
       244.000         210.000
  24788475.311     -611413.51549   -458942.27145  24788475.376    24788484.380
       208.000         138.000
  21667230.596      -42017.76349    -28881.10547  21667229.939    21667236.619
       234.000         189.000
  22675008.654      503646.75249    388537.04546  22675008.908    22675015.909
       232.000         182.000
  22746877.619    -1007295.40249   -750879.39746  22746876.955    22746885.939
       225.000         172.000
 99  4 24 19 52 30.0000000  0  8G24G30G 4G 5G 6G 8G 9G10
  20213328.997     -129513.46749    -92745.50048  20213328.704    20213334.384
       246.000         215.000
  23004270.730    -1195750.50749   -908994.10946  23004270.605    23004276.508
       226.000         166.000
  21743564.296      601331.14949    464271.80647  21743564.054    21743569.569
       236.000         193.000
  20606888.863     -656150.54549   -501702.24347  20606888.118    20606893.242
       244.000         210.000
  24775523.526     -679474.87749   -511976.91845  24775522.093    24775531.550
       204.000         140.000
  21671466.917      -19756.08349    -11534.38047  21671466.576    21671473.142
       234.000         188.000
  22689926.888      582041.68049    449623.88746  22689926.431    22689934.447
       229.000         181.000
  22730026.993    -1095845.78149   -819879.50646  22730025.711    22730035.178
       225.000         172.000
 99  4 24 19 53  0.0000000  0  8G24G30G 4G 5G 6G 8G 9G10
  20215492.817     -118142.68749    -83885.13348  20215492.426    20215498.025
       245.000         215.000
  22986295.648    -1290210.05049   -982598.90846  22986295.649    22986300.765
       225.000         167.000
  21758907.047      681958.13749    527098.00547  21758907.162    21758911.950
       236.000         192.000
  20598689.505     -699238.56749   -535277.31147  20598688.884    20598694.130
       244.000         210.000
  24762578.020     -747502.61949   -564985.33945  24762578.224    24762587.558
       211.000         141.000
  21675820.226        3120.45149      6291.46547  21675819.023    21675825.822
       233.000         188.000
  22704896.489      660707.65249    510921.91746  22704895.788    22704904.149
       230.000         181.000
  22713218.301    -1184175.13549   -888707.40046  22713216.827    22713226.313
       225.000         173.000
 99  4 24 19 53 30.0000000  0  8G24G30G 4G 5G 6G 8G 9G10
  20217742.519     -106320.55249    -74673.06248  20217742.068    20217747.678
       245.000         215.000
  22968352.247    -1384503.19549  -1056074.02346  22968352.590    22968357.846
       226.000         169.000
  21774295.409      762824.61149    590110.82047  21774295.239    21774300.565
       237.000         192.000
  20590565.898     -741928.35049   -568542.06547  20590565.288    20590570.318
       244.000         210.000
  24749635.776     -815515.13349   -617981.91745  24749635.524    24749644.796
       211.000         143.000
  21680283.614       26575.92849     24568.42547  21680282.872    21680289.815
       233.000         188.000
  22719911.152      739609.43049    572403.70446  22719910.893    22719918.768
       230.000         181.000
  22696446.158    -1272312.73049   -957385.88146  22696444.968    22696453.796
       226.000         173.000
 99  4 24 19 54  0.0000000  0  8G24G30G 4G 5G 6G 8G 9G10
  20220082.855      -94021.95849    -65089.72648  20220082.398    20220088.009
       245.000         215.000
  22950445.694    -1478602.98849  -1129398.49146  22950445.567    22950450.386
       227.000         169.000
  21789733.471      843951.86449    653326.83947  21789733.292    21789738.943
       236.000         191.000
  20582524.382     -784186.79249   -601470.71447  20582523.775    20582528.952
       244.000         210.000
  24736699.049     -883498.46649   -670955.77245  24736698.400    24736706.979
       211.000         145.000
  21684859.033       50619.52449     43303.66347  21684858.305    21684865.564
       234.000         188.000
  22734978.768      818789.91049    634102.65246  22734978.642    22734987.382
       231.000         181.000
  22679716.937    -1360225.27349  -1025888.99546  22679715.500    22679724.519
       226.000         173.000
 99  4 24 19 54 30.0000000  0  8G24G30G 4G 5G 6G 8G 9G10
  20222510.865      -81262.98949    -55147.65648  20222510.507    20222516.110
       245.000         215.000
  22932571.946    -1572530.06149  -1202588.35946  22932571.731    22932577.732
       226.000         170.000
  21805219.026      925329.20649    716737.72947  21805218.621    21805224.509
       235.000         191.000
  20574562.458     -826027.12449   -634073.55947  20574561.797    20574566.803
       244.000         210.000
  24723764.323     -951470.26149   -723920.61645  24723764.064    24723773.218
       209.000         146.000
  21689542.634       75231.21349     62481.56047  21689541.963    21689548.831
       234.000         189.000
  22750095.168      898225.96649    696000.74446  22750095.197    22750102.844
       230.000         181.000
  22663028.085    -1447925.75349  -1094226.86446  22663027.103    22663035.239
       227.000         174.000
 99  4 24 19 55  0.0000000  0  8G24G30G 4G 5G 6G 8G 9G10
  20225024.785      -68052.26749    -44853.56748  20225024.417    20225030.067
       245.000         215.000
  22914728.852    -1666296.19049  -1275652.82946  22914729.043    22914734.262
       227.000         170.000
  21820749.555     1006942.89949    780332.78547  21820749.759    21820755.411
       235.000         191.000
  20566680.931     -867444.79649   -666347.06147  20566680.403    20566685.377
       244.000         210.000
  24710831.708    -1019431.48249   -776877.23845  24710831.617    24710840.723
       211.000         146.000
  21694333.936      100409.06949     82100.63647  21694333.485    21694340.341
       234.000         189.000
  22765257.245      977902.68449    758086.35546  22765257.470    22765265.247
       230.000         181.000
  22646382.623    -1535397.94249  -1162386.84346  22646381.726    22646389.480
       227.000         175.000
 99  4 24 19 55 30.0000000  0  8G24G30G 4G 5G 6G 8G 9G10
  20227626.419      -54380.51649    -34200.24248  20227626.046    20227631.576
       246.000         215.000
  22896911.311    -1759927.80249  -1348612.49846  22896910.429    22896917.030
       225.000         170.000
  21836325.858     1088796.29449    844114.61747  21836326.166    21836331.308
       236.000         190.000
  20558881.169     -908433.15949   -698286.04247  20558880.553    20558885.704
       244.000         210.000
  24697898.390    -1087395.41249   -829835.96645  24697897.461    24697907.030
       209.000         145.000
  21699230.756      126141.70349    102151.99547  21699230.176    21699237.266
       234.000         189.000
  22780462.170     1057804.57149    820347.43846  22780462.254    22780471.069
       229.000         180.000
  22629782.502    -1622631.78249  -1230361.09946  22629781.828    22629790.453
       225.000         175.000
 99  4 24 19 56  0.0000000  0  8G24G30G 4G 5G 6G 8G 9G10
  20230319.374      -40229.04149    -23173.09948  20230319.022    20230324.592
       245.000         215.000
  22879118.317    -1853430.13249  -1421471.40546  22879118.526    22879123.169
       224.000         169.000
  21851950.799     1170905.01949    908095.42947  21851951.439    21851956.182
       236.000         190.000
  20551160.885     -949003.53349   -729899.30547  20551160.478    20551165.607
       244.000         211.000
  24684963.104    -1155370.03749   -882803.03445  24684962.556    24684971.182
       211.000         145.000
  21704231.703      152421.59649    122629.80947  21704230.714    21704237.318
       235.000         188.000
  22795706.205     1137911.54749    882768.32146  22795706.701    22795714.231
       231.000         180.000
  22613230.091    -1709614.31549  -1298139.53846  22613228.997    22613237.849
       226.000         174.000
 99  4 24 19 56 30.0000000  0  8G24G30G 4G 5G 6G 8G 9G10
  20233107.350      -25578.16249    -11756.81348  20233106.942    20233112.536
       245.000         214.000
  22861357.607    -1946763.17649  -1494198.41046  22861358.281    22861362.678
       225.000         169.000
  21867628.483     1253290.93149    972292.21847  21867628.156    21867633.328
       236.000         190.000
  20543524.801     -989131.69649   -761167.99647  20543524.314    20543529.256
       244.000         211.000
  24672031.453    -1223325.86449   -935755.46645  24672031.548    24672039.534
       210.000         145.000
  21709341.969      179276.42149    143555.60647  21709341.516    21709347.738
       234.000         188.000
  22810990.928     1218232.57549    945356.00746  22810991.289    22810998.920
       231.000         181.000
  22596731.585    -1796313.93349  -1365697.52146  22596730.429    22596739.065
       227.000         175.000
 99  4 24 19 57  0.0000000  0  8G24G30G 4G 5G 6G 8G 9G10
  20235990.922      -10424.89949        50.94148  20235990.405    20235996.206
       245.000         214.000
  22843631.223    -2039916.24949  -1566785.17046  22843631.763    22843636.154
       227.000         170.000
  21883355.048     1335934.54049   1036689.80047  21883354.849    21883360.513
       236.000         190.000
  20535970.954    -1028827.61649   -792099.87547  20535970.384    20535975.452
       244.000         211.000
  24659103.898    -1291261.00049   -988691.74045  24659102.758    24659112.264
       208.000         145.000
  21714561.701      206706.42249    164929.59046  21714561.082    21714567.884
       234.000         187.000
  22826317.663     1298774.37449   1008115.70946  22826317.309    22826325.880
       229.000         181.000
  22580286.667    -1882732.28349  -1433036.34446  22580285.703    22580294.054
       227.000         176.000
 99  4 24 19 57 30.0000000  0  8G24G30G 4G 5G 6G 8G 9G10
  20238970.627        5233.48449     12252.29548  20238970.552    20238975.945
       246.000         214.000
  22825940.858    -2132879.28149  -1639223.84846  22825940.980    22825946.457
       226.000         171.000
  21899130.862     1418836.35049   1101288.59047  21899131.307    21899135.934
       237.000         191.000
  20528496.562    -1068105.82649   -822706.26047  20528495.688    20528500.908
       244.000         211.000
  24646179.585    -1359179.04749  -1041614.73345  24646178.196    24646188.027
       209.000         143.000
  21719889.003      234701.19849    186743.66446  21719887.765    21719894.713
       234.000         187.000
  22841683.941     1379523.91249   1071037.29046  22841683.711    22841691.547
       230.000         180.000
  22563893.479    -1968878.52949  -1500163.13946  22563892.362    22563900.374
       227.000         176.000
 99  4 24 19 58  0.0000000  0  8G24G30G 4G 5G 6G 8G 9G10
  20242039.260       21359.08549     24817.71548  20242038.868    20242044.452
       247.000         214.000
  22808286.600    -2225652.67949  -1711514.75946  22808286.502    22808291.958
       227.000         173.000
  21914947.606     1501953.14649   1166054.90147  21914947.907    21914952.293
       237.000         191.000
  20521097.499    -1106988.19149   -853004.19547  20521096.750    20521101.758
       244.000         211.000
  24633254.718    -1427100.11449  -1094540.06145  24633252.854    24633262.280
       208.000         141.000
  21725319.788      263240.72749    208982.21346  21725319.674    21725326.508
       236.000         187.000
  22857086.337     1460463.84249   1134107.22746  22857085.879    22857094.764
       229.000         180.000
  22547547.345    -2054777.28549  -1567097.07346  22547546.119    22547554.592
       226.000         175.000
 99  4 24 19 58 30.0000000  0  8G24G30G 4G 5G 6G 8G 9G10
  20245199.276       37965.16749     37757.53248  20245198.801    20245204.560
       246.000         214.000
  22790673.621    -2318209.38149  -1783636.81846  22790673.845    22790679.422
       227.000         174.000
  21930807.098     1585294.91249   1230996.51247  21930807.258    21930812.467
       236.000         191.000
  20513781.462    -1145434.34849   -882962.23147  20513780.945    20513785.940
       245.000         211.000
  24620333.626    -1494999.41949  -1147448.44245  24620332.728    24620342.047
       211.000         141.000
  21730862.491      292366.96549    231677.93247  21730862.027    21730868.458
       234.000         188.000
  22872533.807     1541640.35949   1197361.51246  22872533.764    22872542.579
       229.000         179.000
  22531250.314    -2140418.09349  -1633830.03446  22531248.861    22531257.986
       227.000         175.000
 99  4 24 19 59  0.0000000  0  8G24G30G 4G 5G 6G 8G 9G10
  20248446.564       55029.69849     51054.59048  20248446.302    20248451.833
       247.000         214.000
  22773094.854    -2410586.73649  -1855619.12346  22773095.454    22773100.522
       227.000         174.000
  21946708.509     1668857.49249   1296110.18047  21946708.250    21946713.479
       236.000         190.000
  20506543.990    -1183467.62849   -912598.54447  20506543.266    20506548.335
       244.000         211.000
  24607415.870    -1562881.45549  -1200343.39145  24607415.481    24607423.696
       211.000         141.000
  21736512.177      322055.68549    254811.96247  21736511.646    21736518.508
       235.000         188.000
  22888021.828     1623029.47949   1260781.46946  22888021.612    22888029.386
       229.000         179.000
  22514999.781    -2225815.00149  -1700372.92246  22514998.431    22515007.164
       226.000         177.000
 99  4 24 19 59 30.0000000  0  8G24G30G 4G 5G 6G 8G 9G10
  20251775.092       72521.27249     64684.40248  20251774.718    20251780.252
       247.000         214.000
  22755546.680    -2502803.15149  -1927476.01246  22755547.492    22755552.423
       227.000         174.000
  21962651.778     1752640.11749   1361395.31447  21962651.783    21962656.856
       236.000         190.000
  20499383.894    -1221094.19549   -941917.93647  20499383.172    20499388.352
       245.000         211.000
  24594501.136    -1630747.95849  -1253226.21945  24594500.002    24594508.855
       207.000         141.000
  21742263.929      352280.25749    278363.52547  21742263.494    21742270.251
       235.000         188.000
  22903545.661     1704606.85849   1324348.11746  22903545.645    22903554.347
       229.000         179.000
  22498794.587    -2310972.99749  -1766729.65746  22498793.659    22498801.828
       227.000         177.000
 99  4 24 20  0  0.0000000  0  8G24G30G 4G 5G 6G 8G 9G10
  20255184.220       90436.33349     78644.20248  20255183.838    20255189.427
       247.000         214.000
  22738029.524    -2594856.36849  -1999205.73946  22738029.450    22738034.462
       228.000         174.000
  21978637.701     1836646.42149   1426854.74247  21978637.856    21978642.986
       236.000         191.000
  20492305.281    -1258292.69549   -970903.77147  20492304.713    20492309.540
       245.000         212.000
  24581592.616    -1698581.34049  -1306083.23845  24581591.119    24581600.765
       212.000         141.000
  21748120.247      383055.22049    302343.96546  21748119.700    21748126.554
       234.000         187.000
  22919108.241     1786387.83349   1388073.41546  22919107.512    22919116.904
       228.000         178.000
  22482635.635    -2395888.41549  -1832897.36546  22482633.557    22482643.249
       225.000         177.000
 99  4 24 20  0 30.0000000  0  8G24G30G 4G 5G 6G 8G 9G10
  20258668.926      108748.45249     92913.40248  20258668.386    20258673.908
       247.000         214.000
  22720537.052    -2686780.17449  -2070834.64746  22720536.890    22720542.991
       228.000         174.000
  21994664.934     1920870.05549   1492483.51747  21994665.120    21994669.865
       235.000         189.000
  20485302.740    -1295091.27649   -999577.98047  20485302.070    20485307.333
       245.000         212.000
  24568688.370    -1766392.93649  -1358923.30845  24568689.160    24568696.393
       211.000         142.000
  21754076.140      414353.34249    326732.06646  21754075.377    21754082.264
       234.000         187.000
  22934702.254     1868335.53749   1451928.62046  22934702.266    22934710.863
       228.000         177.000
  22466519.120    -2480580.46949  -1898891.04146  22466518.003    22466526.200
       228.000         176.000
 99  4 24 20  1  0.0000000  0  8G24G30G 4G 5G 6G 8G 9G10
  20262225.028      127436.09649    107475.21248  20262224.644    20262230.183
       247.000         214.000
  22703067.622    -2778582.14349  -2142368.60746  22703067.473    22703072.786
       227.000         174.000
  22010731.753     2005301.68349   1558274.36747  22010731.538    22010737.329
       235.000         188.000
  20478374.410    -1331500.01949  -1027948.42447  20478373.717    20478378.781
       245.000         212.000
  24555785.985    -1834194.95149  -1411755.89545  24555785.943    24555794.006
       213.000         143.000
  21760126.331      446146.88849    351506.20946  21760125.549    21760132.424
       234.000         187.000
  22950322.977     1950422.12049   1515892.05246  22950322.802    22950331.440
       228.000         177.000
  22450447.679    -2565036.75349  -1964701.00246  22450446.070    22450454.970
       228.000         177.000
 99  4 24 20  1 30.0000000  0  8G24G30G 4G 5G 6G 8G 9G10
  20265855.427      146513.84949    122341.00448  20265855.160    20265860.653
       247.000         214.000
  22685626.702    -2870234.80949  -2213786.21746  22685626.957    22685632.591
       228.000         174.000
  22026835.419     2089926.80949   1624215.99047  22026835.669    22026840.690
       236.000         188.000
  20471525.327    -1367492.39449  -1055994.42247  20471524.718    20471529.880
       245.000         212.000
  24542881.558    -1902007.30549  -1464596.55045  24542880.687    24542889.485
       213.000         144.000
  21766272.610      478446.13549    376674.40346  21766272.253    21766278.603
       234.000         186.000
  22965974.085     2032669.01649   1579980.38846  22965974.397    22965982.468
       228.000         177.000
  22434422.383    -2649249.95949  -2030321.54046  22434421.173    22434429.250
       228.000         178.000
 99  4 24 20  2  0.0000000  0  8G24G30G 4G 5G 6G 8G 9G10
  20269566.287      166014.41649    137536.26248  20269565.692    20269571.271
       247.000         214.000
  22668219.450    -2961710.94949  -2285066.28846  22668219.718    22668224.631
       227.000         175.000
  22042978.558     2174759.36949   1690319.25946  22042979.043    22042983.765
       235.000         187.000
  20464761.161    -1403038.32349  -1083692.54047  20464760.591    20464765.650
       246.000         212.000
  24529975.886    -1969827.38549  -1517443.21245  24529976.930    24529984.152
       216.000         145.000
  21772521.118      511281.66949    402260.48746  21772520.138    21772527.599
       234.000         187.000
  22981660.100     2115098.51049   1644211.01746  22981659.898    22981668.640
       228.000         176.000
  22418447.906    -2733195.84549  -2095733.78646  22418447.032    22418454.934
       228.000         178.000
 99  4 24 20  2 30.0000000  0  8G24G30G 4G 5G 6G 8G 9G10
  20273358.776      185943.95749    153065.78048  20273358.546    20273364.101
       247.000         214.000
  22650849.250    -3052992.03849  -2356194.35646  22650848.364    22650854.351
       226.000         175.000
  22059160.010     2259793.34749   1756579.46746  22059159.622    22059165.060
       234.000         187.000
  20458084.201    -1438126.23149  -1111033.75947  20458083.404    20458088.501
       245.000         212.000
  24517067.075    -2037664.21349  -1570302.92545  24517066.758    24517074.803
       215.000         146.000
  21778869.853      544644.13049    428257.15246  21778869.472    21778875.976
       234.000         187.000
  22997381.792     2197715.41349   1708587.67346  22997380.924    22997390.032
       226.000         175.000
  22402527.334    -2816858.62349  -2160925.42446  22402526.674    22402534.401
       229.000         178.000
 99  4 24 20  3  0.0000000  0  8G24G30G 4G 5G 6G 8G 9G10
  20277239.723      206338.41049    168957.57148  20277239.389    20277244.971
       247.000         214.000
  22633522.706    -3144043.12749  -2427143.19846  22633522.398    22633527.746
       227.000         175.000
  22075379.491     2345027.27549   1822995.47746  22075379.683    22075384.444
       235.000         186.000
  20451499.471    -1472728.99649  -1137996.94447  20451498.882    20451503.689
       245.000         212.000
  24504155.268    -2105515.68449  -1623174.04545  24504153.887    24504162.585
       212.000         146.000
  21785320.684      578543.19549    454671.96646  21785320.287    21785327.184
       233.000         187.000
  23013145.292     2280552.80049   1773136.12946  23013145.481    23013153.979
       226.000         174.000
  22386664.572    -2900218.08449  -2225880.72546  22386663.156    22386671.358
       229.000         178.000
 99  4 24 20  3 30.0000000  0  8G24G30G 4G 5G 6G 8G 9G10
  20281217.991      227244.38549    185247.94548  20281217.725    20281223.210
       247.000         214.000
  22616246.247    -3234831.11349  -2497887.04046  22616246.288    22616250.820
       229.000         176.000
  22091640.353     2430478.46349   1889580.78246  22091640.545    22091645.304
       234.000         185.000
  20445012.090    -1506820.51449  -1164561.75848  20445011.523    20445016.487
       245.000         213.000
  24491246.676    -2173350.37249  -1676032.08245  24491246.383    24491254.178
       210.000         146.000
  21791879.374      613009.43549    481528.71746  21791879.056    21791885.741
       233.000         186.000
  23028956.278     2363639.84849   1837879.13246  23028955.906    23028964.815
       226.000         174.000
  22370862.409    -2983258.34149  -2290587.29346  22370861.485    22370869.656
       228.000         178.000
 99  4 24 20  4  0.0000000  0  8G24G30G 4G 5G 6G 8G 9G10
  20285292.701      248657.04149    201933.14148  20285292.324    20285297.821
       247.000         214.000
  22599019.477    -3325358.61649  -2568427.91446  22599020.094    22599024.653
       229.000         176.000
  22107942.750     2516147.34249   1956335.72946  22107942.420    22107947.527
       234.000         185.000
  20438620.312    -1540409.64849  -1190735.10448  20438619.738    20438624.499
       246.000         213.000
  24478345.523    -2241145.16649  -1728859.04145  24478345.234    24478353.394
       209.000         146.000
  21798547.057      648047.78249    508831.27846  21798546.171    21798553.699
       233.000         186.000
  23044811.461     2446958.98049   1902802.97446  23044811.089    23044821.029
       227.000         174.000
  22355119.991    -3065984.71149  -2355049.27346  22355119.053    22355126.842
       229.000         179.000
 99  4 24 20  4 30.0000000  0  8G24G30G 4G 5G 6G 8G 9G10
  20289464.058      270577.61049    219014.11048  20289463.787    20289469.186
       247.000         214.000
  22581841.773    -3415628.00349  -2638767.65846  22581841.836    22581846.532
       228.000         176.000
  22124283.539     2602018.56449   2023248.33346  22124283.957    22124288.895
       234.000         185.000
  20432321.092    -1573512.53649  -1216529.55648  20432320.349    20432325.436
       245.000         213.000
  24465454.124    -2308889.30249  -1781646.51345  24465452.540    24465460.806
       211.000         146.000
  21805320.378      683641.78749    536566.81646  21805319.981    21805326.726
       234.000         186.000
  23060709.072     2530500.18149   1967899.85646  23060709.443    23060717.791
       226.000         173.000
  22339437.575    -3148395.95349  -2419265.71046  22339436.340    22339443.977
       229.000         179.000
 99  4 24 20  5  0.0000000  0  8G24G30G 4G 5G 6G 8G 9G10
  20293733.351      293012.90049    236496.16848  20293732.981    20293738.532
       247.000         214.000
  22564712.712    -3505641.50049  -2708907.99446  22564712.085    22564717.993
       229.000         176.000
  22140664.667     2688101.29749   2090325.74846  22140664.407    22140669.496
       233.000         185.000
  20426114.410    -1606128.94049  -1241944.92948  20426113.716    20426118.538
       245.000         213.000
  24452574.028    -2376573.20349  -1834387.03945  24452573.456    24452582.110
       207.000         147.000
  21812202.340      719806.01049    564746.68146  21812202.347    21812208.280
       234.000         186.000
  23076646.192     2614249.76449   2033159.11246  23076647.280    23076654.826
       227.000         173.000
  22323818.478    -3230474.38249  -2483222.79046  22323817.453    22323825.506
       229.000         180.000
 99  4 24 20  5 30.0000000  0  8G24G30G 4G 5G 6G 8G 9G10
  20298096.602      315941.91349    254362.94448  20298096.250    20298101.787
       247.000         214.000
  22547628.780    -3595418.14049  -2778863.78646  22547628.951    22547633.947
       230.000         178.000
  22157086.768     2774400.40649   2157571.76446  22157086.378    22157091.954
       234.000         185.000
  20419999.490    -1638263.00549  -1266984.45648  20419998.819    20420003.690
       246.000         213.000
  24439706.654    -2444191.06549  -1887076.10845  24439706.813    24439714.692
       209.000         146.000
  21819192.830      756540.84349    593371.17546  21819192.547    21819197.923
       234.000         186.000
  23092617.845     2698180.49849   2098559.51146  23092618.423    23092626.747
       226.000         173.000
  22308262.918    -3312218.97549  -2546919.75146  22308261.672    22308269.641
       230.000         180.000
 99  4 24 20  6  0.0000000  0  8G24G30G 4G 5G 6G 8G 9G10
  20302544.211      339314.22449    272575.14548  20302543.791    20302549.209
       247.000         214.000
  22530582.877    -3684995.10349  -2848663.96946  22530582.722    22530587.979
       229.000         179.000
  22173545.931     2860893.63149   2224969.04846  22173546.243    22173551.181
       234.000         185.000
  20413968.761    -1669955.03149  -1291679.53848  20413968.044    20413973.040
       245.000         213.000
  24426845.101    -2511779.21949  -1939742.04645  24426844.128    24426852.909
       208.000         146.000
  21826283.327      793801.42249    622405.33646  21826282.729    21826289.523
       234.000         185.000
  23108615.611     2782248.96849   2164067.24546  23108616.188    23108625.425
       227.000         173.000
  22292767.890    -3393645.21249  -2610368.64646  22292766.479    22292774.487
       230.000         181.000
 99  4 24 20  6 30.0000000  0  8G24G30G 4G 5G 6G 8G 9G10
  20307075.416      363125.67949    291129.53648  20307075.005    20307080.486
       247.000         214.000
  22513576.385    -3774364.82149  -2918302.66746  22513576.485    22513581.536
       230.000         180.000
  22190044.729     2947595.17349   2292528.65346  22190044.572    22190050.025
       232.000         184.000
  20408023.688    -1701196.29249  -1316023.37648  20408022.950    20408028.103
       246.000         213.000
  24413987.126    -2579347.39849  -1992392.41845  24413986.239    24413994.845
       209.000         146.000
  21833473.708      831586.67349    651848.32546  21833473.221    21833479.675
       233.000         185.000
  23124639.799     2866456.07049   2229682.98346  23124639.585    23124648.243
       228.000         173.000
  22277337.254    -3474733.05449  -2673553.84746  22277335.382    22277344.227
       229.000         181.000
 99  4 24 20  7  0.0000000  0  8G24G30G 4G 5G 6G 8G 9G10
  20311680.719      387326.60449    309987.41348  20311680.416    20311685.810
       247.000         214.000
  22496605.215    -3863548.89549  -2987796.70346  22496605.414    22496610.283
       231.000         180.000
  22206580.277     3034490.25049   2360239.06746  22206580.254    22206585.364
       231.000         184.000
  20402160.460    -1732007.84249  -1340032.37448  20402159.699    20402164.961
       247.000         213.000
  24401125.590    -2646935.02749  -2045057.91645  24401125.472    24401133.437
       211.000         146.000
  21840760.813      869881.23249    681688.19146  21840760.366    21840767.261
       233.000         185.000
  23140686.315     2950780.21649   2295389.94846  23140687.056    23140695.964
       227.000         173.000
  22261963.092    -3555524.31749  -2736507.95446  22261962.744    22261970.150
       229.000         181.000
 99  4 24 20  7 30.0000000  0  8G24G30G 4G 5G 6G 8G 9G10
  20316361.245      411922.91449    329153.38048  20316360.896    20316366.361
       248.000         214.000
  22479671.099    -3952538.15549  -3057138.95046  22479670.978    22479675.486
       230.000         179.000
  22223154.875     3121590.59449   2428109.42646  22223155.420    22223160.542
       232.000         184.000
  20396380.047    -1762384.14149  -1363702.21548  20396379.430    20396384.376
       247.000         213.000
  24388261.621    -2714535.49249  -2097733.44645  24388261.138    24388269.657
       211.000         147.000
  21848145.771      908688.84749    711927.84546  21848145.154    21848152.017
       233.000         185.000
  23156759.145     3035242.66049   2361204.66646  23156758.630    23156768.194
       227.000         172.000
  22246645.592    -3636017.91549  -2799230.11246  22246644.788    22246652.518
       230.000         181.000
 99  4 24 20  8  0.0000000  0  8G24G30G 4G 5G 6G 8G 9G10
  20321110.030      436877.66549    348598.65348  20321109.549    20321114.976
       247.000         214.000
  22462771.683    -4041345.13349  -3126339.14946  22462771.407    22462776.745
       229.000         179.000
  22239760.960     3208856.10449   2496108.48046  22239761.194    22239766.098
       231.000         184.000
  20390677.296    -1792352.37649  -1387054.08348  20390676.658    20390681.651
       247.000         213.000
  24375388.707    -2782182.82549  -2150445.50845  24375387.570    24375396.779
       212.000         148.000
  21855623.100      947982.35749    742546.11346  21855622.098    21855630.214
       232.000         185.000
  23172854.721     3119824.45949   2427112.38846  23172855.116    23172864.575
       227.000         172.000
  22231378.133    -3716248.76149  -2861747.53846  22231376.928    22231384.424
       230.000         182.000
 99  4 24 20  8 30.0000000  0  8G24G30G 4G 5G 6G 8G 9G10
  20325930.980      462211.89949    368339.62648  20325930.781    20325936.005
       247.000         214.000
  22445911.270    -4129946.71549  -3195379.29446  22445911.289    22445916.231
       231.000         180.000
  22256400.060     3296294.27549   2564242.08046  22256400.005    22256405.464
       231.000         184.000
  20385058.674    -1821878.31449  -1410061.30848  20385057.918    20385062.918
       247.000         213.000
  24362508.964    -2849865.51949  -2203185.13145  24362507.407    24362515.973
       210.000         148.000
  21863196.719      987781.57349    773558.44146  21863196.204    21863202.926
       232.000         184.000
  23188976.904     3204546.47349   2493129.36046  23188976.965    23188985.479
       228.000         173.000
  22216161.517    -3796212.36049  -2924056.70946  22216160.812    22216167.563
       231.000         182.000
 99  4 24 20  9  0.0000000  0  8G24G30G 4G 5G 6G 8G 9G10
  20330828.350      487947.49749    388393.34948  20330827.951    20330833.506
       248.000         214.000
  22429093.081    -4218326.38749  -3264246.53646  22429092.452    22429098.521
       230.000         180.000
  22273072.321     3383907.54649   2632512.12146  22273071.913    22273077.286
       230.000         182.000
  20379528.366    -1850939.93049  -1432706.71948  20379527.916    20379532.671
       247.000         213.000
  24349626.805    -2917560.15249  -2255934.06445  24349625.985    24349633.692
       214.000         147.000
  21870866.689     1028087.88249    804965.90046  21870866.304    21870873.200
       232.000         184.000
  23205129.262     3289427.28149   2559270.08346  23205129.483    23205139.398
       226.000         172.000
  22200999.042    -3875891.46149  -2986144.19546  22200997.669    22201006.383
       231.000         183.000
 99  4 24 20  9 30.0000000  0  8G24G30G 4G 5G 6G 8G 9G10
  20335806.764      514109.43749    408779.28748  20335806.364    20335811.801
       247.000         214.000
  22412320.741    -4306465.45049  -3332926.27946  22412320.503    22412325.667
       231.000         181.000
  22289778.195     3471697.35749   2700919.73146  22289778.058    22289783.022
       231.000         181.000
  20374092.319    -1879506.99449  -1454966.76848  20374091.660    20374096.685
       247.000         213.000
  24336747.600    -2985240.06649  -2308671.51045  24336746.841    24336755.792
       212.000         147.000
  21878634.351     1068906.75549    836772.76346  21878633.537    21878641.350
       232.000         184.000
  23221311.403     3374464.32149   2625532.54446  23221311.351    23221320.805
       226.000         172.000
  22185897.270    -3955251.43949  -3047983.01446  22185896.164    22185903.485
       231.000         184.000
 99  4 24 20 10  0.0000000  0  8G24G30G 4G 5G 6G 8G 9G10
  20340866.573      540698.89549    429498.35248  20340866.141    20340871.613
       247.000         214.000
  22395596.964    -4394349.72749  -3401407.48946  22395596.971    22395602.235
       230.000         182.000
  22306516.383     3559656.68349   2769459.41946  22306516.490    22306521.893
       232.000         182.000
  20368752.107    -1907570.07249  -1476834.10048  20368751.517    20368756.472
       247.000         213.000
  24323874.165    -3052889.04649  -2361384.87345  24323873.932    24323881.517
       213.000         147.000
  21886500.072     1110241.79949    868981.82046  21886500.031    21886506.222
       232.000         184.000
  23237522.623     3459653.83249   2691913.78846  23237523.557    23237531.840
       227.000         172.000
  22170857.330    -4034286.22149  -3109568.44046  22170856.026    22170863.489
       229.000         183.000
 99  4 24 20 10 30.0000000  0  8G24G30G 4G 5G 6G 8G 9G10
  20346012.359      567740.20949    450569.51348  20346011.989    20346017.583
       247.000         214.000
  22378923.395    -4481970.09849  -3469683.05846  22378923.684    22378928.593
       232.000         181.000
  22323289.967     3647801.75649   2838143.85446  22323290.358    22323295.619
       232.000         182.000
  20363509.307    -1935121.21049  -1498302.51748  20363508.566    20363513.610
       247.000         213.000
  24311010.296    -3120488.64149  -2414059.75945  24311010.108    24311017.209
       212.000         148.000
  21894464.682     1152094.96249    901594.63746  21894463.928    21894471.249
       232.000         184.000
  23253763.751     3545000.47949   2758417.50546  23253763.345    23253773.560
       226.000         172.000
  22155883.585    -4112972.92949  -3170882.63046  22155882.322    22155890.596
       230.000         183.000
 99  4 24 20 11  0.0000000  0  8G24G30G 4G 5G 6G 8G 9G10
  20351241.617      595220.31949    471982.59548  20351241.359    20351246.765
       247.000         214.000
  22362298.951    -4569331.93049  -3537757.17446  22362298.753    22362303.668
       231.000         180.000
  22340096.141     3736118.43849   2906962.01246  22340096.153    22340101.576
       231.000         182.000
  20358359.923    -1962181.37849  -1519388.36248  20358359.451    20358364.445
       247.000         214.000
  24298156.529    -3188035.74349  -2466693.72645  24298155.577    24298164.021
       212.000         147.000
  21902525.398     1194454.53249    934602.02746  21902524.808    21902532.161
       232.000         183.000
  23270032.266     3630491.21749   2825033.48146  23270031.343    23270042.231
       225.000         171.000
  22140975.908    -4191312.97849  -3231926.69846  22140974.183    22140982.264
       231.000         183.000
 99  4 24 20 11 30.0000000  0  8G24G30G 4G 5G 6G 8G 9G10
  20356552.241      623127.67349    493728.58948  20356551.882    20356557.438
       247.000         214.000
  22345722.616    -4656440.49949  -3605633.93846  22345723.018    22345727.856
       232.000         180.000
  22356931.850     3824590.60449   2975901.31846  22356931.868    22356937.142
       231.000         181.000
  20353298.031    -1988781.85549  -1540116.00748  20353297.455    20353302.484
       247.000         214.000
  24285310.151    -3255542.93649  -2519296.61445  24285308.811    24285317.918
       211.000         145.000
  21910682.126     1237317.54349    968001.73546  21910681.381    21910688.913
       232.000         183.000
  23286325.665     3716113.05149   2891751.60246  23286325.242    23286334.595
       226.000         171.000
  22126131.133    -4269322.13949  -3292712.94146  22126129.959    22126137.056
       231.000         184.000
 99  4 24 20 12  0.0000000  0  8G24G30G 4G 5G 6G 8G 9G10
  20361938.139      651430.89949    515783.05648  20361937.714    20361943.266
       247.000         214.000
  22329189.815    -4743320.95149  -3673332.96946  22329189.943    22329194.654
       232.000         181.000
  22373795.326     3913208.61949   3044954.27446  22373795.134    22373800.209
       231.000         180.000
  20348315.259    -2014966.52549  -1560519.64648  20348314.515    20348319.772
       247.000         214.000
  24272464.145    -3323048.72149  -2571898.40645  24272463.423    24272470.617
       212.000         146.000
  21918928.434     1280652.41249   1001769.10446  21918928.012    21918935.047
       231.000         183.000
  23302641.847     3801854.02649   2958562.59146  23302642.406    23302651.244
       226.000         170.000
  22111345.149    -4347022.55849  -3353258.60046  22111343.745    22111351.256
       231.000         184.000
 99  4 24 20 12 30.0000000  0  8G24G30G 4G 5G 6G 8G 9G10
  20367396.219      680113.34549    538133.02148  20367395.885    20367401.267
       247.000         214.000
  22312697.456    -4829988.37049  -3740865.98746  22312697.521    22312702.748
       232.000         182.000
  22390685.538     4001966.59449   3114116.30246  22390685.621    22390690.747
       232.000         180.000
  20343409.737    -2040745.52349  -1580607.17648  20343409.221    20343414.186
       247.000         214.000
  24259614.553    -3390573.92749  -2624515.31145  24259613.149    24259621.097
       210.000         148.000
  21927261.974     1324445.35349   1035893.42846  21927261.972    21927268.218
       232.000         183.000
  23318978.332     3887702.56049   3025457.37146  23318978.067    23318987.818
       222.000         169.000
  22096617.168    -4424418.44549  -3413566.96646  22096616.291    22096623.963
       232.000         184.000
 99  4 24 20 13  0.0000000  0  8G24G30G 4G 5G 6G 8G 9G10
  20372929.111      709189.01449    560789.39148  20372928.735    20372934.066
       247.000         214.000
  22296251.605    -4916411.81649  -3808208.87946  22296251.836    22296255.979
       232.000         183.000
  22407604.092     4090873.98049   3183394.75446  22407603.719    22407609.404
       231.000         180.000
  20338587.499    -2066086.63449  -1600353.49548  20338586.879    20338591.861
       248.000         214.000
  24246762.986    -3458109.37249  -2677140.20345  24246761.886    24246769.590
       213.000         148.000
  21935687.235     1368719.82549   1070392.95646  21935686.890    21935693.417
       232.000         183.000
  23335338.568     3973675.62749   3092449.16546  23335339.031    23335347.981
       224.000         170.000
  22081952.565    -4501481.69849  -3473616.14146  22081951.583    22081958.326
       233.000         185.000
 99  4 24 20 13 30.0000000  0  8G24G30G 4G 5G 6G 8G 9G10
  20378539.037      738669.17149    583760.95048  20378538.661    20378544.106
       247.000         214.000
  22279853.483    -5002584.63649  -3875356.49346  22279853.249    22279857.945
       232.000         183.000
  22424553.011     4179940.93949   3252797.54146  22424552.605    22424558.648
       230.000         179.000
  20333852.372    -2090969.98449  -1619743.11748  20333851.657    20333856.720
       247.000         214.000
  24233908.056    -3525662.26749  -2729778.68445  24233907.415    24233915.768
       212.000         149.000
  21944205.819     1413484.49349   1105274.46746  21944204.923    21944212.140
       232.000         183.000
  23351722.827     4059774.59549   3159539.07646  23351722.809    23351732.613
       224.000         170.000
  22067354.826    -4578193.08449  -3533391.14046  22067353.549    22067361.229
       232.000         185.000
 99  4 24 20 14  0.0000000  0  8G24G30G 4G 5G 6G 8G 9G10
  20384221.765      768532.09549    607030.76248  20384221.347    20384226.820
       247.000         214.000
  22263497.869    -5088533.44049  -3942329.54246  22263498.311    22263502.857
       233.000         183.000
  22441529.991     4269156.14049   3322315.82446  22441530.062    22441534.880
       229.000         179.000
  20329206.391    -2115384.62649  -1638767.51648  20329205.804    20329210.820
       247.000         214.000
  24221044.134    -3593260.89149  -2782452.80745  24221042.811    24221052.117
       212.000         149.000
  21952812.856     1458715.27049   1140519.16546  21952812.234    21952819.490
       232.000         183.000
  23368124.954     4145967.89849   3226702.48846  23368124.844    23368134.419
       224.000         169.000
  22052822.175    -4654562.22449  -3592899.44846  22052821.050    22052828.171
       232.000         185.000
 99  4 24 20 14 30.0000000  0  8G24G30G 4G 5G 6G 8G 9G10
  20389983.845      798812.33949    630625.76848  20389983.388    20389988.873
       247.000         213.000
  22247191.384    -5174224.52049  -4009101.78346  22247190.800    22247196.144
       232.000         183.000
  22458537.275     4358530.20549   3391957.91646  22458537.048    22458542.954
       230.000         179.000
  20324660.743    -2139272.10849  -1657381.13648  20324660.231    20324664.989
       248.000         214.000
  24208179.570    -3660864.09149  -2835130.49445  24208178.297    24208186.629
       211.000         150.000
  21961516.117     1504450.49349   1176156.95346  21961515.479    21961522.334
       232.000         183.000
  23384550.507     4232284.21349   3293961.77146  23384550.293    23384559.425
       224.000         167.000
  22038361.981    -4730550.32849  -3652110.84546  22038361.220    22038367.815
       233.000         186.000
 99  4 24 20 15  0.0000000  0  8G24G30G 4G 5G 6G 8G 9G10
  20395821.563      829489.95949    654530.41348  20395821.247    20395826.687
       247.000         213.000
  22230931.021    -5259672.73049  -4075684.77446  22230931.406    22230936.190
       233.000         183.000
  22475571.703     4448046.33449   3461710.71746  22475572.455    22475577.734
       230.000         178.000
  20320212.141    -2162650.04849  -1675597.71348  20320211.430    20320216.436
       248.000         214.000
  24195311.015    -3728487.42049  -2887823.85745  24195310.755    24195318.421
       211.000         150.000
  21970311.162     1550669.34149   1212171.56746  21970310.610    21970317.093
       230.000         182.000
  23400994.433     4318696.33149   3361295.68946  23400994.329    23401004.972
       223.000         167.000
  22023972.582    -4806166.79849  -3711032.66646  22023971.452    22023978.413
       233.000         186.000
 99  4 24 20 15 30.0000000  0  8G24G30G 4G 5G 6G 8G 9G10
  20401738.741      860584.94249    678760.28048  20401738.400    20401743.933
       247.000         213.000
  22214719.742    -5344863.58649  -4142067.23346  22214719.949    22214724.635
       232.000         183.000
  22492641.144     4537746.19749   3531606.67846  22492641.498    22492646.950
       230.000         178.000
  20315866.237    -2185487.76249  -1693393.33448  20315865.549    20315870.771
       247.000         215.000
  24182446.761    -3796088.34449  -2940499.77645  24182447.500    24182454.230
       211.000         150.000
  21979205.534     1597409.26949   1248592.23946  21979204.913    21979212.327
       231.000         182.000
  23417463.773     4405242.81149   3428734.29346  23417464.117    23417472.799
       222.000         166.000
  22009659.076    -4881384.05849  -3769643.40446  22009657.651    22009665.252
       233.000         186.000
 99  4 24 20 16  0.0000000  0  8G24G30G 4G 5G 6G 8G 9G10
  20407730.448      892071.52349    703295.28248  20407730.142    20407735.598
       247.000         213.000
  22198556.530    -5429801.74749  -4208252.77046  22198556.549    22198562.182
       232.000         183.000
  22509742.619     4627614.86349   3601634.17246  22509742.679    22509748.159
       228.000         177.000
  20311620.388    -2207799.79749  -1710779.33948  20311619.918    20311624.693
       248.000         215.000
  24169587.875    -3863661.41349  -2993153.97645  24169587.423    24169595.604
       209.000         150.000
  21988195.908     1644653.41849   1285405.80146  21988195.179    21988202.551
       232.000         182.000
  23433957.227     4491915.87549   3496271.52146  23433957.589    23433967.547
       223.000         166.000
  21995420.482    -4956207.54949  -3827947.31846  21995419.668    21995426.841
       235.000         186.000
 99  4 24 20 16 30.0000000  0  8G24G30G 4G 5G 6G 8G 9G10
  20413791.700      923923.49349    728115.00848  20413791.256    20413796.791
       247.000         213.000
  22182439.965    -5514494.70649  -4274247.24846  22182440.126    22182444.940
       233.000         184.000
  22526870.315     4717621.76249   3671769.36346  22526869.733    22526875.976
       228.000         177.000
  20307467.185    -2229625.20049  -1727786.14048  20307466.503    20307471.365
       248.000         215.000
  24156734.389    -3931206.32249  -3045786.26245  24156734.271    24156742.207
       211.000         150.000
  21997276.231     1692370.46449   1322587.85246  21997275.113    21997282.814
       231.000         181.000
  23450470.776     4578693.65149   3563890.35946  23450470.757    23450480.122
       224.000         166.000
  21981253.245    -5030657.13149  -3885959.87546  21981251.596    21981259.488
       234.000         187.000
 99  4 24 20 17  0.0000000  0  8G24G30G 4G 5G 6G 8G 9G10
  20419921.194      956134.36449    753214.39148  20419920.873    20419926.296
       247.000         213.000
  22166368.571    -5598950.71849  -4340057.09746  22166368.492    22166373.946
       233.000         185.000
  22544019.481     4807740.94149   3741992.05246  22544019.900    22544025.475
       229.000         177.000
  20303398.901    -2251004.17449  -1744445.08648  20303398.320    20303403.289
       246.000         215.000
  24143882.559    -3998742.88249  -3098412.03345  24143882.048    24143890.410
       211.000         150.000
  22006440.161     1740527.27449   1360112.57246  22006439.769    22006446.719
       231.000         181.000
  23466997.546     4665541.42949   3631563.74546  23466997.446    23467007.547
       223.000         165.000
  21967152.134    -5104758.59749  -3943701.17946  21967150.768    21967157.968
       233.000         187.000
 99  4 24 20 17 30.0000000  0  8G24G30G 4G 5G 6G 8G 9G10
  20426124.606      988733.47849    778616.30648  20426124.029    20426129.522
       247.000         213.000
  22150349.351    -5683132.39449  -4405653.18146  22150349.472    22150353.869
       233.000         184.000
  22561190.834     4897976.72849   3812305.61246  22561190.453    22561196.263
       229.000         177.000
  20299420.897    -2271908.64449  -1760734.28448  20299420.344    20299425.350
       246.000         215.000
  24131036.504    -4066249.44049  -3151014.40945  24131036.721    24131044.204
       212.000         150.000
  22015689.682     1789133.78849   1397987.70746  22015688.396    22015696.890
       230.000         181.000
  23483542.748     4752486.52049   3699312.95546  23483542.782    23483552.914
       222.000         164.000
  21953120.351    -5178495.52949  -4001158.42846  21953118.832    21953125.989
       234.000         187.000
 99  4 24 20 18  0.0000000  0  8G24G30G 4G 5G 6G 8G 9G10
  20432405.448     1021739.54349    804335.32048  20432405.190    20432410.665
       247.000         213.000
  22134386.485    -5767017.42249  -4471018.10546  22134386.273    22134391.057
       232.000         184.000
  22578384.034     4988327.95949   3882709.12446  22578383.281    22578388.871
       228.000         176.000
  20295533.060    -2292339.57349  -1776654.49348  20295532.275    20295537.306
       247.000         215.000
  24118197.425    -4133719.27149  -3203588.18245  24118197.329    24118204.592
       213.000         150.000
  22025023.330     1838181.78249   1436206.84546  22025023.633    22025029.903
       232.000         182.000
  23500104.296     4839517.45949   3767129.05346  23500104.546    23500114.749
       224.000         164.000
  21939158.884    -5251863.06849  -4058327.83646  21939157.527    21939165.400
       234.000         187.000
 99  4 24 20 18 30.0000000  0  8G24G30G 4G 5G 6G 8G 9G10
  20438763.607     1055151.68049    830370.75448  20438763.219    20438768.633
       247.000         213.000
  22118478.260    -5850615.27949  -4536159.25846  22118478.116    22118483.462
       234.000         184.000
  22595595.318     5078774.29249   3953186.74146  22595595.445    22595600.965
       227.000         175.000
  20291733.167    -2312308.18849  -1792214.45648  20291732.526    20291737.549
       246.000         215.000
  24105361.609    -4201171.22449  -3256148.01145  24105361.326    24105368.285
       212.000         150.000
  22034441.738     1887674.75849   1474772.74246  22034441.673    22034448.402
       231.000         182.000
  23516679.921     4926621.39149   3835002.04246  23516679.232    23516690.004
       223.000         165.000
  21925263.631    -5324882.83649  -4115226.25847  21925261.997    21925269.779
       234.000         188.000
 99  4 24 20 19  0.0000000  0  8G24G30G 4G 5G 6G 8G 9G10
  20445201.878     1088985.04849    856734.42148  20445201.561    20445207.104
       246.000         213.000
  22102628.883    -5933904.80849  -4601060.15546  22102629.168    22102634.234
       235.000         185.000
  22612831.038     5169347.74149   4023763.41046  22612831.532    22612836.845
       228.000         176.000
  20288028.344    -2331777.03149  -1807384.99048  20288027.631    20288032.633
       246.000         215.000
  24092528.746    -4268608.12849  -3308696.12845  24092527.780    24092535.373
       213.000         150.000
  22043953.242     1937657.35249   1513720.14346  22043952.139    22043959.330
       231.000         182.000
  23533274.276     5013824.89349   3902952.58046  23533274.273    23533284.735
       222.000         166.000
  21911438.351    -5397534.51649  -4171837.85447  21911436.768    21911444.219
       234.000         188.000
 99  4 24 20 19 30.0000000  0  8G24G30G 4G 5G 6G 8G 9G10
  20451715.037     1123212.01749    883404.78848  20451714.493    20451720.042
       247.000         213.000
  22086837.790    -6016887.58849  -4665722.02446  22086838.500    22086842.630
       235.000         186.000
  22630095.848     5260074.73149   4094459.72246  22630096.340    22630101.958
       230.000         177.000
  20284422.299    -2350726.95249  -1822151.16448  20284421.907    20284426.679
       247.000         215.000
  24079698.680    -4336030.68649  -3361233.08745  24079698.282    24079705.704
       214.000         151.000
  22053561.388     1988148.31749   1553063.67346  22053561.117    22053567.566
       231.000         182.000
  23549888.808     5101133.89849   3970985.34946  23549890.120    23549899.372
       224.000         167.000
  21897685.178    -5469807.29149  -4228154.21247  21897684.239    21897691.748
       235.000         188.000
 99  4 24 20 20  0.0000000  0  8G24G30G 4G 5G 6G 8G 9G10
  20458297.989     1157806.00849    910361.14948  20458297.605    20458302.998
       247.000         213.000
  22071098.985    -6099595.61349  -4730169.80446  22071098.736    22071103.706
       235.000         186.000
  22647387.161     5350940.90849   4165264.48546  22647388.549    22647392.722
       229.000         177.000
  20280910.539    -2369181.47749  -1836531.31848  20280909.808    20280914.790
       246.000         215.000
  24066866.358    -4403464.92349  -3413779.13545  24066866.235    24066873.749
       217.000         154.000
  22063263.557     2039133.45549   1592792.28146  22063263.031    22063269.833
       232.000         182.000
  23566517.944     5188519.38549   4039077.71546  23566517.719    23566528.841
       224.000         166.000
  21884002.622    -5541709.44749  -4284181.76147  21884001.141    21884008.433
       234.000         188.000
 99  4 24 20 20 30.0000000  0  8G24G30G 4G 5G 6G 8G 9G10
  20464948.542     1192755.10449    937594.21248  20464948.411    20464953.771
       247.000         213.000
  22055412.031    -6182031.32749  -4794405.38046  22055411.526    22055416.718
       236.000         186.000
  22664702.200     5441931.85249   4236166.46646  22664701.654    22664707.918
       227.000         175.000
  20277493.044    -2387140.40149  -1850525.29148  20277492.384    20277497.405
       247.000         215.000
  24054027.893    -4470931.87649  -3466350.66245  24054027.413    24054034.201
       216.000         155.000
  22073056.078     2090593.26649   1632890.74546  22073055.362    22073062.699
       230.000         182.000
  23583160.673     5275976.54149   4107225.91846  23583161.417    23583170.979
       223.000         166.000
  21870391.139    -5613237.53449  -4339917.84547  21870390.204    21870397.278
       233.000         188.000
 99  4 24 20 21  0.0000000  0  8G24G30G 4G 5G 6G 8G 9G10
  20471668.699     1228069.55649    965111.96848  20471668.409    20471673.751
       247.000         213.000
  22039779.587    -6264179.59849  -4858416.99146  22039779.388    22039783.928
       235.000         185.000
  22682046.427     5533075.52949   4307187.46946  22682046.926    22682051.679
       227.000         173.000
  20274173.451    -2404585.11349  -1864118.57748  20274172.902    20274177.870
       246.000         215.000
  24041184.126    -4538426.63349  -3518943.88345  24041183.375    24041190.788
       216.000         156.000
  22082936.039     2142512.57749   1673347.27846  22082935.832    22082942.784
       230.000         181.000
  23599818.568     5363513.20649   4175436.07146  23599818.995    23599829.494
       222.000         165.000
  21856856.772    -5684361.10549  -4395338.71647  21856855.684    21856863.231
       234.000         189.000
 99  4 24 20 21 30.0000000  0  8G24G30G 4G 5G 6G 8G 9G10
  20478465.770     1263788.08549    992944.58748  20478465.753    20478470.916
       247.000         213.000
  22024207.474    -6346011.58349  -4922182.14246  22024207.329    22024212.391
       235.000         185.000
  22699420.700     5624377.88249   4378332.11146  22699420.228    22699425.932
       227.000         172.000
  20270954.085    -2421503.08049  -1877301.41448  20270953.341    20270958.564
       246.000         216.000
  24028341.953    -4605912.59849  -3571530.24845  24028341.795    24028348.135
       217.000         156.000
  22092901.211     2194879.66649   1714152.71846  22092900.633    22092907.453
       231.000         181.000
  23616495.370     5451149.34849   4243723.74946  23616496.090    23616505.807
       223.000         165.000
  21843406.114    -5755044.40749  -4450416.52347  21843404.596    21843411.830
       234.000         189.000
 99  4 24 20 22  0.0000000  0  8G24G30G 4G 5G 6G 8G 9G10
  20485335.158     1299886.71549   1021073.38947  20485335.078    20485340.283
       247.000         212.000
  22008689.541    -6427558.84649  -4985725.43446  22008689.501    22008694.251
       236.000         186.000
  22716814.437     5715782.89649   4449556.76146  22716815.026    22716820.451
       227.000         172.000
  20267826.057    -2437941.08349  -1890110.25848  20267825.486    20267830.483
       246.000         216.000
  24015493.343    -4673432.04149  -3624142.68745  24015492.750    24015499.340
       216.000         156.000
  22102940.085     2247634.13549   1755260.01546  22102939.423    22102946.988
       230.000         181.000
  23633184.343     5538849.13549   4312061.00646  23633184.727    23633194.352
       222.000         165.000
  21830032.080    -5825325.39449  -4505180.84047  21830031.004    21830037.789
       233.000         189.000
 99  4 24 20 22 30.0000000  0  8G24G30G 4G 5G 6G 8G 9G10
  20492272.667     1336343.52649   1049481.29547  20492272.305    20492277.696
       247.000         212.000
  21993225.244    -6508824.74649  -5049049.47746  21993225.487    21993230.345
       236.000         187.000
  22734226.583     5807283.78949   4520856.10646  22734226.732    22734231.999
       227.000         173.000
  20264787.764    -2453907.63049  -1902551.72848  20264787.120    20264792.070
       247.000         216.000
  24002635.688    -4740998.85049  -3676792.05945  24002635.551    24002642.107
       214.000         155.000
  22113049.186     2300757.89549   1796655.06746  22113048.755    22113056.619
       230.000         181.000
  23649882.505     5626597.67349   4380436.26146  23649882.027    23649893.460
       221.000         165.000
  21816729.886    -5895228.53649  -4559650.73847  21816729.093    21816735.653
       234.000         190.000
 99  4 24 20 23  0.0000000  0  8G24G30G 4G 5G 6G 8G 9G10
  20499281.652     1373176.27549   1078182.14047  20499281.303    20499286.852
       247.000         212.000
  21977820.310    -6589777.75349  -5112129.70047  21977820.232    21977825.024
       235.000         188.000
  22751663.353     5898914.27949   4592256.43546  22751663.351    22751668.856
       227.000         173.000
  20261845.354    -2469370.17649  -1914600.47148  20261844.717    20261849.651
       247.000         216.000
  23989777.666    -4808567.70449  -3729443.00445  23989777.303    23989784.730
       213.000         155.000
  22123237.886     2354299.26949   1838375.53946  22123236.632    22123245.072
       230.000         180.000
  23666594.613     5714419.51249   4448868.62146  23666594.617    23666604.684
       221.000         165.000
  21803505.789    -5964721.28449  -4613800.84247  21803504.798    21803511.684
       234.000         190.000
 99  4 24 20 23 30.0000000  0  8G24G30G 4G 5G 6G 8G 9G10
  20506360.499     1410375.75449   1107168.74847  20506360.062    20506365.561
       247.000         212.000
  21962475.581    -6670414.47949  -5174963.48046  21962475.714    21962479.765
       236.000         187.000
  22769118.910     5990644.09849   4663734.15446  22769119.247    22769124.575
       226.000         173.000
  20258999.788    -2484323.65549  -1926252.54048  20258999.357    20259004.372
       247.000         216.000
  23976922.012    -4876123.64549  -3782083.89345  23976920.943    23976929.148
       212.000         152.000
  22133506.834     2408263.26149   1880425.31046  22133506.532    22133514.045
       230.000         180.000
  23683319.281     5802307.27249   4517352.34046  23683319.769    23683330.349
       220.000         164.000
  21790357.807    -6033813.94149  -4667639.18747  21790356.470    21790363.749
       234.000         190.000
 99  4 24 20 24  0.0000000  0  8G24G30G 4G 5G 6G 8G 9G10
  20513505.546     1447923.36249   1136426.62347  20513505.346    20513510.776
       247.000         212.000
  21947188.709    -6750747.56149  -5237560.66347  21947189.027    21947192.964
       236.000         188.000
  22786592.891     6082470.00349   4735286.75246  22786594.119    22786598.237
       227.000         172.000
  20256253.229    -2498757.02949  -1937499.33248  20256252.568    20256257.544
       247.000         216.000
  23964070.298    -4943659.25949  -3834708.95245  23964070.099    23964075.843
       212.000         151.000
  22143858.932     2462663.50449   1922815.02446  22143858.606    22143865.946
       230.000         180.000
  23700055.708     5890257.09049   4585884.42646  23700055.563    23700066.817
       219.000         163.000
  21777285.347    -6102509.56849  -4721168.17147  21777284.530    21777291.413
       234.000         190.000
 99  4 24 20 24 30.0000000  0  8G24G30G 4G 5G 6G 8G 9G10
  20520721.741     1485844.61949   1165975.65147  20520721.260    20520726.939
       246.000         212.000
  21931962.182    -6830763.55249  -5299910.76947  21931962.418    21931967.145
       236.000         188.000
  22804087.901     6174405.97349   4806925.12746  22804088.718    22804093.917
       229.000         173.000
  20253611.290    -2512640.75849  -1948317.83248  20253610.617    20253615.606
       248.000         216.000
  23951230.609    -5011132.43149  -3887285.32245  23951230.048    23951236.952
       212.000         150.000
  22154300.191     2517532.52749   1965570.01546  22154300.497    22154307.443
       231.000         180.000
  23716806.471     5978282.96749   4654475.77145  23716806.197    23716816.910
       218.000         162.000
  21764292.648    -6170786.42549  -4774370.83647  21764291.105    21764298.957
       233.000         190.000
 99  4 24 20 25  0.0000000  0  8G24G30G 4G 5G 6G 8G 9G10
  20528009.730     1524143.43949   1195818.88747  20528009.395    20528014.814
       247.000         212.000
  21916794.905    -6910468.64949  -5362018.61047  21916794.479    21916799.409
       236.000         189.000
  22821598.862     6266425.52949   4878628.64746  22821599.266    22821604.526
       229.000         174.000
  20251071.910    -2525985.56149  -1958716.38848  20251071.255    20251076.080
       247.000         216.000
  23938402.186    -5078545.64049  -3939815.00145  23938401.899    23938407.829
       209.000         149.000
  22164829.115     2572860.89949   2008682.94446  22164827.859    22164836.432
       230.000         180.000
  23733571.748     6066384.14049   4723125.78745  23733571.910    23733582.982
       219.000         162.000
  21751380.797    -6238638.58749  -4827242.56147  21751379.523    21751386.677
       235.000         191.000
 99  4 24 20 25 30.0000000  0  8G24G30G 4G 5G 6G 8G 9G10
  20535370.972     1562826.90949   1225961.84947  20535370.649    20535376.123
       247.000         212.000
  21901685.740    -6989867.28149  -5423887.64647  21901685.629    21901690.376
       236.000         189.000
  22839126.013     6358530.82349   4950398.94846  22839125.552    22839130.787
       226.000         173.000
  20248635.094    -2538791.10149  -1968694.73948  20248634.512    20248639.393
       247.000         216.000
  23925583.480    -5145907.19449  -3992304.41045  23925582.744    23925590.086
       211.000         149.000
  22175444.594     2628645.68549   2052151.52046  22175444.050    22175451.427
       230.000         180.000
  23750354.368     6154575.92949   4791846.42245  23750355.431    23750365.748
       220.000         162.000
  21738551.195    -6306058.42449  -4879777.43047  21738549.755    21738556.565
       234.000         191.000
 99  4 24 20 26  0.0000000  0  8G24G30G 4G 5G 6G 8G 9G10
  20542806.012     1601898.23649   1256407.03747  20542805.712    20542811.309
       247.000         212.000
  21886634.802    -7068960.34949  -5485518.58247  21886635.088    21886640.123
       237.000         191.000
  22856674.694     6450749.87749   5022257.89846  22856674.923    22856679.799
       225.000         173.000
  20246298.425    -2551070.60449  -1978263.19448  20246297.810    20246302.785
       247.000         216.000
  23912774.578    -5213219.07349  -4044755.11845  23912774.081    23912781.517
       211.000         150.000
  22186150.550     2684905.52549   2095990.25246  22186150.717    22186157.782
       231.000         180.000
  23767154.120     6242857.99149   4860637.38345  23767153.702    23767164.561
       219.000         162.000
  21725804.631    -6373041.65849  -4931972.08047  21725803.179    21725810.182
       234.000         191.000
 99  4 24 20 26 30.0000000  0  8G24G30G 4G 5G 6G 8G 9G10
  20550307.329     1641317.66449   1287123.47247  20550306.999    20550312.501
       247.000         212.000
  21871640.423    -7147756.54149  -5546918.19347  21871640.698    21871644.751
       236.000         191.000
  22874240.355     6543058.42049   5094186.57246  22874240.273    22874246.177
       227.000         173.000
  20244053.481    -2562868.17849  -1987456.12348  20244052.754    20244057.756
       247.000         216.000
  23899963.401    -5280540.69249  -4097213.42245  23899962.270    23899969.523
       212.000         151.000
  22196941.635     2741611.88249   2140176.93346  22196941.057    22196948.896
       230.000         180.000
  23783962.087     6331183.55449   4929462.25345  23783961.716    23783972.436
       217.000         160.000
  21713135.387    -6439618.76749  -4983850.26647  21713134.100    21713140.993
       234.000         191.000
 99  4 24 20 27  0.0000000  0  8G24G30G 4G 5G 6G 8G 9G10
  20557870.079     1681060.34549   1318091.78847  20557869.983    20557875.541
       247.000         212.000
  21856702.960    -7226252.89849  -5608084.16547  21856703.179    21856707.586
       237.000         191.000
  22891822.589     6635452.70249   5166182.06846  22891823.730    22891827.906
       228.000         173.000
  20241897.079    -2574200.04749  -1996286.16448  20241896.557    20241901.304
       247.000         216.000
  23887144.178    -5347905.05449  -4149705.02945  23887143.595    23887151.053
       216.000         153.000
  22207812.443     2798737.15949   2184690.03546  22207811.772    22207819.125
       230.000         179.000
  23800773.570     6419528.03949   4998301.85345  23800774.287    23800784.655
       219.000         161.000
  21700543.859    -6505787.39049  -5035410.15847  21700542.577    21700549.442
       235.000         191.000
 99  4 24 20 27 30.0000000  0  8G24G30G 4G 5G 6G 8G 9G10
  20565496.724     1721138.30749   1349321.36647  20565496.313    20565501.751
       246.000         212.000
  21841826.504    -7304429.41049  -5669000.90547  21841826.638    21841831.506
       237.000         191.000
  22909427.531     6727966.44049   5238270.65146  22909427.184    22909433.202
       228.000         173.000
  20239835.321    -2585034.48649  -2004728.59548  20239834.704    20239839.529
       247.000         216.000
  23874321.500    -5415289.07249  -4202211.96445  23874322.281    23874328.243
       215.000         154.000
  22218767.455     2856306.46149   2229549.13246  22218766.188    22218773.799
       230.000         179.000
  23817590.209     6507898.04249   5067161.35646  23817590.515    23817601.303
       221.000         163.000
  21688034.713    -6571523.21849  -5086632.80947  21688033.497    21688040.343
       235.000         192.000
 99  4 24 20 28  0.0000000  0  8G24G30G 4G 5G 6G 8G 9G10
  20573179.303     1761510.43549   1380780.16447  20573179.005    20573184.273
       247.000         212.000
  21827005.560    -7382314.13849  -5729690.28147  21827005.439    21827010.383
       236.000         191.000
  22927046.117     6820552.56349   5310415.64346  22927046.346    22927051.088
       226.000         171.000
  20237860.085    -2595414.48549  -2012816.91548  20237859.371    20237864.316
       247.000         216.000
  23861483.753    -5482751.39649  -4254779.91845  23861483.519    23861490.808
       215.000         156.000
  22229794.485     2914253.40049   2274702.49146  22229794.384    22229801.542
       230.000         179.000
  23834399.316     6596229.89449   5135991.11845  23834399.668    23834410.861
       218.000         161.000
  21675597.315    -6636881.54349  -5137561.29147  21675596.127    21675603.317
       235.000         192.000
 99  4 24 20 28 30.0000000  0  8G24G30G 4G 5G 6G 8G 9G10
  20580927.684     1802228.50749   1412508.52947  20580927.320    20580932.622
       247.000         212.000
  21812250.693    -7459851.05549  -5790108.62347  21812250.853    21812255.520
       237.000         192.000
  22944684.428     6913243.87049   5382642.58546  22944684.096    22944689.722
       223.000         169.000
  20235982.657    -2605280.73749  -2020504.91948  20235982.011    20235987.014
       247.000         216.000
  23848637.772    -5550256.58749  -4307381.27245  23848637.892    23848644.321
       216.000         157.000
  22240896.023     2972591.79249   2320160.86446  22240895.369    22240902.983
       229.000         178.000
  23851210.174     6684571.14549   5204828.19145  23851209.391    23851220.851
       218.000         160.000
  21663241.915    -6701809.50949  -5188154.43947  21663240.721    21663247.374
       235.000         192.000
 99  4 24 20 29  0.0000000  0  8G24G30G 4G 5G 6G 8G 9G10
  20588742.766     1843297.31549   1444510.19447  20588742.340    20588747.892
       247.000         212.000
  21797557.754    -7537063.04749  -5850273.78947  21797557.965    21797562.546
       238.000         193.000
  22962341.372     7006032.22449   5454945.15146  22962341.392    22962346.523
       224.000         168.000
  20234203.242    -2614631.46449  -2027791.21248  20234202.503    20234207.533
       247.000         216.000
  23835787.522    -5617785.20149  -4360000.88145  23835787.258    23835793.779
       216.000         157.000
  22252069.385     3031307.88449   2365913.56646  22252069.233    22252076.575
       229.000         178.000
  23868025.160     6772933.64249   5273681.83145  23868025.919    23868036.693
       220.000         159.000
  21650967.053    -6766314.29449  -5238417.83247  21650966.198    21650972.311
       236.000         192.000
 99  4 24 20 29 30.0000000  0  8G24G30G 4G 5G 6G 8G 9G10
  20596631.007     1884750.36649   1476811.26647  20596630.719    20596636.260
       247.000         212.000
  21782931.724    -7613923.62349  -5910165.12147  21782931.930    21782936.506
       236.000         192.000
  22980020.909     7098938.88849   5527339.88146  22980020.843    22980026.490
       225.000         169.000
  20232528.242    -2623433.73749  -2034650.13848  20232527.623    20232532.520
       247.000         216.000
  23822940.561    -5685296.51449  -4412607.00945  23822940.342    23822947.643
       217.000         158.000
  22263321.670     3090438.35349   2411989.15046  22263321.223    22263328.384
       230.000         177.000
  23884851.901     6861356.75549   5342582.72645  23884851.831    23884862.260
       220.000         157.000
  21638777.147    -6830372.25449  -5288333.05547  21638775.707    21638782.821
       236.000         192.000
 99  4 24 20 30  0.0000000  0  8G24G30G 4G 5G 6G 8G 9G10
  20604590.325     1926576.50349   1509403.06147  20604590.089    20604595.500
       247.000         212.000
  21768372.693    -7690431.60049  -5969781.70147  21768372.779    21768376.978
       237.000         192.000
  22997717.930     7191937.16149   5599806.02846  22997718.581    22997723.661
       225.000         169.000
  20230953.675    -2631708.02249  -2041097.63748  20230952.963    20230957.998
       247.000         216.000
  23810094.703    -5752801.48049  -4465208.21745  23810094.894    23810102.076
       217.000         159.000
  22274649.017     3149963.66149   2458372.40046  22274649.151    22274655.814
       230.000         177.000
  23901686.778     6949823.30649   5411517.44545  23901687.636    23901697.932
       219.000         158.000
  21626672.039    -6893984.67349  -5337901.10147  21626670.807    21626677.524
       236.000         193.000
 99  4 24 20 30 30.0000000  0  8G24G30G 4G 5G 6G 8G 9G10
  20612611.348     1968727.17649   1542247.73647  20612611.006    20612616.728
       247.000         212.000
  21753871.795    -7766634.49649  -6029160.55647  21753871.608    21753876.053
       237.000         192.000
  23015423.100     7284977.97049   5672305.30846  23015423.814    23015428.820
       225.000         167.000
  20229473.168    -2639488.19949  -2047160.12148  20229472.378    20229477.456
       246.000         216.000
  23797250.669    -5820297.80349  -4517802.65445  23797249.987    23797257.940
       219.000         159.000
  22286048.162     3209866.26649   2505049.65246  22286047.710    22286055.210
       229.000         177.000
  23918521.899     7038291.96049   5480453.79445  23918522.451    23918534.264
       218.000         158.000
  21614650.710    -6957157.11749  -5387126.31447  21614649.849    21614656.531
       237.000         194.000
 99  4 24 20 31  0.0000000  0  8G24G30G 4G 5G 6G 8G 9G10
  20620691.392     2011188.18149   1575334.22647  20620690.863    20620696.618
       247.000         212.000
  21739429.110    -7842531.28449  -6088300.88247  21739428.867    21739433.737
       238.000         193.000
  23033136.149     7378060.09049   5744836.77846  23033135.942    23033141.192
       223.000         166.000
  20228087.824    -2646768.13049  -2052832.80448  20228087.337    20228092.425
       247.000         216.000
  23784410.875    -5887771.12949  -4570379.17945  23784410.715    23784417.796
       217.000         159.000
  22297522.183     3270162.28749   2552033.45746  22297521.757    22297529.296
       228.000         177.000
  23935355.201     7126750.66849   5549382.38845  23935355.019    23935366.695
       217.000         156.000
  21602716.669    -7019870.94049  -5435994.16247  21602715.441    21602722.481
       236.000         194.000
 99  4 24 20 31 30.0000000  0  8G24G30G 4G 5G 6G 8G 9G10
  20628840.228     2054010.71049   1608702.42547  20628840.001    20628845.503
       247.000         212.000
  21725058.956    -7918047.08449  -6147144.33747  21725058.735    21725063.752
       238.000         194.000
  23050864.597     7471222.95749   5817431.16846  23050864.319    23050869.797
       223.000         164.000
  20226809.767    -2653484.65349  -2058066.47148  20226809.111    20226814.160
       247.000         216.000
  23771583.139    -5955181.27349  -4622906.48845  23771582.536    23771589.531
       218.000         159.000
  22309080.139     3330899.41249   2599360.97546  22309079.536    22309087.429
       229.000         176.000
  23952193.716     7215236.20249   5618331.89645  23952194.421    23952205.218
       219.000         157.000
  21590882.904    -7082057.61049  -5484451.23647  21590881.644    21590888.735
       235.000         194.000
 99  4 24 20 32  0.0000000  0  8G24G30G 4G 5G 6G 8G 9G10
  20637047.457     2097139.54549   1642309.30447  20637047.090    20637052.471
       247.000         212.000
  21710753.802    -7993220.80649  -6205721.23847  21710753.868    21710758.663
       237.000         194.000
  23068600.434     7564424.73149   5890055.87246  23068600.070    23068606.441
       223.000         164.000
  20225629.622    -2659686.67949  -2062899.22948  20225628.918    20225633.998
       247.000         216.000
  23758758.051    -6022576.64649  -4675422.27145  23758756.935    23758764.566
       215.000         158.000
  22320712.850     3392029.27649   2646994.53346  22320712.292    22320719.972
       229.000         176.000
  23969026.766     7303693.70449   5687259.55345  23969027.408    23969038.762
       219.000         157.000
  21579140.331    -7143764.87549  -5532534.75347  21579138.893    21579145.759
       237.000         194.000
 99  4 24 20 32 30.0000000  0  8G24G30G 4G 5G 6G 8G 9G10
  20645312.134     2140570.86249   1676151.88247  20645311.768    20645317.281
       247.000         211.000
  21696514.144    -8068050.18149  -6264029.81247  21696514.506    21696518.806
       238.000         194.000
  23086347.706     7657686.78949   5962727.54946  23086347.904    23086353.161
       224.000         166.000
  20224550.579    -2665357.15749  -2067317.79648  20224549.756    20224554.800
       247.000         216.000
  23745936.652    -6089952.88049  -4727923.16745  23745936.250    23745942.131
       217.000         157.000
  22332419.809     3453548.91449   2694931.80646  22332420.087    22332427.199
       228.000         175.000
  23985857.691     7392140.00449   5756178.47945  23985858.296    23985868.789
       217.000         156.000
  21567487.697    -7205000.04249  -5580250.40547  21567486.470    21567493.326
       237.000         195.000
 99  4 24 20 33  0.0000000  0  8G24G30G 4G 5G 6G 8G 9G10
  20653639.325     2184330.42549   1710250.23947  20653638.863    20653644.269
       247.000         211.000
  21682347.331    -8142497.27749  -6322040.51747  21682347.363    21682351.966
       238.000         194.000
  23104111.557     7751036.05149   6035467.18046  23104111.267    23104116.390
       225.000         166.000
  20223577.882    -2670468.49649  -2071300.66948  20223577.139    20223582.132
       247.000         216.000
  23733116.289    -6157323.45849  -4780419.64545  23733116.345    23733122.920
       218.000         158.000
  22344200.803     3515458.82949   2743173.18146  22344200.252    22344208.492
       226.000         175.000
  24002694.662     7480616.67349   5825121.09645  24002694.910    24002706.908
       216.000         156.000
  21555924.036    -7265766.89049  -5627601.13347  21555922.995    21555929.795
       236.000         195.000
 99  4 24 20 33 30.0000000  0  8G24G30G 4G 5G 6G 8G 9G10
  20662030.887     2228428.16149   1744612.10147  20662030.444    20662035.916
       247.000         211.000
  21668254.209    -8216557.20349  -6379749.53747  21668253.880    21668259.036
       238.000         195.000
  23121892.847     7844477.15749   6108278.37846  23121892.917    23121897.778
       222.000         166.000
  20222710.776    -2675025.08449  -2074851.27248  20222710.169    20222714.972
       247.000         216.000
  23720295.245    -6224697.68149  -4832918.96645  23720295.331    23720302.168
       216.000         157.000
  22356054.059     3577748.19449   2791710.23146  22356054.436    22356061.618
       227.000         174.000
  24019540.890     7569143.31149   5894102.62145  24019541.777    24019552.180
       214.000         155.000
  21544447.275    -7326077.30449  -5674596.20347  21544446.100    21544452.292
       237.000         195.000
 99  4 24 20 34  0.0000000  0  8G24G30G 4G 5G 6G 8G 9G10
  20670483.770     2272848.18049   1779225.09747  20670483.482    20670488.720
       247.000         211.000
  21654228.662    -8290261.61149  -6437181.51347  21654228.060    21654233.470
       238.000         195.000
  23139690.040     7938002.91649   6181155.53046  23139689.736    23139696.080
       221.000         164.000
  20221945.203    -2679048.26749  -2077986.23348  20221944.649    20221949.492
       247.000         216.000
  23707470.631    -6292090.60049  -4885432.85345  23707470.869    23707476.682
       216.000         157.000
  22367976.569     3640400.71249   2840530.26446  22367976.372    22367984.483
       228.000         174.000
  24036394.982     7657712.28949   5963117.11645  24036395.240    24036408.301
       215.000         153.000
  21533052.235    -7385958.50749  -5721256.82847  21533050.689    21533057.361
       236.000         195.000
 99  4 24 20 34 30.0000000  0  8G24G30G 4G 5G 6G 8G 9G10
  20679001.419     2317608.71949   1814103.43047  20679001.185    20679006.662
       247.000         211.000
  21640272.229    -8363602.78749  -6494330.46247  21640272.091    21640277.349
       238.000         195.000
  23157503.205     8031611.94349   6254097.57046  23157503.764    23157508.403
       221.000         163.000
  20221285.990    -2682512.62449  -2080685.75248  20221285.405    20221290.388
       247.000         216.000
  23694645.406    -6359487.09449  -4937949.51645  23694645.268    23694652.546
       216.000         156.000
  22379968.627     3703418.71249   2889635.08746  22379968.250    22379976.644
       227.000         174.000
  24053261.064     7746342.90149   6032179.67645  24053262.013    24053273.934
       216.000         155.000
  21521741.527    -7445395.94549  -5767571.66247  21521740.239    21521746.950
       237.000         195.000
 99  4 24 20 35  0.0000000  0  8G24G30G 4G 5G 6G 8G 9G10
  20687588.459     2362733.78049   1849265.80547  20687588.141    20687593.566
       247.000         211.000
  21626388.245    -8436563.68949  -6551183.08947  21626388.163    21626393.426
       238.000         195.000
  23175331.799     8125301.31949   6327102.21446  23175331.732    23175337.457
       223.000         164.000
  20220734.447    -2685411.10149  -2082944.32248  20220733.847    20220738.722
       247.000         216.000
  23681822.620    -6426871.13649  -4990456.48345  23681822.755    23681828.650
       214.000         156.000
  22392033.226     3766818.07149   2939037.06746  22392033.428    22392041.136
       226.000         174.000
  24070138.922     7835035.29249   6101290.33345  24070140.269    24070150.900
       215.000         156.000
  21510519.530    -7504368.00749  -5813523.86347  21510518.468    21510525.624
       237.000         195.000
 99  4 24 20 35 30.0000000  0  8G24G30G 4G 5G 6G 8G 9G10
  20696243.075     2408214.11349   1884705.01647  20696242.609    20696248.034
       247.000         211.000
  21612573.643    -8509160.23049  -6607751.80247  21612573.667    21612577.872
       239.000         195.000
  23193172.029     8219051.62149   6400154.36046  23193172.681    23193178.880
       224.000         165.000
  20220285.530    -2687770.13949  -2084782.55448  20220284.998    20220289.986
       248.000         216.000
  23669003.443    -6494235.83049  -5042948.35845  23669002.700    23669009.740
       215.000         157.000
  22404168.860     3830591.30649   2988730.37646  22404168.607    22404176.973
       227.000         174.000
  24087019.868     7923743.45849   6170413.32145  24087019.723    24087031.652
       215.000         155.000
  21499386.073    -7562874.44349  -5859113.23847  21499385.045    21499391.477
       236.000         195.000
 99  4 24 20 36  0.0000000  0  8G24G30G 4G 5G 6G 8G 9G10
  20704960.202     2454022.92049   1920400.18247  20704959.735    20704965.239
       247.000         211.000
  21598826.683    -8581400.90449  -6664043.22747  21598826.593    21598831.442
       239.000         196.000
  23211019.482     8312840.11149   6473236.24346  23211018.906    23211025.278
       223.000         166.000
  20219936.183    -2689606.03149  -2086213.13448  20219935.620    20219940.596
       248.000         216.000
  23656186.818    -6561586.90849  -5095429.64145  23656186.153    23656192.817
       215.000         158.000
  22416372.960     3894723.15249   3038703.12946  22416373.188    22416379.797
       228.000         173.000
  24103895.915     8012427.80849   6239517.70345  24103896.090    24103908.031
       213.000         154.000
  21488340.850    -7620917.34749  -5904341.42547  21488340.062    21488346.034
       237.000         195.000
 99  4 24 20 36 30.0000000  0  8G24G30G 4G 5G 6G 8G 9G10
  20713739.779     2500159.60349   1956350.83747  20713739.367    20713744.718
       247.000         211.000
  21585152.332    -8653260.35849  -6720037.58547  21585152.130    21585157.301
       238.000         196.000
  23228876.663     8406680.89749   6546358.87446  23228876.493    23228882.841
       219.000         165.000
  20219688.192    -2690909.42249  -2087228.78248  20219687.751    20219692.643
       248.000         216.000
  23643377.711    -6628899.17849  -5147880.66445  23643377.101    23643384.402
       216.000         159.000
  22428645.863     3959216.82149   3088957.81746  22428646.121    22428653.450
       229.000         173.000
  24120767.297     8101086.71349   6308602.28245  24120767.990    24120780.025
       213.000         154.000
  21477391.620    -7678455.89549  -5949176.60847  21477390.472    21477396.912
       237.000         196.000
 99  4 24 20 37  0.0000000  0  8G24G30G 4G 5G 6G 8G 9G10
  20722576.183     2546595.21149   1992534.41847  20722576.019    20722581.320
       247.000         211.000
  21571549.232    -8724744.92349  -6775739.82047  21571549.047    21571554.310
       239.000         196.000
  23246745.795     8500583.94349   6619529.99946  23246746.222    23246751.595
       220.000         163.000
  20219535.675    -2691711.12349  -2087853.50148  20219535.187    20219540.086
       248.000         217.000
  23630572.946    -6696188.73049  -5200314.00445  23630572.335    23630579.295
       217.000         161.000
  22440986.500     4024066.37449   3139489.81246  22440985.849    22440994.277
       228.000         173.000
  24137629.977     8189699.27949   6377650.75545  24137630.476    24137642.363
       215.000         154.000
  21466539.328    -7735485.01549  -5993614.83847  21466538.255    21466544.839
       237.000         196.000
 99  4 24 20 37 30.0000000  0  8G24G30G 4G 5G 6G 8G 9G10
  20731459.761     2593278.47849   2028910.98147  20731459.349    20731464.696
       247.000         211.000
  21558009.783    -8795895.12149  -6831181.51147  21558009.730    21558014.422
       239.000         197.000
  23264621.596     8594522.25849   6692728.60745  23264620.718    23264627.982
       219.000         162.000
  20219473.195    -2692039.66749  -2088109.52448  20219472.381    20219477.265
       247.000         217.000
  23617765.043    -6763495.17349  -5252760.49345  23617765.261    23617772.175
       219.000         162.000
  22453390.482     4089249.63849   3190281.83646  22453390.301    22453397.216
       227.000         173.000
  24154478.215     8278235.36449   6446639.60945  24154479.172    24154490.926
       215.000         154.000
  21455776.477    -7792044.02449  -6037686.73547  21455775.106    21455782.093
       236.000         196.000
 99  4 24 20 38  0.0000000  0  8G24G30G 4G 5G 6G 8G 9G10
  20740396.342     2640240.35149   2065504.64447  20740396.103    20740401.264
       246.000         211.000
  21544541.787    -8866669.70649  -6886330.52447  21544542.004    21544546.390
       239.000         197.000
  23282512.094     8688537.88849   6765987.48945  23282512.272    23282518.287
       221.000         162.000
  20219512.449    -2691833.24449  -2087948.69248  20219511.893    20219516.794
       248.000         217.000
  23604960.520    -6830783.86249  -5305193.16346  23604960.496    23604966.611
       220.000         163.000
  22465866.624     4154812.03749   3241369.29846  22465866.404    22465874.519
       227.000         173.000
  24171321.432     8366745.87949   6515608.55745  24171320.883    24171334.628
       216.000         156.000
  21445110.135    -7848095.26449  -6081362.97447  21445108.940    21445115.412
       236.000         196.000
 99  4 24 20 38 30.0000000  0  8G24G30G 4G 5G 6G 8G 9G10
  20749380.633     2687452.94649   2102293.66647  20749380.313    20749385.586
       246.000         211.000
  21531137.888    -8937107.65849  -6941217.22547  21531138.043    21531142.365
       239.000         197.000
  23300409.380     8782588.01549   6839273.25245  23300409.732    23300415.226
       222.000         161.000
  20219646.026    -2691131.50749  -2087401.90148  20219645.421    20219650.434
       248.000         217.000
  23592149.414    -6898107.03949  -5357652.70646  23592148.925    23592155.214
       220.000         163.000
  22478407.818     4220715.65249   3292722.62146  22478407.712    22478415.117
       227.000         173.000
  24188152.706     8455194.17749   6584529.02345  24188153.150    24188165.019
       215.000         157.000
  21434529.164    -7903698.54849  -6124690.16447  21434528.065    21434534.773
       237.000         196.000
 99  4 24 20 39  0.0000000  0  8G24G30G 4G 5G 6G 8G 9G10
  20758419.181     2734950.64249   2139304.84847  20758418.876    20758424.234
       246.000         210.000
  21517800.855    -9007194.17649  -6995830.07847  21517800.876    21517805.287
       240.000         196.000
  23318312.044     8876666.61949   6912581.21445  23318313.188    23318317.950
       221.000         160.000
  20219877.626    -2689914.56349  -2086453.65048  20219877.070    20219882.108
       248.000         217.000
  23579329.816    -6965474.07949  -5410146.43846  23579329.410    23579335.332
       221.000         163.000
  22491016.274     4286972.98249   3344351.59146  22491015.934    22491024.012
       228.000         174.000
  24204975.522     8543597.64249   6653414.52745  24204976.064    24204988.737
       213.000         156.000
  21424030.051    -7958871.52549  -6167682.05047  21424028.913    21424035.696
       237.000         196.000
 99  4 24 20 39 30.0000000  0  8G24G30G 4G 5G 6G 8G 9G10
  20767522.411     2782788.52349   2176581.10947  20767521.864    20767527.403
       246.000         210.000
  21504539.079    -9076885.43149  -7050134.93647  21504539.167    21504543.825
       240.000         197.000
  23336222.791     8970787.65949   6985922.22045  23336223.329    23336229.356
       219.000         159.000
  20220217.286    -2688129.69049  -2085062.85948  20220216.795    20220221.643
       248.000         217.000
  23566509.048    -7032847.61549  -5462645.23346  23566508.486    23566515.718
       221.000         163.000
  22503697.014     4353609.94049   3396276.37146  22503696.345    22503705.179
       226.000         173.000
  24221795.697     8631987.45949   6722289.40845  24221795.470    24221807.987
       213.000         153.000
  21413617.643    -8013588.72149  -6210318.77647  21413616.402    21413623.182
       237.000         197.000
 99  4 24 20 40  0.0000000  0  8G24G30G 4G 5G 6G 8G 9G10
  20776697.968     2831006.41349   2214153.48447  20776697.612    20776703.076
       246.000         210.000
  21491359.987    -9146142.07549  -7104101.13047  21491359.841    21491364.460
       240.000         198.000
  23354146.214     9064976.30649   7059315.91545  23354146.091    23354152.046
       220.000         159.000
  20220668.110    -2685760.88949  -2083217.05548  20220667.533    20220672.385
       248.000         217.000
  23553693.011    -7100196.50649  -5515124.80245  23553692.478    23553699.238
       220.000         162.000
  22516449.717     4420625.86949   3448496.44746  22516449.576    22516458.124
       227.000         173.000
  24238615.476     8720375.14249   6791162.62045  24238616.645    24238628.697
       214.000         153.000
  21403299.326    -8067811.67949  -6252570.38747  21403297.965    21403305.039
       237.000         197.000
 99  4 24 20 40 30.0000000  0  8G24G30G 4G 5G 6G 8G 9G10
  20785942.548     2879586.86149   2252008.36947  20785942.072    20785947.763
       246.000         210.000
  21478261.303    -9214975.79849  -7157737.77947  21478261.459    21478265.796
       240.000         198.000
  23372081.956     9159228.34849   7132758.99645  23372082.074    23372087.686
       221.000         160.000
  20221224.503    -2682837.07249  -2080938.77348  20221223.888    20221229.029
       248.000         217.000
  23540878.856    -7167535.04249  -5567596.33445  23540878.629    23540885.006
       219.000         161.000
  22529268.817     4487989.97649   3500987.82146  22529268.342    22529275.815
       227.000         173.000
  24255435.742     8808765.01449   6860037.52945  24255436.201    24255449.463
       214.000         152.000
  21393075.499    -8121537.97549  -6294434.98247  21393074.533    21393081.214
       237.000         197.000
 99  4 24 20 41  0.0000000  0  8G24G30G 4G 5G 6G 8G 9G10
  20795254.546     2928522.11749   2290139.72947  20795254.195    20795259.763
       246.000         210.000
  21465244.443    -9283379.89449  -7211039.65647  21465244.321    21465248.844
       240.000         197.000
  23390033.550     9253563.98749   7206267.22145  23390034.126    23390039.485
       221.000         160.000
  20221890.615    -2679336.80049  -2078211.30848  20221889.937    20221894.747
       248.000         217.000
  23528071.267    -7234839.12149  -5620041.00245  23528070.146    23528076.750
       220.000         161.000
  22542156.503     4555714.63049   3553760.14646  22542156.450    22542163.806
       227.000         173.000
  24272259.680     8897173.02749   6928926.59445  24272260.973    24272272.771
       218.000         152.000
  21382954.714    -8174723.04549  -6335877.84247  21382953.779    21382960.148
       238.000         197.000
 99  4 24 20 41 30.0000000  0  8G24G30G 4G 5G 6G 8G 9G10
  20804619.029     2977732.90649   2328485.79147  20804618.392    20804624.099
       246.000         210.000
  21452299.523    -9351405.41049  -7264046.54147  21452299.582    21452304.264
       240.000         197.000
  23407992.640     9347938.74649   7279805.92745  23407992.744    23407998.533
       222.000         160.000
  20222656.085    -2675314.17549  -2075076.81648  20222655.577    20222660.465
       248.000         217.000
  23515263.837    -7302143.14749  -5672485.62245  23515262.742    23515270.575
       219.000         162.000
  22555103.749     4623752.10549   3606776.22146  22555103.377    22555112.083
       227.000         173.000
  24289075.719     8985540.29849   6997783.91445  24289075.493    24289089.032
       215.000         151.000
  21372931.940    -8227392.85449  -6376919.20547  21372931.118    21372937.873
       238.000         197.000
 99  4 24 20 42  0.0000000  0  8G24G30G 4G 5G 6G 8G 9G10
  20814029.624     3027186.00349   2367020.66447  20814029.297    20814034.984
       246.000         209.000
  21439423.112    -9419071.91349  -7316773.67247  21439423.376    21439427.833
       240.000         198.000
  23425954.756     9442329.83049   7353357.38245  23425954.689    23425960.519
       219.000         158.000
  20223516.737    -2670791.60149  -2071552.75348  20223516.161    20223521.123
       248.000         217.000
  23502453.165    -7369462.77049  -5724942.40245  23502452.910    23502458.675
       219.000         162.000
  22568106.044     4692079.19949   3660017.98546  22568105.736    22568114.327
       226.000         173.000
  24305882.640     9073859.48449   7066603.74045  24305883.807    24305896.632
       214.000         148.000
  21363006.358    -8279552.32149  -6417562.89847  21363005.049    21363011.474
       238.000         198.000
 99  4 24 20 42 30.0000000  0  8G24G30G 4G 5G 6G 8G 9G10
  20823482.030     3076858.43049   2405726.44447  20823481.694    20823487.314
       246.000         209.000
  21426612.747    -9486390.89749  -7369230.00647  21426612.675    21426617.337
       240.000         199.000
  23443916.439     9536719.03649   7426907.35845  23443916.544    23443922.080
       218.000         157.000
  20224474.029    -2665761.07949  -2067632.88748  20224473.278    20224478.338
       248.000         217.000
  23489636.920    -7436811.95249  -5777422.20546  23489636.783    23489642.088
       220.000         163.000
  22581163.892     4760697.92849   3713486.99446  22581163.945    22581172.290
       225.000         172.000
  24322678.977     9162124.48749   7135381.35345  24322679.230    24322692.174
       213.000         146.000
  21353177.153    -8331204.79249  -6457811.52947  21353176.054    21353182.203
       238.000         198.000
 99  4 24 20 43  0.0000000  0  8G24G30G 4G 5G 6G 8G 9G10
  20832980.658     3126773.83649   2444621.55647  20832980.408    20832985.880
       246.000         209.000
  21413874.370    -9553331.35849  -7421391.38547  21413874.283    21413878.783
       241.000         199.000
  23461877.794     9631107.18849   7500456.49345  23461877.320    23461884.843
       218.000         157.000
  20225533.584    -2660192.89849  -2063294.07048  20225533.195    20225538.007
       248.000         217.000
  23476820.949    -7504160.33549  -5829901.39546  23476819.756    23476826.928
       219.000         163.000
  22594280.978     4829628.63749   3767199.10746  22594280.645    22594288.704
       225.000         172.000
  24339462.175     9250318.60949   7204103.73045  24339462.511    24339474.835
       211.000         145.000
  21343447.753    -8382333.00549  -6497651.64847  21343446.410    21343453.130
       238.000         198.000
 99  4 24 20 43 30.0000000  0  8G24G30G 4G 5G 6G 8G 9G10
  20842535.297     3176983.61749   2483746.05447  20842535.003    20842540.516
       245.000         209.000
  21401217.558    -9619843.26249  -7473218.83447  21401217.675    21401222.402
       241.000         199.000
  23479845.706     9725528.65849   7574031.60945  23479845.561    23479852.756
       220.000         159.000
  20226702.470    -2654050.72449  -2058507.97948  20226701.786    20226706.981
       248.000         217.000
  23464013.013    -7571465.44149  -5882346.86546  23464012.562    23464019.641
       220.000         163.000
  22607461.788     4898893.39449   3821171.50146  22607461.200    22607470.116
       225.000         173.000
  24356238.148     9338476.79049   7272798.06545  24356238.687    24356251.571
       209.000         144.000
  21333821.955    -8432916.74549  -6537067.50547  21333820.793    21333827.488
       238.000         198.000
 99  4 24 20 44  0.0000000  0  8G24G30G 4G 5G 6G 8G 9G10
  20852140.976     3227461.82249   2523079.71547  20852140.623    20852146.086
       246.000         209.000
  21388635.780    -9685960.73549  -7524738.93747  21388635.925    21388640.288
       241.000         199.000
  23497814.534     9819955.25749   7647610.70845  23497814.342    23497821.378
       220.000         161.000
  20227974.067    -2647368.59049  -2053301.14048  20227973.535    20227978.555
       248.000         217.000
  23451204.050    -7638777.16849  -5934797.49146  23451204.049    23451209.790
       219.000         164.000
  22620696.935     4968444.20949   3875366.80746  22620696.468    22620705.198
       225.000         172.000
  24373000.077     9426559.91649   7341433.94145  24373001.312    24373013.670
       214.000         144.000
  21324292.099    -8482996.34649  -6576090.51647  21324291.110    21324297.632
       239.000         199.000
 99  4 24 20 44 30.0000000  0  8G24G30G 4G 5G 6G 8G 9G10
  20861814.155     3278294.83949   2562689.84347  20861813.817    20861819.060
       245.000         209.000
  21376144.968    -9751600.54849  -7575886.83647  21376145.223    21376149.446
       241.000         200.000
  23515799.698     9914468.13149   7721257.04345  23515800.090    23515806.501
       220.000         161.000
  20229364.217    -2640063.28149  -2047608.70948  20229363.763    20229368.794
       248.000         217.000
  23438407.293    -7706024.14049  -5987197.65846  23438406.149    23438413.465
       219.000         164.000
  22634002.252     5038363.22749   3929849.02246  22634001.467    22634010.745
       224.000         171.000
  24389760.645     9514634.71149   7410063.32745  24389761.090    24389773.502
       213.000         144.000
  21314871.661    -8532501.11749  -6614665.61747  21314870.672    21314876.473
       238.000         198.000
 99  4 24 20 45  0.0000000  0  8G24G30G 4G 5G 6G 8G 9G10
  20871545.138     3329431.64249   2602536.69547  20871544.840    20871550.422
       245.000         209.000
  21363736.309    -9816808.43249  -7626698.15647  21363736.123    21363740.954
       241.000         200.000
  23533791.541    10009015.15449   7794929.96745  23533791.775    23533797.946
       218.000         159.000
  20230859.290    -2632206.76049  -2041486.76348  20230858.678    20230863.723
       248.000         217.000
  23425613.388    -7773256.80949  -6039586.68846  23425613.375    23425619.390
       221.000         165.000
  22647366.575     5108592.73249   3984573.18446  22647365.915    22647374.879
       224.000         171.000
  24406509.580     9602648.78349   7478645.41345  24406509.595    24406522.991
       210.000         145.000
  21305548.680    -8581493.30749  -6652841.29847  21305547.366    21305553.881
       238.000         198.000
 99  4 24 20 45 30.0000000  0  8G24G30G 4G 5G 6G 8G 9G10
  20881332.928     3380866.74249   2642615.98347  20881332.494    20881338.066
       245.000         208.000
  21351409.106    -9881588.06849  -7677175.77847  21351409.407    21351413.710
       242.000         201.000
  23551791.314    10103604.45549   7868635.86345  23551791.944    23551796.683
       219.000         157.000
  20232456.408    -2623813.95049  -2034946.92748  20232455.792    20232460.948
       248.000         217.000
  23412818.443    -7840495.06249  -6091980.05646  23412818.413    23412824.095
       221.000         165.000
  22660790.096     5179133.43749   4039539.82746  22660789.092    22660798.586
       224.000         171.000
  24423250.710     9690623.45449   7547196.75245  24423250.366    24423264.631
       211.000         145.000
  21296322.702    -8629975.92749  -6690619.91547  21296321.853    21296328.441
       239.000         199.000
 99  4 24 20 46  0.0000000  0  8G24G30G 4G 5G 6G 8G 9G10
  20891173.292     3432578.39249   2682910.76347  20891172.942    20891178.441
       245.000         208.000
  21339162.695    -9945943.82249  -7727323.11547  21339162.765    21339167.033
       242.000         201.000
  23569795.344    10198215.25249   7942358.49845  23569794.871    23569801.546
       218.000         156.000
  20234152.978    -2614898.57549  -2027999.90148  20234152.528    20234157.320
       248.000         217.000
  23400018.758    -7907756.87549  -6144391.78446  23400018.684    23400024.854
       220.000         164.000
  22674274.011     5249991.29749   4094753.61246  22674273.547    22674281.971
       224.000         171.000
  24439980.728     9778539.89549   7615702.74545  24439980.733    24439995.892
       209.000         144.000
  21287193.926    -8677948.11149  -6728000.79047  21287192.693    21287199.348
       239.000         200.000
 99  4 24 20 46 30.0000000  0  8G24G30G 4G 5G 6G 8G 9G10
  20901063.772     3484553.35049   2723410.72347  20901063.605    20901068.933
       245.000         208.000
  21326995.878   -10009880.85349  -7777144.16847  21326996.168    21327000.431
       242.000         201.000
  23587801.571    10292838.11749   8016090.54745  23587802.294    23587807.779
       219.000         155.000
  20235946.208    -2605475.30749  -2020657.10948  20235945.586    20235950.607
       248.000         217.000
  23387218.359    -7975023.34449  -6196807.14446  23387217.306    23387224.110
       220.000         164.000
  22687818.218     5321165.89949   4150214.20946  22687817.811    22687826.517
       224.000         171.000
  24456699.102     9866394.93049   7684160.85045  24456699.379    24456713.164
       209.000         142.000
  21278160.622    -8725418.04649  -6764990.30047  21278159.497    21278165.687
       239.000         199.000
 99  4 24 20 47  0.0000000  0  8G24G30G 4G 5G 6G 8G 9G10
  20910994.328     3536738.28849   2764074.30047  20910993.990    20910999.441
       246.000         208.000
  21314899.209   -10073449.18749  -7826677.92347  21314899.242    21314903.612
       242.000         201.000
  23605805.012    10387446.40649   8089811.21745  23605805.101    23605811.312
       220.000         158.000
  20237827.239    -2595590.54849  -2012954.72248  20237826.574    20237831.683
       247.000         217.000
  23374412.630    -8042317.19549  -6249243.83346  23374412.481    23374418.182
       221.000         164.000
  22701414.763     5392615.37749   4205888.98146  22701414.987    22701423.021
       223.000         170.000
  24473399.204     9954152.42549   7752542.96445  24473400.367    24473414.518
       214.000         144.000
  21269217.453    -8772414.67449  -6801611.00347  21269216.418    21269222.767
       239.000         199.000
 99  4 24 20 47 30.0000000  0  8G24G30G 4G 5G 6G 8G 9G10
  20920965.954     3589139.29949   2804906.25247  20920965.687    20920970.890
       245.000         208.000
  21302873.749   -10136643.38249  -7875920.13547  21302873.607    21302878.693
       242.000         201.000
  23623805.805    10482040.60249   8163520.91545  23623806.499    23623811.952
       219.000         158.000
  20239798.750    -2585230.03249  -2004881.61048  20239798.069    20239803.155
       248.000         217.000
  23361605.247    -8109620.61249  -6301687.99846  23361604.388    23361610.928
       221.000         164.000
  22715064.385     5464343.85149   4261781.16546  22715064.718    22715073.734
       223.000         169.000
  24490082.128    10041820.50749   7820855.38945  24490081.120    24490097.166
       208.000         148.000
  21260367.678    -8818920.83349  -6837849.52047  21260366.365    21260372.754
       240.000         200.000
 99  4 24 20 48  0.0000000  0  8G24G30G 4G 5G 6G 8G 9G10
  20930981.667     3641772.47449   2845919.10747  20930981.243    20930986.801
       244.000         208.000
  21290922.098   -10199449.81949  -7924860.20047  21290922.441    21290926.929
       242.000         202.000
  23641804.934    10576627.09049   8237224.60345  23641805.049    23641810.373
       216.000         157.000
  20241866.294    -2574365.12649  -1996415.47348  20241865.768    20241870.799
       248.000         217.000
  23348802.988    -8176896.49549  -6354110.69146  23348803.190    23348809.103
       222.000         165.000
  22728769.483     5536364.66349   4317901.14446  22728768.201    22728777.745
       222.000         168.000
  24506749.151    10129405.93249   7889103.38245  24506751.259    24506763.266
       213.000         148.000
  21251615.649    -8864912.89749  -6873687.45347  21251614.763    21251620.682
       239.000         200.000
 99  4 24 20 48 30.0000000  0  8G24G30G 4G 5G 6G 8G 9G10
  20941035.528     3694606.02349   2887088.09747  20941035.143    20941040.820
       245.000         207.000
  21279035.801   -10261912.77649  -7973532.62447  21279035.730    21279040.144
       242.000         202.000
  23659795.958    10671171.92049   8310895.82745  23659795.654    23659802.536
       214.000         153.000
  20244023.168    -2563030.89749  -1987583.62548  20244022.475    20244027.563
       248.000         217.000
  23335999.056    -8244181.50449  -6406540.50746  23335997.735    23336004.555
       221.000         166.000
  22742518.404     5608615.62849   4374200.46646  22742518.362    22742526.598
       223.000         169.000
  24523394.283    10216874.58649   7957260.43945  24523394.657    24523409.045
       214.000         149.000
  21242955.374    -8910422.57049  -6909149.48547  21242953.669    21242960.588
       239.000         200.000
 99  4 24 20 49  0.0000000  0  8G24G30G 4G 5G 6G 8G 9G10
  20951136.370     3747686.25349   2928449.30547  20951135.930    20951141.631
       245.000         207.000
  21267225.691   -10323975.12349  -8021892.88747  21267225.676    21267229.908
       242.000         201.000
  23677784.637    10765703.48749   8384556.71445  23677786.080    23677790.323
       216.000         152.000
  20246280.395    -2551169.06949  -1978340.66348  20246279.702    20246284.917
       248.000         217.000
  23323197.330    -8311453.94949  -6458960.53446  23323196.657    23323202.498
       224.000         166.000
  22756315.682     5681120.04949   4430697.26746  22756314.781    22756325.074
       223.000         168.000
  24540023.757    10304262.52149   8025354.53645  24540024.684    24540037.481
       212.000         149.000
  21234397.461    -8955394.18749  -6944192.25847  21234396.663    21234402.930
       240.000         200.000
 99  4 24 20 49 30.0000000  0  8G24G30G 4G 5G 6G 8G 9G10
  20961288.124     3801034.08649   2970019.03647  20961287.982    20961293.469
       245.000         207.000
  21255499.483   -10385596.37049  -8069909.43247  21255499.804    21255504.277
       242.000         202.000
  23695771.141    10860221.87149   8458207.34145  23695771.349    23695778.277
       217.000         152.000
  20248644.273    -2538746.78849  -1968660.98948  20248643.656    20248648.808
       247.000         217.000
  23310398.252    -8378713.93349  -6511370.84346  23310398.157    23310404.061
       223.000         168.000
  22770161.822     5753881.42649   4487394.31546  22770161.925    22770170.521
       223.000         168.000
  24556638.005    10391569.18049   8093385.35845  24556639.362    24556652.071
       213.000         149.000
  21225943.270    -8999821.12149  -6978810.60747  21225942.336    21225948.485
       240.000         200.000
 99  4 24 20 50  0.0000000  0  8G24G30G 4G 5G 6G 8G 9G10
  20971497.376     3854683.86149   3011824.04647  20971496.905    20971502.508
       245.000         207.000
  21243864.903   -10446736.58049  -8117551.14447  21243864.978    21243869.422
       242.000         202.000
  23713764.248    10954775.38349   8531885.34945  23713764.203    23713769.757
       216.000         151.000
  20251124.624    -2525712.51949  -1958504.44148  20251124.049    20251129.225
       247.000         217.000
  23297603.963    -8445948.29649  -6563761.19346  23297603.135    23297610.333
       222.000         168.000
  22784061.913     5826926.26649   4544312.22346  22784061.802    22784070.415
       223.000         168.000
  24573240.427    10478813.74749   8161367.77445  24573241.329    24573254.897
       214.000         149.000
  21217599.397    -9043668.48349  -7012977.34147  21217598.392    21217604.695
       240.000         200.000
 99  4 24 20 50 30.0000000  0  8G24G30G 4G 5G 6G 8G 9G10
  20981759.897     3908613.68149   3053847.27647  20981759.580    20981764.967
       244.000         207.000
  21232320.091   -10507404.84349  -8164825.10047  21232320.121    21232324.748
       242.000         203.000
  23731760.590    11049346.81849   8605577.31445  23731760.714    23731768.677
       217.000         152.000
  20253719.054    -2512078.73449  -1947880.73448  20253718.183    20253723.525
       247.000         217.000
  23284809.776    -8513182.50849  -6616151.42146  23284809.162    23284815.923
       222.000         168.000
  22798011.012     5900228.76249   4601430.91046  22798010.486    22798019.447
       223.000         167.000
  24589827.340    10565977.09149   8229286.89645  24589828.546    24589843.565
       213.000         151.000
  21209359.491    -9086969.12549  -7046718.05547  21209358.147    21209364.785
       240.000         201.000
 99  4 24 20 51  0.0000000  0  8G24G30G 4G 5G 6G 8G 9G10
  20992088.271     3962889.79349   3096140.33947  20992087.970    20992093.535
       244.000         207.000
  21220879.616   -10567524.71349  -8211671.74247  21220879.621    21220884.042
       243.000         202.000
  23749774.001    11144007.53449   8679338.86345  23749773.924    23749780.330
       216.000         151.000
  20256440.863    -2497775.33149  -1936735.25548  20256440.418    20256445.536
       247.000         216.000
  23272027.916    -8580351.35149  -6668490.71846  23272027.601    23272033.001
       221.000         168.000
  22812025.470     5973874.27349   4658816.89246  22812025.333    22812034.694
       221.000         167.000
  24606410.509    10653121.33849   8297191.11545  24606411.386    24606425.608
       211.000         151.000
  21201232.560    -9129676.18349  -7079996.23647  21201231.643    21201237.549
       241.000         201.000
 99  4 24 20 51 30.0000000  0  8G24G30G 4G 5G 6G 8G 9G10
  21002472.883     4017461.46149   3138663.70647  21002472.571    21002478.141
       245.000         207.000
  21209531.148   -10627161.16049  -8258141.69747  21209531.217    21209535.732
       243.000         202.000
  23767796.249    11238714.88249   8753136.72045  23767796.097    23767802.025
       215.000         151.000
  20259278.365    -2482864.31049  -1925116.30148  20259277.804    20259283.076
       247.000         216.000
  23259249.601    -8647501.51849  -6720815.45446  23259248.827    23259255.056
       220.000         167.000
  22826098.995     6047830.77249   4716445.19746  22826098.611    22826107.370
       223.000         167.000
  24622979.936    10740191.76449   8365037.81545  24622981.395    24622994.850
       211.000         150.000
  21193207.861    -9171846.27049  -7112856.00547  21193206.858    21193213.141
       241.000         201.000
 99  4 24 20 52  0.0000000  0  8G24G30G 4G 5G 6G 8G 9G10
  21012913.102     4072325.15049   3181414.62447  21012912.813    21012918.177
       245.000         207.000
  21198271.237   -10686332.60549  -8304249.31147  21198271.582    21198275.464
       244.000         203.000
  23785827.362    11333468.91949   8826970.94245  23785827.624    23785833.490
       215.000         152.000
  20262228.687    -2467360.32749  -1913035.30348  20262228.151    20262233.248
       248.000         216.000
  23246476.407    -8714624.25149  -6773118.82846  23246475.930    23246481.264
       220.000         166.000
  22840233.499     6122107.33249   4774322.89946  22840232.506    22840242.045
       222.000         166.000
  24639538.577    10827206.44149   8432841.08645  24639539.502    24639554.224
       213.000         152.000
  21185287.489    -9213467.87449  -7145288.37947  21185286.371    21185292.425
       241.000         201.000
 99  4 24 20 52 30.0000000  0  8G24G30G 4G 5G 6G 8G 9G10
  21023404.784     4127459.02349   3224376.07247  21023404.290    21023409.749
       245.000         207.000
  21187096.724   -10745055.40749  -8350007.32947  21187096.608    21187101.365
       243.000         203.000
  23803862.019    11428240.65549   8900818.97745  23803862.269    23803868.298
       216.000         153.000
  20265285.715    -2451295.39849  -1900517.19948  20265285.195    20265290.334
       248.000         216.000
  23233708.252    -8781720.73449  -6825401.74446  23233707.229    23233713.692
       220.000         166.000
  22854428.152     6196700.90649   4832447.61546  22854427.709    22854437.986
       222.000         166.000
  24656086.499    10914164.52549   8500600.23745  24656087.116    24656101.686
       212.000         151.000
  21177469.379    -9254552.56849  -7177302.38947  21177468.384    21177474.248
       241.000         201.000
 99  4 24 20 53  0.0000000  0  8G24G30G 4G 5G 6G 8G 9G10
  21033937.866     4182810.72049   3267507.25347  21033937.678    21033943.247
       245.000         207.000
  21175999.517   -10803371.32949  -8395448.29947  21175999.760    21176004.239
       243.000         203.000
  23821891.474    11522985.08049   8974645.72945  23821891.907    23821897.950
       218.000         154.000
  20268438.206    -2434729.42749  -1887608.67148  20268437.812    20268442.781
       248.000         217.000
  23220935.968    -8848839.66649  -6877702.15246  23220936.011    23220941.711
       222.000         166.000
  22868675.649     6271571.22749   4890787.96946  22868675.645    22868683.760
       224.000         167.000
  24672613.009    11001010.57449   8568272.08945  24672613.055    24672629.327
       209.000         149.000
  21169750.994    -9295112.81649  -7208907.73347  21169749.867    21169755.808
       241.000         201.000
 99  4 24 20 53 30.0000000  0  8G24G30G 4G 5G 6G 8G 9G10
  21044510.527     4238369.90549   3310800.10847  21044510.339    21044515.640
       245.000         207.000
  21164978.706   -10861286.31049  -8440576.85247  21164978.970    21164983.271
       244.000         203.000
  23839912.893    11617688.76349   9048440.72045  23839914.051    23839918.886
       218.000         154.000
  20271684.865    -2417668.07249  -1874314.13148  20271684.085    20271689.327
       248.000         216.000
  23208160.829    -8915973.90049  -6930014.49246  23208159.935    23208166.067
       221.000         166.000
  22882973.010     6346703.39649   4949332.37246  22882972.658    22882981.718
       222.000         166.000
  24689118.300    11087745.54749   8635857.38145  24689118.939    24689134.194
       211.000         146.000
  21162138.598    -9335116.03449  -7240079.03447  21162137.357    21162143.648
       240.000         202.000
 99  4 24 20 54  0.0000000  0  8G24G30G 4G 5G 6G 8G 9G10
  21055118.406     4294114.17949   3354237.19847  21055118.195    21055123.592
       246.000         207.000
  21154035.373   -10918794.09649  -8485388.11247  21154035.556    21154039.826
       245.000         203.000
  23857923.989    11712337.03449   9122192.57145  23857924.832    23857931.081
       217.000         154.000
  20275023.127    -2400125.57949  -1860644.67948  20275022.484    20275027.707
       248.000         216.000
  23195381.594    -8983128.81449  -6982342.93746  23195381.222    23195386.201
       223.000         166.000
  22897315.307     6422072.43049   5008061.34946  22897314.729    22897324.198
       223.000         166.000
  24705600.334    11174356.69949   8703346.21045  24705600.719    24705614.118
       204.000         143.000
  21154631.822    -9374564.26449  -7270817.86147  21154630.674    21154637.032
       241.000         202.000
 99  4 24 20 54 30.0000000  0  8G24G30G 4G 5G 6G 8G 9G10
  21065763.580     4350054.89849   3397827.35247  21065763.256    21065768.887
       245.000         207.000
  21143174.782   -10975866.66949  -8529860.24447  21143174.675    21143179.117
       243.000         204.000
  23875926.925    11806942.18949   9195910.80345  23875926.380    23875932.886
       217.000         153.000
  20278454.174    -2382095.43749  -1846595.24048  20278453.759    20278458.871
       248.000         216.000
  23182600.914    -9050291.92649  -7034677.77646  23182599.750    23182605.773
       223.000         166.000
  22911700.750     6497667.80449   5066966.68946  22911700.510    22911709.777
       222.000         166.000
  24722057.915    11260841.60649   8770736.64645  24722057.766    24722074.564
       206.000         142.000
  21147235.003    -9413434.42849  -7301106.25947  21147234.134    21147240.315
       241.000         202.000
 99  4 24 20 55  0.0000000  0  8G24G30G 4G 5G 6G 8G 9G10
  21076447.233     4406197.89049   3441575.12447  21076446.869    21076452.458
       245.000         206.000
  21132396.998   -11032503.82349  -8573993.08647  21132397.226    21132401.732
       244.000         204.000
  23893921.839    11901506.32049   9269597.05745  23893921.812    23893928.803
       213.000         151.000
  20281978.663    -2363574.53349  -1832163.38848  20281977.999    20281983.046
       248.000         216.000
  23169818.764    -9117462.50949  -7087018.42546  23169817.859    23169824.536
       223.000         167.000
  22926122.992     6573455.94749   5126022.24046  22926122.476    22926132.228
       223.000         166.000
  24738488.510    11347184.11949   8838016.12145  24738490.859    24738504.677
       207.000         143.000
  21139946.950    -9451733.29749  -7330949.49447  21139946.360    21139951.816
       241.000         202.000
 99  4 24 20 55 30.0000000  0  8G24G30G 4G 5G 6G 8G 9G10
  21087172.304     4462558.53049   3485492.48747  21087172.035    21087177.350
       245.000         206.000
  21121704.500   -11088693.49049  -8617777.22947  21121704.648    21121709.124
       244.000         204.000
  23911912.380    11996048.70749   9343266.35745  23911911.458    23911918.848
       212.000         150.000
  20285601.138    -2344538.40749  -1817330.06448  20285600.481    20285605.783
       248.000         216.000
  23157038.651    -9184622.14249  -7139350.54746  23157037.736    23157043.543
       222.000         168.000
  22940581.752     6649436.63849   5185227.81846  22940580.746    22940589.675
       222.000         166.000
  24754894.845    11433398.56449   8905195.80445  24754896.132    24754910.466
       206.000         139.000
  21132765.160    -9489473.98849  -7360357.78547  21132764.022    21132769.820
       241.000         202.000
 99  4 24 20 56  0.0000000  0  8G24G30G 4G 5G 6G 8G 9G10
  21097941.868     4519152.56249   3529591.72047  21097941.509    21097946.792
       245.000         206.000
  21111102.515   -11144407.73849  -8661190.92147  21111102.638    21111107.088
       244.000         205.000
  23929901.274    12090581.56249   9416928.25045  23929901.434    23929908.462
       213.000         150.000
  20289325.784    -2324965.26149  -1802078.28148  20289325.192    20289330.426
       248.000         216.000
  23144261.881    -9251763.49049  -7191668.41346  23144261.541    23144266.963
       222.000         168.000
  22955076.911     6725609.20949   5244582.90846  22955076.611    22955086.723
       220.000         165.000
  24771278.098    11519490.13849   8972279.78945  24771277.272    24771294.401
       206.000         138.000
  21125687.915    -9526664.58249  -7389337.42447  21125686.641    21125692.905
       241.000         202.000
 99  4 24 20 56 30.0000000  0  8G24G30G 4G 5G 6G 8G 9G10
  21108761.373     4576009.27549   3573895.63947  21108761.079    21108766.329
       245.000         206.000
  21100595.116   -11199624.31949  -8704216.82047  21100594.792    21100599.641
       243.000         204.000
  23947892.767    12185126.41349   9490599.48845  23947893.448    23947899.512
       214.000         151.000
  20293159.461    -2304819.39149  -1786380.21948  20293158.848    20293164.115
       248.000         216.000
  23131493.021    -9318863.38249  -7243953.98546  23131493.051    23131498.599
       222.000         169.000
  22969612.247     6801992.12649   5304101.90946  22969611.719    22969620.440
       222.000         165.000
  24787641.240    11605476.85549   9039281.99045  24787642.252    24787657.900
       206.000         137.000
  21118717.830    -9563292.39149  -7417878.52547  21118716.677    21118723.126
       241.000         202.000
 99  4 24 20 57  0.0000000  0  8G24G30G 4G 5G 6G 8G 9G10
  21119625.845     4633102.26649   3618383.67147  21119625.438    21119630.759
       244.000         205.000
  21090179.118   -11254360.28949  -8746868.21947  21090179.193    21090183.775
       243.000         204.000
  23965883.058    12279665.78549   9564266.44345  23965883.994    23965891.436
       214.000         151.000
  20297102.336    -2284099.59649  -1770234.94748  20297101.689    20297106.977
       248.000         216.000
  23118728.249    -9385942.52649  -7296223.38046  23118728.158    23118733.907
       223.000         170.000
  22984188.704     6878590.78049   5363789.02246  22984188.617    22984197.953
       222.000         165.000
  24803978.825    11691330.57149   9106180.58945  24803976.624    24803994.396
       202.000         134.000
  21111848.892    -9599388.49149  -7446005.31147  21111847.772    21111854.082
       241.000         202.000
 99  4 24 20 57 30.0000000  0  8G24G30G 4G 5G 6G 8G 9G10
  21130539.075     4690451.92449   3663071.70147  21130538.543    21130544.226
       244.000         205.000
  21079861.530   -11308579.75949  -8789117.14347  21079861.655    21079866.251
       244.000         205.000
  23983877.627    12374227.53749   9637950.85745  23983877.267    23983884.588
       215.000         150.000
  20301161.390    -2262769.04849  -1753613.76248  20301160.849    20301166.080
       248.000         216.000
  23105972.331    -9452974.81749  -7348456.28246  23105971.719    23105978.137
       225.000         170.000
  22998815.420     6955453.67949   5423682.02746  22998814.652    22998825.104
       220.000         165.000
  24820297.247    11777082.43249   9172999.84345  24820298.105    24820312.830
       205.000         132.000
  21105089.140    -9634911.29149  -7473685.37447  21105088.142    21105094.059
       241.000         202.000
 99  4 24 20 58  0.0000000  0  8G24G30G 4G 5G 6G 8G 9G10
  21141503.297     4748069.54949   3707968.53647  21141502.972    21141508.285
       244.000         205.000
  21069642.618   -11362280.59449  -8830961.93547  21069642.750    21069647.318
       244.000         205.000
  24001876.720    12468812.38449   9711653.24745  24001877.196    24001883.294
       214.000         148.000
  20305336.468    -2240829.06649  -1736517.69148  20305335.968    20305341.048
       248.000         216.000
  23093226.535    -9519954.00849  -7400647.81546  23093226.072    23093231.855
       225.000         171.000
  23013494.768     7032594.40249   5483791.53346  23013495.219    23013504.424
       221.000         165.000
  24836599.249    11862748.74649   9239752.38544  24836599.740    24836614.867
       202.000         130.000
  21098443.541    -9669834.11749  -7500897.92947  21098442.492    21098448.528
       241.000         202.000
 99  4 24 20 58 30.0000000  0  8G24G30G 4G 5G 6G 8G 9G10
  21152507.650     4805897.70949   3753029.42947  21152507.304    21152512.672
       244.000         205.000
  21059510.253   -11415526.35949  -8872452.12347  21059510.244    21059514.733
       243.000         205.000
  24019873.233    12563383.43449   9785344.91845  24019873.288    24019879.432
       213.000         145.000
  20309615.239    -2218344.08449  -1718996.94948  20309614.636    20309619.963
       248.000         216.000
  23080481.881    -9586927.72249  -7452835.06846  23080482.015    23080487.759
       225.000         171.000
  23028221.409     7109982.79849   5544094.01346  23028220.844    23028231.349
       220.000         165.000
  24852875.903    11948282.51549   9306401.69144  24852877.301    24852892.941
       207.000         131.000
  21091902.780    -9704205.91349  -7527681.10247  21091901.560    21091907.755
       241.000         202.000
 99  4 24 20 59  0.0000000  0  8G24G30G 4G 5G 6G 8G 9G10
  21163556.851     4863961.39749   3798273.85047  21163556.425    21163562.086
       244.000         204.000
  21049468.698   -11468295.13049  -8913570.63347  21049468.666    21049473.308
       244.000         205.000
  24037873.606    12657975.77649   9859053.16045  24037873.606    24037880.020
       213.000         143.000
  20314001.200    -2195295.49949  -1701037.03348  20314000.600    20314005.878
       248.000         216.000
  23067741.865    -9653877.98649  -7505004.06846  23067742.334    23067747.475
       225.000         171.000
  23042999.601     7187641.61349   5604607.21346  23042999.294    23043008.563
       219.000         164.000
  24869134.667    12033720.27249   9372976.18545  24869135.796    24869150.591
       212.000         133.000
  21085471.661    -9738001.22649  -7554015.07247  21085470.503    21085476.438
       241.000         202.000
 99  4 24 20 59 30.0000000  0  8G24G30G 4G 5G 6G 8G 9G10
  21174644.538     4922227.71149   3843676.16147  21174644.219    21174649.650
       243.000         204.000
  21039509.979   -11520628.65249  -8954349.98547  21039510.040    21039514.466
       244.000         206.000
  24055868.504    12752539.24149   9932738.91245  24055869.158    24055875.263
       215.000         143.000
  20318483.745    -2171739.82849  -1682681.98748  20318483.037    20318488.338
       248.000         216.000
  23054997.743    -9720848.69449  -7557188.98846  23054997.258    23055002.192
       226.000         171.000
  23057818.637     7265514.64249   5665287.34646  23057818.424    23057827.515
       221.000         164.000
  24885370.162    12119035.60449   9439455.31145  24885370.217    24885386.897
       212.000         136.000
  21079143.261    -9771257.02949  -7579928.64647  21079142.034    21079148.338
       241.000         203.000
 99  4 24 21  0  0.0000000  0  8G24G30G 4G 5G 6G 8G 9G10
  21185767.580     4980680.08849   3889223.45647  21185767.119    21185772.748
       243.000         203.000
  21029631.461   -11572540.81849  -8994801.00347  21029631.459    21029636.143
       243.000         206.000
  24073853.526    12847050.16149  10006383.73045  24073852.719    24073860.500
       214.000         145.000
  20323058.155    -2147701.41349  -1663950.77748  20323057.600    20323062.869
       248.000         216.000
  23042246.337    -9787857.62249  -7609403.68546  23042245.465    23042251.083
       224.000         170.000
  23072674.046     7343580.41849   5726117.64546  23072673.351    23072682.805
       218.000         163.000
  24901578.976    12204212.33749   9505826.39345  24901579.066    24901594.292
       210.000         136.000
  21072913.640    -9803994.08849  -7605438.00447  21072912.676    21072918.553
       241.000         203.000
 99  4 24 21  0 30.0000000  0  8G24G30G 4G 5G 6G 8G 9G10
  21196924.114     5039308.27249   3934907.74247  21196923.655    21196929.410
       243.000         203.000
  21019836.353   -11624014.21449  -9034910.12947  21019836.310    21019841.004
       243.000         206.000
  24091826.206    12941497.61949  10079979.08045  24091826.326    24091832.502
       212.000         144.000
  20327725.120    -2123176.45549  -1644840.44348  20327724.469    20327729.713
       248.000         216.000
  23029487.161    -9854907.22549  -7661650.08846  23029486.688    23029492.705
       223.000         170.000
  23087563.072     7421823.14449   5787085.83546  23087563.323    23087572.938
       220.000         163.000
  24917757.357    12289229.38849   9572073.06145  24917757.455    24917775.030
       208.000         137.000
  21066782.238    -9836214.62449  -7630544.87947  21066781.051    21066786.990
       240.000         203.000
 99  4 24 21  1  0.0000000  0  8G24G30G 4G 5G 6G 8G 9G10
  21208126.822     5098178.76549   3980780.84247  21208126.749    21208132.227
       244.000         203.000
  21010139.021   -11674974.06749  -9074619.08847  21010138.953    21010143.321
       245.000         206.000
  24109794.489    13035921.58049  10153556.12445  24109794.507    24109799.566
       213.000         145.000
  20332499.214    -2098088.55849  -1625291.45548  20332498.634    20332503.892
       248.000         216.000
  23016733.476    -9921927.36949  -7713873.52046  23016733.337    23016739.126
       222.000         170.000
  23102495.016     7500289.91949   5848228.61346  23102494.756    23102503.531
       219.000         163.000
  24933916.511    12374144.89149   9638240.56745  24933917.828    24933931.883
       211.000         140.000
  21060765.491    -9867832.47949  -7655182.12747  21060764.336    21060770.470
       241.000         203.000
 99  4 24 21  1 30.0000000  0  7G24G30G 4G 5G 6G 8G10
  21219373.081     5157278.08249   4026832.25147  21219372.924    21219378.418
       243.000         203.000
  21000540.636   -11725414.04949  -9113922.96047  21000540.648    21000545.017
       244.000         207.000
  24127753.381    13130295.95949  10227094.53345  24127753.364    24127759.174
       214.000         146.000
  20337379.424    -2072442.85649  -1605307.81148  20337378.806    20337384.082
       248.000         216.000
  23003986.440    -9988913.46449  -7766070.42146  23003985.952    23003992.055
       223.000         170.000
  23117467.053     7578967.61449   5909535.73646  23117467.350    23117476.362
       220.000         163.000
  21054866.535    -9898831.68049  -7679337.30547  21054865.440    21054871.604
       240.000         203.000
 99  4 24 21  2  0.0000000  0  7G24G30G 4G 5G 6G 8G10
  21230659.899     5216590.73449   4073049.88747  21230659.750    21230665.246
       243.000         203.000
  20991041.804   -11775330.53049  -9152818.91447  20991041.934    20991046.335
       244.000         207.000
  24145704.805    13224631.49349  10300602.65545  24145705.986    24145712.224
       211.000         145.000
  20342364.787    -2046244.84549  -1584893.80448  20342364.234    20342369.345
       248.000         216.000
  22991248.211   -10055852.95449  -7818231.01546  22991247.800    22991254.038
       224.000         171.000
  23132477.585     7657847.71449   5971000.58546  23132477.119    23132486.895
       219.000         163.000
  21049087.471    -9929200.77349  -7703001.49647  21049086.311    21049092.568
       241.000         203.000
 99  4 24 21  2 30.0000000  0  7G24G30G 4G 5G 6G 8G10
  21241988.225     5276121.39349   4119437.40247  21241987.798    21241993.432
       243.000         203.000
  20981645.443   -11824708.96849  -9191295.60747  20981645.599    20981650.185
       244.000         207.000
  24163650.957    13318937.59649  10374087.85045  24163651.742    24163658.835
       213.000         145.000
  20347455.594    -2019492.77649  -1564048.05948  20347454.980    20347460.166
       248.000         216.000
  22978521.006   -10122735.26849  -7870347.05346  22978519.812    22978526.765
       223.000         172.000
  23147526.287     7736928.39349   6032621.71446  23147525.951    23147534.968
       219.000         163.000
  21043429.829    -9958931.54949  -7726168.29047  21043429.047    21043434.790
       241.000         203.000
 99  4 24 21  3  0.0000000  0  7G24G30G 4G 5G 6G 8G10
  21253350.402     5335829.43449   4165963.13747  21253350.082    21253355.699
       243.000         203.000
  20972341.283   -11873602.41049  -9229394.38747  20972341.300    20972345.920
       244.000         207.000
  24181583.595    13413173.38749  10447518.23545  24181583.108    24181590.803
       209.000         144.000
  20352643.348    -1992231.06049  -1542805.18748  20352642.799    20352647.885
       248.000         216.000
  22965795.617   -10189606.93449  -7922454.79946  22965795.181    22965801.000
       226.000         172.000
  23162605.528     7816169.92949   6094368.19245  23162605.062    23162614.851
       218.000         162.000
  21037884.323    -9988073.21449  -7748876.04247  21037883.306    21037889.450
       241.000         203.000
 99  4 24 21  3 30.0000000  0  7G24G30G 4G 5G 6G 8G10
  21264751.826     5395744.29849   4212650.03647  21264751.729    21264757.052
       244.000         203.000
  20963134.320   -11921985.62249  -9267095.59347  20963134.374    20963138.656
       245.000         207.000
  24199512.334    13507390.53649  10520934.10545  24199511.147    24199519.170
       209.000         143.000
  20357932.408    -1964436.85649  -1521147.39048  20357931.617    20357937.001
       248.000         216.000
  22953076.858   -10256444.92149  -7974536.28946  22953076.096    22953082.721
       224.000         173.000
  23177721.402     7895604.39149   6156265.00645  23177721.168    23177731.116
       217.000         161.000
  21032453.964   -10016609.84849  -7771112.34147  21032453.076    21032458.722
       241.000         203.000
 99  4 24 21  4  0.0000000  0  7G24G30G 4G 5G 6G 8G10
  21276186.370     5455833.04749   4259472.42747  21276186.083    21276191.729
       244.000         203.000
  20954015.347   -11969906.27549  -9304436.36247  20954015.137    20954019.430
       245.000         207.000
  24217430.435    13601551.65549  10594306.30645  24217430.342    24217436.769
       211.000         144.000
  20363315.888    -1936146.67649  -1499103.11848  20363315.410    20363320.761
       247.000         216.000
  22940354.678   -10323300.20049  -8026631.26046  22940353.923    22940359.747
       225.000         173.000
  23192868.111     7975199.77649   6218287.21245  23192868.032    23192878.544
       219.000         161.000
  21027125.847   -10044609.28049  -7792930.04247  21027124.714    21027130.642
       241.000         203.000
 99  4 24 21  4 30.0000000  0  7G24G30G 4G 5G 6G 8G10
  21287665.061     5516153.75349   4306475.56247  21287664.746    21287670.204
       242.000         202.000
  20944993.952   -12017313.65149  -9341377.17347  20944994.112    20944998.450
       245.000         207.000
  24235346.558    13695699.94649  10667668.56545  24235347.108    24235353.367
       216.000         146.000
  20368806.864    -1907291.51249  -1476618.59748  20368806.259    20368811.586
       248.000         216.000
  22927637.198   -10390130.51849  -8078706.78746  22927636.937    22927642.652
       225.000         172.000
  23208053.673     8054999.22549   6280468.42745  23208053.929    23208063.196
       219.000         161.000
  21021907.360   -10072032.43549  -7814298.69347  21021906.197    21021912.476
       241.000         203.000
 99  4 24 21  5  0.0000000  0  7G24G30G 4G 5G 6G 8G10
  21299185.882     5576696.13049   4353651.43047  21299185.291    21299191.000
       243.000         202.000
  20936067.762   -12064221.59849  -9377928.81647  20936067.882    20936072.214
       245.000         208.000
  24253258.966    13789829.50249  10741016.19945  24253259.408    24253264.955
       216.000         148.000
  20374405.769    -1877869.25749  -1453692.18348  20374405.123    20374410.222
       247.000         216.000
  22914922.515   -10456946.20149  -8130770.90846  22914921.480    22914927.826
       225.000         172.000
  23223278.102     8135003.49649   6342809.23845  23223277.450    23223286.679
       217.000         159.000
  21016796.228   -10098891.39049  -7835227.70647  21016795.185    21016801.074
       241.000         204.000
 99  4 24 21  5 30.0000000  0  7G24G30G 4G 5G 6G 8G10
  21310745.843     5637444.00849   4400987.42547  21310745.468    21310751.058
       242.000         201.000
  20927237.019   -12110627.06749  -9414088.91947  20927236.985    20927241.460
       245.000         208.000
  24271166.383    13883933.62849  10814344.01145  24271166.701    24271173.071
       214.000         148.000
  20380111.458    -1847885.69049  -1430328.38548  20380110.953    20380116.126
       248.000         216.000
  22902211.662   -10523741.96449  -8182819.50946  22902210.999    22902216.891
       225.000         172.000
  23238540.305     8215206.65849   6405305.02445  23238539.314    23238549.740
       216.000         159.000
  21011792.539   -10125185.57649  -7855716.64247  21011791.649    21011797.796
       241.000         204.000
 99  4 24 21  6  0.0000000  0  7G24G30G 4G 5G 6G 8G10
  21322341.571     5698380.13449   4448470.10747  21322341.140    21322346.750
       242.000         201.000
  20918504.090   -12156519.20749  -9449849.02747  20918503.821    20918508.480
       245.000         208.000
  24289065.849    13977994.67549  10887638.24845  24289065.750    24289072.774
       214.000         148.000
  20385921.824    -1817352.15749  -1406536.04448  20385921.200    20385926.422
       247.000         216.000
  22889505.055   -10590515.61749  -8234850.87446  22889505.075    22889510.844
       227.000         173.000
  23253838.767     8295600.65749   6467949.51845  23253839.162    23253848.376
       219.000         159.000
  21006897.221   -10150910.89149  -7875762.30147  21006896.009    21006902.451
       241.000         204.000
 99  4 24 21  6 30.0000000  0  7G24G30G 4G 5G 6G 8G10
  21333974.928     5759513.74949   4496106.68147  21333974.677    21333979.898
       242.000         201.000
  20909873.661   -12201872.33049  -9485189.11947  20909873.516    20909878.126
       244.000         208.000
  24306962.622    14072043.51049  10960922.94545  24306962.130    24306970.296
       207.000         146.000
  20391839.967    -1786252.18049  -1382302.31748  20391839.403    20391844.649
       248.000         215.000
  22876809.061   -10657234.16249  -8286839.30946  22876808.925    22876814.001
       228.000         174.000
  23269176.389     8376198.73449   6530753.04545  23269176.544    23269186.282
       218.000         159.000
  21002118.326   -10176023.65349  -7895330.64547  21002117.317    21002123.428
       241.000         204.000
 99  4 24 21  7  0.0000000  0  7G24G30G 4G 5G 6G 8G10
  21345638.823     5820808.01849   4543868.43447  21345638.762    21345643.974
       242.000         200.000
  20901339.687   -12246718.25349  -9520133.98447  20901339.684    20901344.303
       245.000         208.000
  24324850.852    14166047.72049  11034172.87845  24324851.016    24324858.759
       211.000         145.000
  20397856.161    -1754636.91049  -1357667.06148  20397855.638    20397860.941
       248.000         215.000
  22864117.761   -10723927.62949  -8338808.19746  22864116.941    22864122.908
       228.000         175.000
  23284547.333     8456973.06149   6593693.90145  23284546.244    23284557.274
       219.000         159.000
  20997450.168   -10200554.83949  -7914445.81047  20997449.278    20997455.268
       242.000         204.000
 99  4 24 21  7 30.0000000  0  7G24G30G 4G 5G 6G 8G10
  21357325.393     5882221.19549   4591722.84547  21357325.151    21357330.424
       242.000         200.000
  20892895.541   -12291092.63149  -9554711.41247  20892895.759    20892900.204
       245.000         208.000
  24342723.550    14259968.01849  11107357.44945  24342723.953    24342731.395
       216.000         144.000
  20403960.571    -1722558.25949  -1332670.72948  20403959.922    20403965.170
       247.000         215.000
  22851423.634   -10790635.31549  -8390788.16946  22851423.339    22851429.021
       228.000         176.000
  23299939.661     8537859.66649   6656722.26445  23299939.418    23299950.457
       219.000         159.000
  20992885.942   -10224539.99649  -7933135.50747  20992884.938    20992890.737
       241.000         204.000
 99  4 24 21  8  0.0000000  0  7G24G30G 4G 5G 6G 8G10
  21369045.195     5943808.99849   4639713.32547  21369045.058    21369050.547
       242.000         201.000
  20884547.527   -12334961.74449  -9588895.12747  20884547.649    20884551.926
       245.000         208.000
  24360590.263    14353857.31849  11180517.87745  24360589.845    24360594.928
       215.000         143.000
  20410163.552    -1689961.39549  -1307270.59448  20410162.868    20410168.238
       247.000         215.000
  22838732.815   -10857325.65149  -8442754.63146  22838731.865    22838737.685
       228.000         177.000
  23315358.553     8618886.30849   6719859.70845  23315358.763    23315368.976
       219.000         158.000
  20988434.760   -10247931.12949  -7951362.32447  20988433.590    20988439.743
       241.000         205.000
 99  4 24 21  8 30.0000000  0  7G24G30G 4G 5G 6G 8G10
  21380798.409     6005572.35349   4687840.59847  21380798.121    21380803.724
       242.000         201.000
  20876290.614   -12378351.85249  -9622705.59047  20876290.585    20876294.882
       245.000         208.000
  24378447.460    14447697.27049  11253639.87945  24378446.952    24378454.324
       214.000         140.000
  20416466.099    -1656841.29849  -1281462.74548  20416465.375    20416470.707
       247.000         215.000
  22826041.873   -10924016.79049  -8494721.70946  22826041.620    22826046.547
       228.000         177.000
  23330800.303     8700031.74049   6783089.74445  23330800.833    23330809.962
       219.000         158.000
  20984093.406   -10270744.96749  -7969139.29847  20984092.355    20984098.172
       242.000         205.000
 99  4 24 21  9  0.0000000  0  7G24G30G 4G 5G 6G 8G10
  21392592.492     6067550.83949   4736135.51147  21392592.077    21392597.643
       242.000         200.000
  20868131.616   -12421227.94549  -9656115.52747  20868131.673    20868135.974
       244.000         208.000
  24396298.278    14541505.11949  11326736.83845  24396299.084    24396305.804
       214.000         141.000
  20422874.358    -1623165.44849  -1255221.84848  20422873.739    20422878.934
       247.000         215.000
  22813357.458   -10990673.95049  -8546662.30846  22813356.652    22813362.765
       228.000         177.000
  23346270.969     8781330.19049   6846438.99745  23346271.413    23346279.896
       218.000         157.000
  20979869.040   -10292943.95949  -7986437.17447  20979868.040    20979873.861
       242.000         205.000
 99  4 24 21  9 30.0000000  0  7G24G30G 4G 5G 6G 8G10
  21404421.664     6129713.73249   4784574.11747  21404421.377    21404426.814
       241.000         200.000
  20860063.676   -12463625.07549  -9689152.23847  20860063.718    20860068.304
       245.000         209.000
  24414136.558    14635244.50249  11399780.44145  24414135.805    24414146.141
       210.000         141.000
  20429385.887    -1588947.20649  -1228558.30348  20429385.351    20429390.562
       247.000         215.000
  22800673.847   -11057326.33649  -8598599.18346  22800673.512    22800679.171
       227.000         176.000
  23361766.504     8862759.09049   6909889.90645  23361766.216    23361776.558
       217.000         156.000
  20975758.738   -10314543.43449  -8003267.89247  20975757.795    20975763.861
       242.000         205.000
 99  4 24 21 10  0.0000000  0  7G24G30G 4G 5G 6G 8G10
  21416295.369     6192110.75549   4833195.15847  21416295.137    21416300.422
       242.000         199.000
  20852097.443   -12505487.91449  -9721772.62147  20852097.693    20852102.213
       245.000         209.000
  24431969.476    14728957.15949  11472803.20245  24431968.060    24431974.927
       212.000         139.000
  20436011.659    -1554128.88649  -1201427.17048  20436011.154    20436016.187
       247.000         215.000
  22788002.563   -11123913.86849  -8650485.53546  22788002.034    22788007.243
       227.000         176.000
  23377300.324     8944389.19849   6973497.59845  23377298.613    23377310.982
       215.000         155.000
  20971774.441   -10335480.97949  -8019582.82947  20971773.373    20971779.445
       242.000         205.000
 99  4 24 21 10 30.0000000  0  8G17G24G30G 4G 5G 6G 8G10
  25040564.887    -6147598.96449  -3758279.62845  25040563.089    25040578.984
       201.000         136.000
  21428191.879     6254626.99749   4881909.10447  21428191.772    21428197.100
       242.000         200.000
  20844216.979   -12546899.95649  -9754041.73147  20844216.779    20844221.191
       245.000         209.000
  24449775.138    14822525.62349  11545713.62545  24449774.234    24449781.935
       206.000         137.000
  20442725.153    -1518849.02549  -1173936.38848  20442724.406    20442729.961
       247.000         215.000
  22775326.455   -11190527.03849  -8702391.87246  22775325.820    22775331.831
       227.000         175.000
  23392853.576     9026122.09949   7037185.38445  23392852.505    23392862.911
       217.000         155.000
  20967895.215   -10355866.63349  -8035467.71447  20967894.299    20967899.999
       242.000         205.000
 99  4 24 21 11  0.0000000  0  8G17G24G30G 4G 5G 6G 8G10
  25023759.888    -6235907.46949  -3827091.06445  25023757.143    25023771.783
       202.000         137.000
  21440120.067     6317310.05649   4930753.03347  21440119.644    21440125.513
       242.000         200.000
  20836437.299   -12587782.66349  -9785898.38047  20836437.195    20836441.729
       245.000         209.000
  24467567.393    14916024.81249  11618570.01545  24467567.575    24467572.476
       208.000         136.000
  20449537.552    -1483049.80549  -1146040.91548  20449536.770    20449542.333
       247.000         214.000
  22762658.985   -11257095.21749  -8754263.13646  22762658.210    22762663.629
       226.000         175.000
  23408439.060     9108022.93049   7101004.02245  23408438.895    23408449.333
       215.000         154.000
  20964133.494   -10375634.55349  -8050871.25447  20964132.473    20964138.358
       242.000         205.000
 99  4 24 21 11 30.0000000  0  8G17G24G30G 4G 5G 6G 8G10
  25006988.297    -6324040.62749  -3895765.89945  25006986.334    25007002.433
       207.000         142.000
  21452082.859     6380174.87149   4979738.59347  21452082.742    21452088.232
       242.000         200.000
  20828764.853   -12628101.58049  -9817315.70347  20828764.756    20828769.403
       245.000         209.000
  24485354.266    15009495.17349  11691403.98745  24485355.791    24485360.386
       209.000         138.000
  20456454.381    -1446701.53949  -1117717.61148  20456453.942    20456459.083
       246.000         214.000
  22750004.574   -11323594.50549  -8806080.72046  22750003.790    22750009.471
       227.000         174.000
  23424059.281     9190107.97249   7164966.18645  23424059.341    23424069.184
       217.000         155.000
  20960493.481   -10394762.80849  -8065776.34747  20960492.093    20960498.246
       242.000         205.000
 99  4 24 21 12  0.0000000  0  8G17G24G30G 4G 5G 6G 8G10
  24990233.622    -6412087.05149  -3964373.12445  24990232.492    24990246.010
       208.000         144.000
  21464065.562     6443144.18649   5028805.57847  21464065.177    21464071.126
       241.000         200.000
  20821186.062   -12667928.64649  -9848349.76847  20821186.123    20821190.749
       245.000         209.000
  24503120.107    15102855.29449  11764152.04645  24503119.333    24503126.445
       212.000         141.000
  20463457.144    -1409901.94649  -1089042.62848  20463456.584    20463461.932
       246.000         214.000
  22737345.564   -11390117.92249  -8857917.10746  22737345.593    22737350.574
       226.000         175.000
  23439695.014     9272272.65749   7228990.44145  23439695.377    23439705.376
       213.000         154.000
  20956958.406   -10413339.73749  -8080251.83747  20956957.510    20956962.997
       241.000         205.000
 99  4 24 21 12 30.0000000  0  8G17G24G30G 4G 5G 6G 8G10
  24973509.411    -6499972.27249  -4032854.77345  24973507.700    24973521.804
       210.000         145.000
  21476082.808     6506295.27949   5078014.20147  21476082.537    21476088.144
       241.000         199.000
  20813713.867   -12707195.12349  -9878947.01247  20813714.006    20813718.375
       245.000         210.000
  24520880.826    15196187.72149  11836878.51345  24520880.688    24520888.679
       209.000         143.000
  20470562.401    -1372563.68149  -1059947.89748  20470561.815    20470567.251
       246.000         214.000
  22724694.259   -11456600.20549  -8909721.44546  22724694.232    22724699.344
       225.000         175.000
  23455356.178     9354572.58449   7293120.05745  23455356.235    23455368.044
       215.000         153.000
  20953538.935   -10431309.02049  -8094253.84047  20953537.838    20953543.734
       242.000         205.000
 99  4 24 21 13  0.0000000  0  8G17G24G30G 4G 5G 6G 8G10
  24956819.853    -6587675.34849  -4101194.47545  24956817.835    24956832.583
       211.000         145.000
  21488138.970     6569650.64749   5127382.00647  21488138.421    21488144.069
       241.000         199.000
  20806349.399   -12745895.81549  -9909103.38847  20806349.274    20806353.862
       246.000         210.000
  24538640.775    15289516.86249  11909602.44445  24538641.322    24538648.326
       213.000         143.000
  20477779.331    -1334638.53349  -1030395.86148  20477778.599    20477784.325
       247.000         214.000
  22712052.149   -11523034.21449  -8961488.15346  22712051.774    22712057.518
       226.000         176.000
  23471047.208     9437028.27849   7357371.02645  23471046.503    23471057.948
       213.000         155.000
  20950239.802   -10448646.16049  -8107763.27047  20950238.771    20950244.678
       242.000         205.000
 99  4 24 21 13 30.0000000  0  8G17G24G30G 4G 5G 6G 8G10
  24940158.774    -6675228.48549  -4169417.32845  24940156.989    24940170.519
       211.000         145.000
  21500229.915     6633188.79249   5176892.23347  21500229.651    21500235.173
       241.000         199.000
  20799084.219   -12784074.45449  -9938852.97047  20799084.164    20799088.614
       245.000         210.000
  24556391.052    15382794.17849  11982285.97745  24556391.374    24556397.994
       212.000         143.000
  20485098.474    -1296176.33749  -1000425.34248  20485097.792    20485103.165
       247.000         214.000
  22699410.713   -11589465.59549  -9013252.82346  22699410.155    22699416.106
       227.000         176.000
  23486760.230     9519600.10249   7421712.49245  23486760.334    23486771.521
       215.000         155.000
  20947054.517   -10465384.85849  -8120806.37647  20947053.177    20947059.314
       241.000         205.000
 99  4 24 21 14  0.0000000  0  8G17G24G30G 4G 5G 6G 8G10
  24923526.053    -6762632.78049  -4237524.20745  24923525.013    24923538.026
       209.000         143.000
  21512357.892     6696921.57349   5226554.13247  21512357.395    21512363.313
       241.000         199.000
  20791920.583   -12821719.59149  -9968186.83547  20791920.713    20791925.035
       246.000         210.000
  24574131.270    15476018.55349  12054928.27345  24574130.783    24574138.856
       214.000         143.000
  20492521.658    -1257167.24749   -970028.67048  20492520.983    20492526.288
       247.000         214.000
  22686771.090   -11655887.09549  -9065009.77646  22686770.276    22686776.773
       227.000         177.000
  23502497.556     9602299.27549   7486153.18645  23502497.250    23502508.487
       212.000         155.000
  20943983.587   -10481522.28949  -8133380.96547  20943982.433    20943988.304
       242.000         205.000
 99  4 24 21 14 30.0000000  0  8G17G24G30G 4G 5G 6G 8G10
  24906923.657    -6849877.30049  -4305506.58045  24906921.127    24906935.473
       210.000         141.000
  21524522.318     6760846.25049   5276365.54547  21524521.954    21524527.597
       240.000         199.000
  20784863.841   -12858802.91749  -9997082.92347  20784863.778    20784868.605
       245.000         210.000
  24591864.865    15569208.23749  12127543.53645  24591865.995    24591872.638
       211.000         142.000
  20500053.062    -1217589.70549   -939189.05248  20500052.579    20500057.948
       247.000         214.000
  22674140.776   -11722259.45649  -9116728.45146  22674139.660    22674145.694
       226.000         177.000
  23518262.583     9685144.73549   7550707.86845  23518262.765    23518273.134
       213.000         154.000
  20941030.061   -10497042.97349  -8145474.97647  20941029.297    20941034.860
       242.000         205.000
 99  4 24 21 15  0.0000000  0  8G17G24G30G 4G 5G 6G 8G10
  24890341.593    -6937015.44149  -4373406.04145  24890340.985    24890353.119
       210.000         138.000
  21536714.841     6824918.54049   5326291.98347  21536714.543    21536720.464
       240.000         198.000
  20777907.135   -12895360.44549 -10025569.30047  20777907.184    20777911.475
       246.000         210.000
  24609582.023    15662312.48449  12200092.22145  24609582.021    24609588.901
       209.000         140.000
  20507680.512    -1177507.30149   -907956.03048  20507679.779    20507685.360
       246.000         214.000
  22661513.265   -11788617.11349  -9168435.66846  22661512.881    22661518.951
       227.000         177.000
  23534048.552     9768099.28149   7615347.56945  23534047.558    23534059.454
       212.000         155.000
  20938190.498   -10511965.15249  -8157102.61847  20938189.243    20938195.196
       242.000         205.000
 99  4 24 21 15 30.0000000  0  8G17G24G30G 4G 5G 6G 8G10
  24873784.442    -7024021.92749  -4441202.94045  24873782.759    24873796.912
       209.000         137.000
  21548937.267     6889147.80349   5376340.74247  21548936.871    21548942.326
       240.000         197.000
  20771056.808   -12931358.87549 -10053620.01647  20771056.717    20771061.072
       245.000         210.000
  24627287.144    15755354.59749  12272592.49345  24627288.243    24627295.649
       208.000         138.000
  20515406.722    -1136905.84749   -876318.55948  20515406.060    20515411.516
       246.000         213.000
  22648894.459   -11854928.96849  -9220107.20446  22648893.507    22648899.930
       227.000         178.000
  23549856.643     9851171.22449   7680078.72045  23549856.244    23549867.735
       213.000         155.000
  20935470.299   -10526259.55149  -8168241.08247  20935469.196    20935474.760
       242.000         205.000
 99  4 24 21 16  0.0000000  0  8G17G24G30G 4G 5G 6G 8G10
  24857257.719    -7110869.54449  -4508876.00745  24857256.669    24857270.833
       211.000         137.000
  21561189.246     6953532.35149   5426510.50647  21561188.969    21561194.267
       240.000         197.000
  20764315.365   -12966785.22449 -10081224.95847  20764315.464    20764319.990
       246.000         210.000
  24644983.526    15848348.40049  12345055.09645  24644985.082    24644990.805
       211.000         137.000
  20523233.832    -1095774.14949   -844267.91148  20523233.251    20523238.635
       246.000         213.000
  22636287.881   -11921176.69149  -9271728.76846  22636287.564    22636291.984
       228.000         178.000
  23565685.770     9934352.65549   7744895.19745  23565685.765    23565697.473
       214.000         155.000
  20932870.187   -10539922.94649  -8178887.85047  20932869.006    20932874.905
       242.000         205.000
 99  4 24 21 16 30.0000000  0  7G17G24G30G 5G 6G 8G10
  24840760.577    -7197561.30649  -4576427.66045  24840759.780    24840771.377
       210.000         134.000
  21573468.087     7018057.78049   5476790.04447  21573467.629    21573473.579
       240.000         197.000
  20757676.771   -13001671.46349 -10108409.03147  20757676.769    20757681.298
       246.000         210.000
  20531156.234    -1054141.96749   -811827.27548  20531155.837    20531161.052
       246.000         213.000
  22623690.190   -11987378.04349  -9323314.20046  22623689.985    22623695.197
       229.000         178.000
  23581531.058    10017619.12349   7809777.91845  23581530.636    23581542.565
       215.000         157.000
  20930386.277   -10552975.83149  -8189058.90047  20930385.406    20930391.170
       242.000         205.000
 99  4 24 21 17  0.0000000  0  7G17G24G30G 5G 6G 8G10
  24824289.855    -7284114.19449  -4643871.09445  24824288.553    24824300.749
       207.000         135.000
  21585767.747     7082692.93449   5527155.08547  21585767.364    21585773.110
       239.000         197.000
  20751131.895   -13036064.69649 -10135208.94147  20751131.910    20751136.515
       246.000         210.000
  20539166.516    -1012047.91549   -779026.74048  20539165.961    20539171.125
       246.000         213.000
  22611090.407   -12053590.88849  -9374908.58146  22611090.128    22611095.709
       229.000         178.000
  23597388.253    10100947.98549   7874709.26845  23597388.008    23597399.776
       214.000         156.000
  20928010.404   -10565461.15049  -8198787.68747  20928009.311    20928015.189
       242.000         206.000
 99  4 24 21 17 30.0000000  0  7G17G24G30G 5G 6G 8G10
  24807857.053    -7370467.59649  -4711159.04545  24807854.200    24807866.539
       206.000         134.000
  21598095.648     7147476.54449   5577635.80247  21598095.400    21598101.224
       239.000         196.000
  20744693.169   -13069900.66949 -10161574.61947  20744693.328    20744697.584
       246.000         210.000
  20547275.995     -969432.29649   -745819.78648  20547275.437    20547280.994
       246.000         213.000
  22598497.704   -12119766.10749  -9426473.64446  22598497.466    22598502.750
       230.000         179.000
  23613266.353    10184387.25849   7939726.64845  23613266.516    23613277.562
       213.000         155.000
  20925747.928   -10577350.38049  -8208051.98847  20925746.657    20925752.589
       241.000         206.000
 99  4 24 21 18  0.0000000  0  7G17G24G30G 5G 6G 8G10
  24791459.881    -7456631.98649  -4778299.72045  24791456.842    24791471.482
       206.000         133.000
  21610455.043     7212425.77749   5628245.57347  21610454.524    21610460.487
       239.000         196.000
  20738360.219   -13103180.47949 -10187506.92847  20738360.362    20738364.660
       246.000         210.000
  20555485.490     -926291.24949   -712203.41448  20555484.804    20555490.383
       246.000         213.000
  22585913.813   -12185894.76849  -9478002.41646  22585913.258    22585918.713
       228.000         179.000
  23629168.441    10267952.17349   8004841.93245  23629168.857    23629180.372
       216.000         156.000
  20923596.765   -10588654.31549  -8216860.21847  20923595.826    20923601.398
       242.000         206.000
 99  4 24 21 18 30.0000000  0  7G17G24G30G 5G 6G 8G10
  24775091.622    -7542646.65049  -4845323.75045  24775091.141    24775102.021
       206.000         133.000
  21622840.480     7277511.42449   5678961.64247  21622840.149    21622845.776
       240.000         196.000
  20732130.922   -13135915.74449 -10213014.91647  20732130.944    20732135.349
       245.000         210.000
  20563791.734     -882641.53849   -678190.68148  20563791.184    20563796.591
       246.000         213.000
  22573332.668   -12252008.50649  -9529519.57546  22573332.137    22573337.955
       228.000         180.000
  23645093.129    10351635.38849   8070049.40145  23645093.562    23645104.412
       216.000         157.000
  20921555.455   -10599381.53349  -8225219.05747  20921554.689    20921560.294
       242.000         206.000
 99  4 24 21 19  0.0000000  0  7G17G24G30G 5G 6G 8G10
  24758755.252    -7628494.46349  -4912217.73745  24758752.812    24758765.737
       202.000         133.000
  21635253.242     7342740.91649   5729789.80247  21635253.026    21635258.195
       240.000         196.000
  20726011.414   -13168073.68649 -10238073.03647  20726011.461    20726015.976
       246.000         211.000
  20572199.237     -838459.87149   -643763.43648  20572198.803    20572204.172
       246.000         213.000
  22560759.486   -12318080.66849  -9581004.32646  22560758.872    22560765.584
       229.000         180.000
  23661041.857    10435445.48249   8135355.72045  23661041.262    23661052.856
       215.000         156.000
  20919630.843   -10609495.43949  -8233099.98947  20919629.842    20919635.494
       242.000         206.000
 99  4 24 21 19 30.0000000  0  7G17G24G30G 5G 6G 8G10
  24742450.366    -7714173.96849  -4978980.58444  24742448.779    24742461.689
       202.000         131.000
  21647694.508     7408119.88949   5780734.44347  21647694.383    21647699.616
       239.000         196.000
  20720001.474   -13199656.14149 -10262682.73247  20720001.581    20720005.792
       246.000         211.000
  20580707.747     -793747.68949   -608922.80347  20580707.033    20580712.716
       246.000         212.000
  22548199.678   -12384083.17849  -9632434.80246  22548199.067    22548204.542
       229.000         181.000
  23677009.421    10519354.87449   8200739.44545  23677009.138    23677020.237
       215.000         155.000
  20917826.407   -10618977.61249  -8240488.66547  20917825.571    20917831.062
       242.000         206.000
 99  4 24 21 20  0.0000000  0  7G17G24G30G 5G 6G 8G10
  24726176.271    -7799693.87849  -5045619.08045  24726176.314    24726187.074
       205.000         134.000
  21660160.276     7473627.80349   5831779.55647  21660160.113    21660165.640
       240.000         195.000
  20714095.014   -13230695.09549 -10286868.91847  20714095.040    20714099.358
       246.000         211.000
  20589313.158     -748525.80749   -573685.00447  20589312.605    20589317.934
       246.000         212.000
  22535649.140   -12450036.18149  -9683826.70046  22535648.855    22535654.672
       230.000         182.000
  23692989.578    10603330.12049   8266174.45645  23692989.994    23693001.517
       212.000         154.000
  20916142.210   -10627828.02849  -8247385.06047  20916140.857    20916146.853
       242.000         206.000
 99  4 24 21 20 30.0000000  0  7G17G24G30G 5G 6G 8G10
  24709933.360    -7885049.06849  -5112129.23445  24709931.281    24709944.229
       205.000         134.000
  21672645.606     7539238.55549   5882904.80047  21672645.210    21672651.268
       238.000         195.000
  20708290.310   -13261198.84349 -10310638.06247  20708290.189    20708294.750
       245.000         211.000
  20598012.714     -702809.46449   -538061.90547  20598011.923    20598017.631
       246.000         212.000
  22523103.281   -12515965.38849  -9735200.07446  22523103.020    22523107.996
       230.000         182.000
  23708978.545    10687351.63249   8331645.51745  23708978.346    23708989.677
       216.000         154.000
  20914578.211   -10636046.64049  -8253789.14247  20914577.170    20914582.905
       242.000         206.000
 99  4 24 21 21  0.0000000  0  7G17G24G30G 5G 6G 8G10
  24693726.909    -7970212.53049  -5178490.01345  24693724.740    24693737.830
       207.000         138.000
  21685153.996     7604970.94349   5934124.82247  21685154.020    21685159.547
       239.000         195.000
  20702587.779   -13291165.64149 -10333988.80647  20702587.837    20702592.384
       245.000         211.000
  20606809.305     -656583.10549   -502041.39747  20606808.793    20606814.132
       246.000         212.000
  22510567.031   -12581844.00449  -9786534.01746  22510566.719    22510572.457
       230.000         182.000
  23724978.616    10771430.96449   8397161.62245  23724977.730    23724990.456
       215.000         152.000
  20913135.646   -10643627.11449  -8259695.97847  20913134.598    20913140.360
       242.000         206.000
 99  4 24 21 21 30.0000000  0  7G17G24G30G 5G 6G 8G10
  24677552.144    -8055209.75849  -5244721.24345  24677550.307    24677563.142
       210.000         139.000
  21697684.927     7670820.69049   5985436.29847  21697684.655    21697690.628
       240.000         195.000
  20696985.385   -13320606.36749 -10356929.62347  20696985.555    20696990.035
       246.000         211.000
  20615700.670     -609859.05149   -465633.06547  20615700.128    20615705.616
       246.000         212.000
  22498036.473   -12647692.62449  -9837844.58346  22498036.024    22498041.115
       230.000         181.000
  23740987.505    10855558.78549   8462715.51745  23740988.745    23740997.846
       215.000         153.000
  20911810.483   -10650590.79349  -8265122.18247  20911809.396    20911815.241
       241.000         206.000
 99  4 24 21 22  0.0000000  0  7G17G24G30G 5G 6G 8G10
  24661405.867    -8140057.63449  -5310836.12945  24661405.164    24661416.851
       211.000         144.000
  21710238.769     7736790.83049   6036841.58747  21710238.764    21710244.080
       239.000         195.000
  20691486.874   -13349501.45049 -10379445.26347  20691486.912    20691491.310
       246.000         211.000
  20624689.584     -562622.12349   -428825.10047  20624688.955    20624694.561
       245.000         211.000
  22485507.974   -12713529.93449  -9889146.34546  22485507.607    22485512.889
       229.000         180.000
  23757011.285    10939762.89349   8528328.86045  23757010.164    23757021.608
       212.000         150.000
  20910602.162   -10656940.48049  -8270069.95947  20910601.172    20910607.028
       242.000         206.000
 99  4 24 21 22 30.0000000  0  7G17G24G30G 5G 6G 8G10
  24645291.472    -8224738.84749  -5376821.13045  24645290.031    24645302.368
       211.000         145.000
  21722822.735     7802920.05149   6088370.83047  21722822.433    21722827.853
       239.000         195.000
  20686098.091   -13377819.58949 -10401511.34147  20686098.142    20686102.597
       246.000         211.000
  20633781.105     -514846.00649   -391596.98747  20633780.761    20633786.024
       246.000         211.000
  22472987.280   -12779326.05249  -9940416.00746  22472986.805    22472992.493
       229.000         180.000
  23773057.260    11024084.05249   8594033.41245  23773057.305    23773069.052
       213.000         149.000
  20909514.388   -10662656.79549  -8274524.20347  20909513.465    20909519.213
       242.000         206.000
 99  4 24 21 23  0.0000000  0  7G17G24G30G 5G 6G 8G10
  24629196.397    -8309317.61849  -5442726.32045  24629195.223    24629207.206
       209.000         147.000
  21735427.725     7869159.92149   6139986.29347  21735427.297    21735433.170
       239.000         194.000
  20680809.986   -13405608.80349 -10423165.27047  20680810.103    20680814.406
       246.000         211.000
  20642963.687     -466591.34249   -353995.98047  20642963.074    20642968.474
       246.000         211.000
  22460466.651   -12845122.18249  -9991685.68346  22460466.093    22460471.686
       229.000         181.000
  23789111.061    11108445.98849   8659769.72245  23789110.202    23789123.358
       211.000         148.000
  20908535.464   -10667800.98749  -8278532.64147  20908534.553    20908539.797
       242.000         206.000
 99  4 24 21 23 30.0000000  0  7G17G24G30G 5G 6G 8G10
  24613126.545    -8393762.60649  -5508527.26345  24613124.578    24613137.595
       212.000         147.000
  21748061.330     7935549.29649   6191718.25847  21748061.001    21748066.819
       239.000         194.000
  20675632.886   -13432814.80949 -10444364.74647  20675633.077    20675637.202
       246.000         211.000
  20652243.380     -417826.44549   -315997.38847  20652242.610    20652248.019
       245.000         211.000
  22447952.486   -12910884.66649 -10042929.13846  22447951.946    22447956.800
       230.000         181.000
  23805176.773    11192872.79549   8725556.60145  23805175.990    23805188.528
       211.000         144.000
  20907672.075   -10672337.99549  -8282067.95147  20907671.001    20907676.865
       242.000         206.000
 99  4 24 21 24  0.0000000  0  7G17G24G30G 5G 6G 8G10
  24597090.518    -8478032.49149  -5574191.78545  24597089.070    24597101.671
       213.000         149.000
  21760725.994     8002102.20349   6243577.64747  21760725.673    21760731.213
       239.000         194.000
  20670570.519   -13459417.81549 -10465094.35947  20670570.632    20670574.719
       246.000         211.000
  20661623.961     -368531.24649   -277585.57347  20661623.236    20661628.589
       246.000         211.000
  22435450.114   -12976585.08549 -10094124.23046  22435449.611    22435455.123
       230.000         182.000
  23821260.106    11277390.46049   8791414.24845  23821258.206    23821271.952
       207.000         143.000
  20906929.061   -10676242.58949  -8285110.47147  20906928.265    20906933.868
       243.000         206.000
 99  4 24 21 24 30.0000000  0  7G17G24G30G 5G 6G 8G10
  24581087.593    -8562127.11549  -5639719.75845  24581085.968    24581098.319
       211.000         149.000
  21773418.796     8068803.39049   6295552.58347  21773418.436    21773423.798
       239.000         194.000
  20665620.056   -13485432.70849 -10485365.69747  20665620.369    20665624.548
       246.000         211.000
  20671097.819     -318746.14949   -238792.01547  20671097.247    20671102.585
       246.000         211.000
  22422959.257   -13042224.32249 -10145271.65046  22422958.999    22422964.418
       231.000         183.000
  23837352.114    11361954.38649   8857307.93845  23837352.474    23837363.272
       209.000         141.000
  20906302.597   -10679534.84349  -8287675.83847  20906301.609    20906307.079
       242.000         206.000
 99  4 24 21 25  0.0000000  0  7G17G24G30G 5G 6G 8G10
  24565116.113    -8646055.67849  -5705118.33045  24565115.005    24565126.854
       213.000         150.000
  21786136.298     8135634.58749   6347628.81847  21786135.962    21786141.656
       238.000         194.000
  20660781.915   -13510857.09249 -10505176.90147  20660781.928    20660786.332
       246.000         211.000
  20680661.168     -268490.64949   -199631.91347  20680660.567    20680666.139
       246.000         211.000
  22410480.459   -13107800.91049 -10196370.25746  22410479.838    22410485.703
       231.000         183.000
  23853449.907    11446546.50449   8923223.63645  23853449.950    23853461.809
       208.000         141.000
  20905789.699   -10682230.02149  -8289775.94547  20905788.424    20905794.170
       242.000         206.000
 99  4 24 21 25 30.0000000  0  7G17G24G30G 5G 6G 8G10
  24549181.221    -8729793.33449  -5770368.13645  24549179.717    24549191.256
       214.000         150.000
  21798879.810     8202602.25349   6399811.40047  21798879.180    21798884.988
       238.000         193.000
  20656056.031   -13535691.74149 -10524528.57447  20656055.970    20656060.410
       246.000         212.000
  20690317.735     -217744.96549   -160089.85347  20690317.092    20690322.765
       245.000         211.000
  22398015.744   -13173303.77449 -10247411.41746  22398014.557    22398020.659
       230.000         183.000
  23869558.892    11531199.50849   8989186.74645  23869558.848    23869571.875
       207.000         140.000
  20905392.893   -10684315.06649  -8291400.63647  20905391.978    20905397.557
       242.000         206.000
 99  4 24 21 26  0.0000000  0  7G17G24G30G 5G 6G 8G10
  24533280.995    -8813348.76749  -5835475.97345  24533279.354    24533291.414
       211.000         151.000
  21811647.310     8269695.74649   6452092.02047  21811646.951    21811652.375
       238.000         193.000
  20651438.425   -13559957.35949 -10543436.84247  20651438.567    20651443.078
       246.000         212.000
  20700066.459     -166515.12449   -120170.52647  20700065.983    20700071.333
       245.000         210.000
  22385562.853   -13238743.58649 -10298403.44146  22385562.198    22385567.129
       230.000         182.000
  23885679.804    11615914.57649   9055198.20245  23885680.577    23885691.981
       212.000         143.000
  20905110.362   -10685799.93149  -8292557.64447  20905109.244    20905114.776
       243.000         207.000
 99  4 24 21 26 30.0000000  0  7G17G24G30G 5G 6G 8G10
  24517412.613    -8896735.57549  -5900452.40545  24517410.950    24517422.489
       212.000         151.000
  21824436.730     8336904.71449   6504462.62447  21824436.427    21824442.610
       239.000         193.000
  20646928.671   -13583656.54349 -10561903.73247  20646928.579    20646933.215
       246.000         212.000
  20709906.983     -114802.99449    -79875.38547  20709906.460    20709911.920
       245.000         210.000
  22373120.304   -13304129.05449 -10349353.12246  22373119.462    22373125.786
       230.000         182.000
  23901809.109    11700672.95349   9121243.41145  23901809.352    23901820.892
       203.000         141.000
  20904938.099   -10686705.15449  -8293262.98447  20904937.163    20904942.822
       243.000         207.000
 99  4 24 21 27  0.0000000  0  7G17G24G30G 5G 6G 8G10
  24501576.298    -8979954.83649  -5965298.29145  24501574.803    24501586.859
       209.000         150.000
  21837245.989     8404217.43749   6556914.08547  21837245.569    21837251.500
       238.000         193.000
  20642523.438   -13606806.05949 -10579942.31247  20642523.428    20642527.860
       246.000         212.000
  20719843.785      -62584.94849    -39186.02447  20719843.171    20719848.505
       245.000         210.000
  22360686.574   -13369468.43649 -10400266.89446  22360686.409    22360691.988
       231.000         182.000
  23917949.083    11785488.95349   9187333.53045  23917948.529    23917962.643
       208.000         140.000
  20904876.226   -10687030.13649  -8293516.19047  20904875.076    20904880.771
       242.000         206.000
 99  4 24 21 27 30.0000000  0  7G17G24G30G 5G 6G 8G10
  24485773.706    -9062997.65549  -6030006.68445  24485771.933    24485783.818
       211.000         148.000
  21850074.888     8471633.32349   6609445.92947  21850074.288    21850079.861
       239.000         193.000
  20638222.942   -13629405.57149 -10597552.31147  20638222.906    20638227.202
       246.000         212.000
  20729879.479       -9847.16949      1908.32247  20729878.993    20729884.244
       245.000         210.000
  22348258.605   -13434777.71949 -10451157.21146  22348257.793    22348263.329
       231.000         183.000
  23934101.351    11870367.51949   9253472.39345  23934101.346    23934113.967
       212.000         144.000
  20904928.838   -10686753.60049  -8293300.67247  20904927.720    20904933.466
       242.000         206.000
 99  4 24 21 28  0.0000000  0  7G17G24G30G 5G 6G 8G10
  24470000.219    -9145886.34849  -6094594.98445  24469998.982    24470010.452
       209.000         146.000
  21862919.733     8539133.90949   6662043.76547  21862919.196    21862925.204
       238.000         193.000
  20634030.013   -13651439.26449 -10614721.42047  20634030.158    20634034.361
       246.000         212.000
  20740010.335       43390.62249     43392.28347  20740009.520    20740014.978
       245.000         210.000
  22335834.068   -13500068.90849 -10502033.43946  22335833.824    22335838.609
       232.000         183.000
  23950260.233    11955281.12349   9319638.55745  23950259.620    23950272.896
       210.000         144.000
  20905096.733   -10685871.39549  -8292613.21847  20905095.843    20905101.110
       243.000         207.000
 99  4 24 21 28 30.0000000  0  7G17G24G30G 5G 6G 8G10
  24454259.518    -9228602.60149  -6159048.90445  24454257.330    24454269.102
       209.000         146.000
  21875783.098     8606731.55449   6714717.23147  21875782.661    21875788.555
       237.000         192.000
  20629948.246   -13672889.09249 -10631435.56347  20629948.184    20629952.710
       246.000         212.000
  20750236.518       97129.50249     85266.70647  20750235.861    20750241.522
       244.000         209.000
  22323415.264   -13565329.86149 -10552886.08546  22323415.191    22323420.422
       232.000         184.000
  23966424.470    12040222.96749   9385826.74545  23966424.699    23966437.860
       209.000         144.000
  20905386.341   -10684349.27849  -8291427.12447  20905385.353    20905390.913
       242.000         206.000
 99  4 24 21 29  0.0000000  0  7G17G24G30G 5G 6G 8G10
  24438556.404    -9311122.67949  -6223349.97045  24438554.801    24438566.126
       207.000         146.000
  21888668.729     8674445.50149   6767481.31647  21888668.040    21888673.888
       237.000         191.000
  20625979.424   -13693745.12749 -10647687.01147  20625979.352    20625983.719
       246.000         211.000
  20760557.501      151366.81149    127529.50947  20760556.846    20760562.137
       245.000         209.000
  22311006.495   -13630538.62049 -10603698.06646  22311005.912    22311011.650
       232.000         184.000
  23982597.218    12125210.20149   9452050.24845  23982596.854    23982610.340
       208.000         146.000
  20905805.457   -10682146.30049  -8289710.49247  20905804.433    20905809.956
       242.000         206.000
 99  4 24 21 29 30.0000000  0  7G17G24G30G 5G 6G 8G10
  24422884.115    -9393478.95149  -6287523.39845  24422883.570    24422893.812
       210.000         144.000
  21901570.904     8742247.03249   6820313.65447  21901570.598    21901576.208
       236.000         191.000
  20622119.029   -13714031.63649 -10663494.67247  20622119.224    20622123.452
       246.000         211.000
  20770964.212      206054.57649    170143.32047  20770963.451    20770969.113
       245.000         209.000
  22298602.845   -13695720.25449 -10654488.90246  22298602.749    22298607.607
       233.000         185.000
  23998769.885    12210197.40549   9518273.74745  23998770.537    23998781.832
       217.000         148.000
  20906349.690   -10679286.37349  -8287481.95547  20906348.736    20906354.419
       242.000         206.000
 99  4 24 21 30  0.0000000  0  7G17G24G30G 5G 6G 8G10
  24407240.511    -9475686.14249  -6351580.66345  24407239.530    24407250.065
       212.000         143.000
  21914489.067     8810132.40049   6873211.32447  21914488.895    21914494.138
       236.000         191.000
  20618361.448   -13733777.91649 -10678881.37747  20618361.505    20618365.880
       245.000         211.000
  20781452.856      261172.78349    213092.53847  20781452.530    20781457.797
       245.000         209.000
  22286204.789   -13760872.13249 -10705256.55346  22286204.382    22286210.030
       230.000         185.000
  24014938.969    12295164.95449   9584481.96445  24014938.764    24014951.978
       215.000         151.000
  20907013.202   -10675799.53049  -8284764.91047  20907012.237    20907017.616
       243.000         206.000
 99  4 24 21 30 30.0000000  0  7G17G24G30G 5G 6G 8G10
  24391625.811    -9557740.52849  -6415518.86645  24391624.570    24391636.459
       207.000         144.000
  21927423.652     8878103.95349   6926176.14647  21927423.291    21927428.823
       236.000         191.000
  20614701.544   -13753010.92649 -10693868.13447  20614701.549    20614705.850
       246.000         211.000
  20792024.672      316727.64749    256382.01047  20792024.321    20792029.817
       245.000         209.000
  22273814.065   -13825985.20349 -10755993.96346  22273813.660    22273818.655
       232.000         185.000
  24031105.236    12380117.93349   9650678.77645  24031105.342    24031117.201
       213.000         151.000
  20907789.942   -10671717.64249  -8281584.19547  20907788.819    20907794.390
       242.000         206.000
 99  4 24 21 31  0.0000000  0  7G17G24G30G 5G 6G 8G10
  24376036.676    -9639660.43449  -6479352.26345  24376034.612    24376046.956
       209.000         143.000
  21940371.294     8946144.48749   6979194.72447  21940370.607    21940376.346
       236.000         190.000
  20611139.205   -13771731.06049 -10708455.24447  20611139.265    20611143.623
       245.000         211.000
  20802679.062      372716.52349    300009.67247  20802678.405    20802683.847
       244.000         208.000
  22261431.370   -13891057.10949 -10806699.30546  22261430.882    22261436.373
       232.000         185.000
  24047267.991    12465052.44149   9716861.22745  24047268.472    24047280.485
       214.000         151.000
  20908673.646   -10667073.54649  -8277965.39247  20908672.577    20908678.096
       242.000         206.000
 99  4 24 21 31 30.0000000  0  7G17G24G30G 5G 6G 8G10
  24360473.504    -9721444.50449  -6543079.82945  24360472.536    24360482.442
       209.000         142.000
  21953334.118     9014264.39949   7032275.15447  21953333.843    21953339.469
       236.000         190.000
  20607678.202   -13789918.50449 -10722627.27347  20607678.191    20607682.673
       246.000         211.000
  20813421.782      429169.72949    343999.15447  20813421.048    20813426.789
       245.000         208.000
  22249056.923   -13956085.16549 -10857370.47446  22249056.289    22249061.291
       233.000         185.000
  24063427.308    12549968.92249   9783029.61045  24063427.796    24063439.937
       214.000         151.000
  20909663.393   -10661872.23349  -8273912.39547  20909662.222    20909667.905
       243.000         207.000
 99  4 24 21 32  0.0000000  0  7G17G24G30G 5G 6G 8G10
  24344942.578    -9803059.03449  -6606675.29045  24344941.188    24344952.804
       211.000         142.000
  21966317.388     9082491.67449   7085439.23647  21966317.375    21966322.688
       235.000         189.000
  20604327.044   -13807528.83149 -10736349.60847  20604327.051    20604331.406
       245.000         211.000
  20824258.439      486116.64649    388373.33847  20824257.886    20824263.262
       244.000         208.000
  22236697.561   -14021033.90249 -10907979.85146  22236697.315    22236702.302
       233.000         186.000
  24079588.289    12634894.13249   9849204.78645  24079588.798    24079601.086
       217.000         151.000
  20910762.903   -10656094.36049  -8269410.13747  20910761.591    20910767.270
       242.000         206.000
 99  4 24 21 32 30.0000000  0  7G17G24G30G 5G 6G 8G10
  24329445.746    -9884494.04249  -6670130.88745  24329443.417    24329454.732
       210.000         142.000
  21979320.729     9150824.97749   7138685.93547  21979320.393    21979326.626
       235.000         189.000
  20601092.864   -13824524.69249 -10749593.13247  20601093.220    20601097.323
       246.000         211.000
  20835191.091      543567.84049    433140.46747  20835190.538    20835196.022
       244.000         208.000
  22224355.408   -14085892.28949 -10958518.81946  22224355.039    22224360.393
       233.000         186.000
  24095750.639    12719826.74849   9915385.74945  24095751.149    24095764.263
       215.000         152.000
  20911976.159   -10649718.46149  -8264441.88147  20911975.121    20911980.728
       242.000         206.000
 99  4 24 21 33  0.0000000  0  7G17G24G30G 5G 6G 8G10
  24313984.900    -9965740.35749  -6733439.43745  24313984.079    24313994.140
       211.000         144.000
  21992346.829     9219277.39749   7192025.46447  21992346.435    21992352.391
       235.000         189.000
  20597980.237   -13840881.73649 -10762338.87947  20597980.295    20597984.777
       246.000         211.000
  20846220.497      601527.49249    478303.79947  20846219.782    20846225.364
       244.000         208.000
  22212030.292   -14150661.14549 -11008988.01346  22212029.672    22212034.946
       233.000         186.000
  24111915.219    12804771.47349   9981576.13745  24111914.819    24111928.252
       214.000         152.000
  20913309.595   -10642711.06549  -8258981.55047  20913308.778    20913314.226
       243.000         206.000
 99  4 24 21 33 30.0000000  0  7G17G24G30G 5G 6G 8G10
  24298564.494   -10046775.37749  -6796583.32745  24298563.085    24298573.069
       211.000         145.000
  22005398.725     9287865.30249   7245470.55947  22005398.590    22005404.550
       236.000         190.000
  20594991.751   -13856586.32049 -10774576.21447  20594991.814    20594996.238
       246.000         211.000
  20857349.941      660013.14949    523877.00247  20857349.248    20857354.923
       244.000         207.000
  22199725.273   -14215323.94149 -11059374.57046  22199724.900    22199730.167
       232.000         187.000
  24128085.268    12889744.33449  10047788.43845  24128085.114    24128099.257
       214.000         152.000
  20914768.188   -10635046.41649  -8253009.07247  20914766.998    20914772.810
       242.000         206.000
 99  4 24 21 34  0.0000000  0  7G17G24G30G 5G 6G 8G10
  24283181.487   -10127611.94349  -6859572.59745  24283179.714    24283189.607
       210.000         146.000
  22018473.483     9356573.43949   7299009.34947  22018473.138    22018478.511
       235.000         189.000
  20592123.848   -13871657.28649 -10786319.82647  20592123.969    20592128.221
       246.000         211.000
  20868575.781      719005.61149    569845.12047  20868575.456    20868580.668
       244.000         207.000
  22187439.595   -14279885.90649 -11109682.55846  22187439.255    22187444.662
       233.000         187.000
  24144259.405    12974738.92949  10114017.68045  24144259.127    24144273.249
       212.000         151.000
  20916350.356   -10626731.48449  -8246529.87547  20916349.063    20916354.640
       242.000         206.000
 99  4 24 21 34 30.0000000  0  7G17G24G30G 5G 6G 8G10
  24267831.746   -10208274.29249  -6922426.13245  24267829.891    24267840.707
       210.000         146.000
  22031569.190     9425391.88049   7352634.07647  22031568.493    22031574.824
       235.000         188.000
  20589371.847   -13886118.93749 -10797588.65047  20589371.904    20589376.293
       246.000         211.000
  20879896.486      778495.86849    616201.13147  20879895.979    20879901.397
       244.000         207.000
  22175167.459   -14344375.88849 -11159934.44746  22175167.161    22175172.848
       232.000         187.000
  24160436.097    13059746.88949  10180257.33945  24160436.618    24160449.984
       214.000         150.000
  20918055.968   -10617768.10949  -8239545.40747  20918054.882    20918060.632
       242.000         206.000
 99  4 24 21 35  0.0000000  0  7G17G24G30G 5G 6G 8G10
  24252515.099   -10288762.63249  -6985144.06145  24252513.914    24252524.477
       212.000         147.000
  22044685.883     9494320.77149   7406344.87847  22044685.941    22044691.156
       235.000         188.000
  20586733.391   -13899984.33449 -10808392.85547  20586733.401    20586737.912
       245.000         211.000
  20891312.157      838485.31349    662946.12047  20891311.416    20891317.213
       244.000         207.000
  22162906.003   -14408810.13249 -11210142.91047  22162905.680    22162910.846
       234.000         188.000
  24176615.550    13144768.27549  10246507.45545  24176614.888    24176628.989
       212.000         149.000
  20919883.099   -10608166.37549  -8232063.51047  20919882.117    20919887.661
       242.000         206.000
 99  4 24 21 35 30.0000000  0  7G17G24G30G 5G 6G 8G10
  24237231.828   -10369074.84549  -7047724.75145  24237229.655    24237241.596
       214.000         149.000
  22057821.980     9563351.00449   7460134.64647  22057821.888    22057827.225
       235.000         188.000
  20584207.705   -13913257.03149 -10818735.22047  20584207.710    20584212.078
       245.000         211.000
  20902821.562      898967.45649    710075.02747  20902821.048    20902826.456
       244.000         207.000
  22150654.538   -14473192.50949 -11260310.97047  22150654.451    22150658.678
       235.000         188.000
  24192796.360    13229797.79849  10312763.89545  24192796.186    24192810.280
       210.000         148.000
  20921830.029   -10597935.48449  -8224091.36847  20921828.939    20921834.645
       243.000         206.000
 99  4 24 21 36  0.0000000  0  7G17G24G30G 5G 6G 8G10
  24221982.422   -10449210.72149  -7110168.04345  24221981.101    24221991.403
       215.000         150.000
  22070976.017     9632475.69049   7513998.01347  22070975.971    22070981.699
       236.000         189.000
  20581793.914   -13925941.66349 -10828619.35447  20581794.110    20581798.284
       246.000         211.000
  20914421.938      959927.72449    757576.49747  20914421.367    20914426.806
       244.000         207.000
  22138409.468   -14537541.19249 -11310452.77347  22138409.008    22138414.065
       234.000         188.000
  24208977.480    13314829.91849  10379022.36445  24208975.805    24208990.552
       210.000         145.000
  20923894.793   -10587085.11149  -8215636.50847  20923893.730    20923899.277
       242.000         206.000
 99  4 24 21 36 30.0000000  0  7G17G24G30G 5G 6G 8G10
  24206768.036   -10529161.91849  -7172467.45845  24206766.604    24206776.347
       215.000         150.000
  22084147.883     9701693.99849   7567934.32947  22084147.353    22084153.525
       235.000         190.000
  20579493.533   -13938030.11949 -10838038.93747  20579493.623    20579497.840
       246.000         211.000
  20926113.552     1021367.45049    805451.57347  20926112.734    20926118.584
       243.000         206.000
  22126172.796   -14601845.27449 -11360559.81647  22126172.440    22126177.433
       233.000         188.000
  24225157.414    13399854.52149  10445275.02045  24225155.814    24225172.009
       208.000         142.000
  20926076.659   -10575618.87349  -8206701.74947  20926075.649    20926081.267
       242.000         206.000
 99  4 24 21 37  0.0000000  0  7G17G24G30G 5G 6G 8G10
  24191588.711   -10608928.94649  -7234623.34345  24191587.692    24191597.460
       215.000         152.000
  22097331.430     9770973.86949   7621918.61847  22097331.266    22097337.482
       235.000         189.000
  20577303.602   -13949538.43849 -10847006.45847  20577303.699    20577307.860
       246.000         211.000
  20937890.576     1083256.01249    853676.39147  20937890.020    20937895.490
       243.000         206.000
  22113944.662   -14666104.32349 -11410631.76547  22113944.415    22113949.544
       233.000         188.000
  24241331.689    13484849.99049  10511504.95245  24241331.565    24241345.110
       211.000         140.000
  20928369.373   -10563570.42049  -8197313.32247  20928368.522    20928373.851
       242.000         206.000
 99  4 24 21 37 30.0000000  0  7G17G24G30G 5G 6G 8G10
  24176445.187   -10688508.20849  -7296632.91945  24176443.616    24176454.898
       215.000         153.000
  22110526.351     9840313.53049   7675949.49447  22110526.631    22110531.946
       235.000         189.000
  20575224.030   -13960466.65049 -10855521.95347  20575223.919    20575228.546
       245.000         211.000
  20949749.605     1145575.46649    902236.96847  20949749.120    20949754.658
       243.000         206.000
  22101729.924   -14730292.41849 -11460648.42847  22101729.401    22101734.387
       233.000         188.000
  24257501.418    13569820.19649  10577715.20045  24257501.741    24257515.718
       207.000         140.000
  20930774.606   -10550931.05949  -8187464.44747  20930773.757    20930779.222
       243.000         206.000
 99  4 24 21 38  0.0000000  0  7G17G24G30G 5G 6G 8G10
  24161336.758   -10767901.62849  -7358497.70345  24161335.845    24161346.855
       215.000         154.000
  22123732.719     9909713.30749   7730027.22147  22123732.159    22123738.324
       235.000         188.000
  20573254.981   -13970814.04249 -10863584.86247  20573255.032    20573259.617
       245.000         211.000
  20961692.284     1208334.66449    951140.19947  20961691.743    20961697.381
       243.000         206.000
  22089533.482   -14794384.78349 -11510590.49547  22089533.214    22089538.465
       234.000         189.000
  24273664.491    13654756.60949  10643899.11245  24273663.462    24273678.873
       202.000         137.000
  20933292.645   -10537698.42549  -8177153.28447  20933291.594    20933296.836
       242.000         206.000
 99  4 24 21 38 30.0000000  0  7G17G24G30G 5G 6G 8G10
  24146264.311   -10847108.33149  -7420216.99945  24146262.940    24146272.915
       216.000         154.000
  22136949.873     9979169.84249   7784149.16847  22136949.289    22136954.903
       235.000         188.000
  20571397.857   -13980573.29849 -10871189.48347  20571397.848    20571402.158
       246.000         211.000
  20973719.175     1271536.20549   1000388.11447  20973718.427    20973724.329
       243.000         205.000
  22077357.644   -14858369.93149 -11560449.01447  22077357.054    22077362.563
       234.000         189.000
  24289820.424    13739656.24649  10710054.30645  24289820.777    24289832.829
       201.000         134.000
  20935925.369   -10523863.55849  -8166372.85347  20935924.401    20935929.993
       242.000         206.000
 99  4 24 21 39  0.0000000  0  7G17G24G30G 5G 6G 8G10
  24131227.212   -10926127.41849  -7481790.09445  24131225.140    24131235.533
       214.000         154.000
  22150178.336    10048685.74149   7838317.38247  22150178.051    22150183.967
       235.000         188.000
  20569653.596   -13989739.54349 -10878332.01647  20569653.715    20569657.956
       246.000         211.000
  20985828.196     1335169.35949   1049972.35747  20985827.704    20985833.265
       243.000         205.000
  22065198.883   -14922264.04149 -11610236.59047  22065198.791    22065203.547
       234.000         190.000
  24305971.322    13824527.85249  10776187.70645  24305969.937    24305985.560
       206.000         133.000
  20938672.823   -10509425.66349  -8155122.52347  20938671.849    20938677.266
       242.000         206.000
 99  4 24 21 39 30.0000000  0  7G17G24G30G 5G 6G 8G10
  24116225.808   -11004960.04649  -7543217.91645  24116224.725    24116234.657
       217.000         155.000
  22163422.126    10118282.00049   7892548.20147  22163421.742    22163427.436
       235.000         188.000
  20568024.347   -13998301.37349 -10885003.57647  20568024.373    20568028.655
       247.000         211.000
  20998022.958     1399253.16049   1099907.74547  20998022.482    20998027.772
       243.000         205.000
  22053057.077   -14986069.53049 -11659955.12747  22053056.747    22053061.797
       236.000         190.000
  24322117.567    13909375.71549  10842302.58845  24322118.768    24322131.098
       208.000         133.000
  20941538.124   -10494368.20849  -8143389.42847  20941537.146    20941542.493
       242.000         206.000
 99  4 24 21 40  0.0000000  0  7G17G24G30G 5G 6G 8G10
  24101257.876   -11083615.94149  -7604508.00445  24101255.998    24101266.312
       213.000         155.000
  22176680.558    10187955.33649   7946839.08247  22176679.914    22176686.249
       234.000         188.000
  20566508.761   -14006265.80349 -10891209.63047  20566508.862    20566513.224
       247.000         212.000
  21010304.068     1463790.71949   1150196.71447  21010303.330    21010309.075
       242.000         204.000
  22040926.578   -15049815.71049 -11709627.43347  22040926.244    22040931.066
       235.000         190.000
  24338257.060    13994187.59949  10908389.45045  24338256.326    24338273.072
       210.000         138.000
  20944518.800   -10478704.73449  -8131184.11247  20944517.922    20944523.098
       242.000         206.000
 99  4 24 21 40 30.0000000  0  7G17G24G30G 5G 6G 8G10
  24086324.247   -11162090.77649  -7665657.02445  24086323.245    24086332.801
       214.000         154.000
  22189957.009    10257723.55349   8001203.90146  22189956.883    22189962.511
       234.000         187.000
  20565106.838   -14013632.80849 -10896950.16147  20565106.913    20565111.197
       247.000         212.000
  21022669.189     1528770.11049   1200829.96847  21022668.539    21022674.327
       242.000         204.000
  22028803.270   -15113523.56849 -11759269.89147  22028803.087    22028807.594
       235.000         190.000
  24354391.358    14078972.92349  10974455.56545  24354390.706    24354404.961
       212.000         142.000
  20947614.149   -10462438.51849  -8118509.12347  20947613.009    20947618.558
       242.000         206.000
 99  4 24 21 41  0.0000000  0  7G17G24G30G 5G 6G 8G10
  24071422.118   -11240401.34349  -7726678.02045  24071421.642    24071431.174
       214.000         155.000
  22203249.330    10327575.21549   8055633.74146  22203248.181    22203254.865
       233.000         185.000
  20563812.853   -14020432.70549 -10902248.78747  20563812.889    20563817.220
       247.000         212.000
  21035113.430     1594164.71249   1251786.75747  21035112.984    21035118.528
       242.000         204.000
  22016685.770   -15177201.43249 -11808888.97347  22016685.086    22016690.275
       236.000         190.000
  24370516.904    14163712.34649  11040485.92945  24370516.303    24370531.161
       212.000         144.000
  20950819.192   -10445595.86049  -8105384.96047  20950817.851    20950823.478
       242.000         206.000
 99  4 24 21 41 30.0000000  0  7G17G24G30G 5G 6G 8G10
  24056549.043   -11318558.98149  -7787579.89345  24056547.439    24056557.377
       213.000         154.000
  22216552.736    10397485.36349   8110109.15746  22216552.161    22216558.175
       234.000         185.000
  20562621.550   -14026692.64849 -10907126.67547  20562621.783    20562625.942
       247.000         212.000
  21047634.867     1659965.09649   1303059.74447  21047634.506    21047640.062
       242.000         204.000
  22004574.585   -15240846.24749 -11858482.30447  22004573.741    22004579.170
       236.000         190.000
  24386627.991    14248374.28749  11106455.94745  24386627.749    24386641.725
       213.000         142.000
  20954130.599   -10428193.97649  -8091825.03547  20954129.718    20954135.225
       243.000         206.000
 99  4 24 21 42  0.0000000  0  7G17G24G30G 5G 6G 8G10
  24041705.363   -11396563.29349  -7848362.26545  24041703.485    24041714.469
       212.000         154.000
  22229865.297    10467443.07649   8164621.63146  22229864.775    22229870.129
       233.000         184.000
  20561533.181   -14032412.42549 -10911583.64947  20561533.267    20561537.730
       247.000         212.000
  21060233.040     1726168.73149   1354646.94547  21060232.265    21060238.465
       242.000         204.000
  21992470.767   -15304451.97549 -11908045.18247  21992470.549    21992475.195
       236.000         191.000
  24402722.083    14332947.98249  11172357.16945  24402721.897    24402736.462
       214.000         142.000
  20957550.693   -10410221.30549  -8077820.33747  20957549.630    20957555.025
       242.000         206.000
 99  4 24 21 42 30.0000000  0  7G17G24G30G 5G 6G 8G10
  24026891.338   -11474409.75649  -7909021.62745  24026889.511    24026900.538
       212.000         154.000
  22243184.141    10537434.10249   8219160.07046  22243184.044    22243188.938
       233.000         184.000
  20560548.380   -14037587.78649 -10915616.40247  20560548.448    20560552.690
       247.000         212.000
  21072906.541     1792768.41649   1406542.75747  21072906.051    21072911.837
       242.000         204.000
  21980377.476   -15368002.16149 -11957564.76747  21980377.671    21980381.910
       236.000         192.000
  24418798.606    14417429.72749  11238186.73545  24418799.257    24418812.581
       215.000         143.000
  20961079.100   -10391679.14449  -8063371.88547  20961078.218    20961083.556
       243.000         206.000
 99  4 24 21 43  0.0000000  0  7G17G24G30G 5G 6G 8G10
  24012117.924   -11552043.36049  -7969515.15545  24012117.327    24012126.523
       211.000         153.000
  22256514.132    10607483.55749   8273744.04046  22256513.716    22256519.428
       233.000         183.000
  20559679.346   -14042154.60549 -10919174.96947  20559679.470    20559683.937
       247.000         212.000
  21085666.236     1859820.52149   1458791.11447  21085665.518    21085671.115
       242.000         203.000
  21968307.529   -15431430.58049 -12006989.47347  21968307.337    21968312.101
       236.000         192.000
  24434865.290    14501859.80449  11303976.08345  24434865.105    24434880.081
       214.000         144.000
  20964726.484   -10372512.27449  -8048436.64347  20964725.523    20964730.913
       242.000         206.000
 99  4 24 21 43 30.0000000  0  7G17G24G30G 5G 6G 8G10
  23997377.300   -11629505.32049  -8029874.91445  23997375.603    23997385.935
       212.000         154.000
  22269848.046    10677553.53249   8328343.99046  22269847.915    22269853.784
       232.000         184.000
  20558922.911   -14046129.65249 -10922272.41747  20558922.824    20558927.292
       247.000         212.000
  21098508.444     1927306.85749   1511377.82147  21098507.847    21098513.667
       242.000         203.000
  21956251.159   -15494787.25549 -12056358.28147  21956250.734    21956255.811
       235.000         192.000
  24450913.565    14586192.08749  11369689.20645  24450913.025    24450928.050
       213.000         141.000
  20968486.912   -10352750.81449  -8033038.08847  20968485.759    20968491.312
       242.000         206.000
 99  4 24 21 44  0.0000000  0  7G17G24G30G 5G 6G 8G10
  23982677.574   -11706751.77549  -8090066.77045  23982675.789    23982686.442
       212.000         154.000
  22283198.381    10747709.30049   8383010.79246  22283197.853    22283203.624
       232.000         184.000
  20558291.824   -14049446.12049 -10924856.68747  20558292.121    20558296.332
       248.000         212.000
  21111442.751     1995277.02549   1564341.54647  21111442.123    21111448.065
       242.000         203.000
  21944217.167   -15558025.49249 -12105634.79147  21944216.645    21944221.874
       236.000         192.000
  24466954.917    14670488.40249  11435374.30445  24466955.729    24466970.385
       212.000         140.000
  20972370.777   -10332340.82549  -8017134.18747  20972369.661    20972375.158
       242.000         206.000
 99  4 24 21 44 30.0000000  0  7G17G24G30G 5G 6G 8G10
  23968017.800   -11783788.76049  -8150095.38245  23968016.358    23968026.301
       211.000         154.000
  22296564.442    10817948.42749   8437742.55746  22296564.580    22296569.798
       232.000         184.000
  20557785.845   -14052105.27749 -10926928.76047  20557786.011    20557790.320
       247.000         212.000
  21124464.327     2063705.76349   1617662.59747  21124463.848    21124470.031
       241.000         202.000
  21932204.821   -15621150.01849 -12154822.70147  21932204.591    21932208.834
       237.000         192.000
  24482988.195    14754742.54949  11501026.52645  24482986.711    24483003.726
       210.000         139.000
  20976373.144   -10311308.28949  -8000745.17947  20976372.280    20976377.528
       242.000         206.000
 99  4 24 21 45  0.0000000  0  7G17G24G30G 5G 6G 8G10
  23953400.525   -11860601.54649  -8209949.29645  23953399.377    23953408.245
       214.000         153.000
  22309950.383    10888292.25449   8492555.90046  22309949.623    22309955.211
       232.000         184.000
  20557407.489   -14054093.38249 -10928477.94747  20557407.733    20557411.961
       247.000         212.000
  21137577.580     2132616.32749   1671359.09447  21137576.890    21137582.743
       241.000         202.000
  21920215.640   -15684153.60149 -12203916.38347  21920215.531    21920220.245
       236.000         192.000
  24499013.807    14838956.77849  11566647.66345  24499013.496    24499030.284
       206.000         144.000
  20980498.396   -10289629.87449  -7983852.89447  20980497.394    20980502.600
       242.000         206.000
 99  4 24 21 45 30.0000000  0  7G17G24G30G 5G 6G 8G10
  23938821.130   -11937216.27649  -8269648.88745  23938820.409    23938828.653
       213.000         153.000
  22323354.757    10958732.84349   8547444.65246  22323354.064    22323360.375
       232.000         184.000
  20557149.373   -14055449.95649 -10929535.02447  20557149.522    20557153.839
       247.000         212.000
  21150777.433     2201981.89749   1725410.14147  21150776.902    21150782.606
       241.000         202.000
  21908244.085   -15747064.29849 -12252937.67447  21908243.559    21908248.710
       236.000         192.000
  24515026.556    14923103.37849  11632216.01845  24515026.850    24515042.933
       208.000         146.000
  20984743.276   -10267322.50749  -7966470.51047  20984742.395    20984747.684
       242.000         205.000
 99  4 24 21 46  0.0000000  0  7G17G24G30G 5G 6G 8G10
  23924281.794   -12013620.39149  -8329184.36945  23924280.475    23924290.261
       212.000         154.000
  22336777.705    11029270.86749   8602409.31646  22336777.840    22336782.890
       233.000         183.000
  20557009.309   -14056186.19949 -10930108.72947  20557009.219    20557013.845
       247.000         212.000
  21164059.800     2271780.67249   1779798.74847  21164058.967    21164065.098
       242.000         202.000
  21896293.318   -15809866.00249 -12301874.04647  21896293.112    21896298.316
       236.000         193.000
  24531028.047    15007188.85549  11697736.82645  24531027.943    24531042.552
       211.000         146.000
  20989108.391   -10244383.44949  -7948595.90447  20989107.613    20989112.822
       242.000         205.000
 99  4 24 21 46 30.0000000  0  6G17G24G30G 5G 6G10
  23909778.901   -12089832.21549  -8388570.01945  23909777.236    23909786.815
       214.000         154.000
  22350212.359    11099870.30949   8657421.84846  22350211.720    22350217.728
       234.000         183.000
  20556979.413   -14056343.14249 -10930231.03447  20556979.569    20556983.831
       247.000         212.000
  21177419.705     2341987.14549   1834505.04247  21177419.218    21177425.176
       242.000         202.000
  21884359.389   -15872579.13749 -12350741.39247  21884359.153    21884364.077
       235.000         193.000
  20993588.503   -10220840.00149  -7930250.34847  20993587.232    20993592.884
       242.000         205.000
 99  4 24 21 47  0.0000000  0  6G17G24G30G 5G 6G10
  23895300.148   -12165918.90149  -8447858.14745  23895300.348    23895308.138
       214.000         154.000
  22363645.297    11170461.34549   8712427.82346  22363645.061    22363650.768
       229.000         182.000
  20557047.063   -14055987.45849 -10929953.88947  20557047.292    20557051.530
       247.000         211.000
  21190848.504     2412555.90049   1889493.63447  21190847.791    21190853.864
       240.000         201.000
  21872430.794   -15935264.22249 -12399586.87847  21872430.382    21872435.813
       234.000         193.000
  20998172.625   -10196750.03049  -7911478.92747  20998171.748    20998177.159
       242.000         205.000
 99  4 24 21 47 30.0000000  0  6G17G24G30G 5G 6G10
  23880850.813   -12241849.56149  -8507024.71645  23880849.962    23880858.412
       214.000         155.000
  22377085.427    11241089.62349   8767462.81446  22377084.996    22377091.328
       232.000         182.000
  20557222.810   -14055064.09549 -10929234.39447  20557222.971    20557227.073
       247.000         211.000
  21204354.288     2483529.07449   1944797.35447  21204353.921    21204359.629
       241.000         201.000
  21860517.565   -15997868.10049 -12448369.09047  21860517.109    21860522.522
       235.000         193.000
  21002866.110   -10172085.87649  -7892260.09947  21002865.389    21002871.018
       243.000         205.000
 99  4 24 21 48  0.0000000  0  6G17G24G30G 5G 6G10
  23866436.208   -12317598.05049  -8566049.33845  23866434.531    23866444.174
       215.000         155.000
  22390536.843    11311777.14049   8822543.96546  22390536.624    22390542.676
       231.000         182.000
  20557514.116   -14053533.17649 -10928041.48547  20557514.339    20557518.411
       247.000         212.000
  21217942.829     2554937.05549   2000439.88947  21217942.044    21217947.600
       241.000         201.000
  21848625.401   -16060362.08649 -12497065.66947  21848625.032    21848629.701
       236.000         194.000
  21007672.162   -10146830.40349  -7872580.50447  21007671.212    21007676.742
       242.000         205.000
 99  4 24 21 48 30.0000000  0  6G17G24G30G 5G 6G10
  23852054.213   -12393175.28649  -8624940.52045  23852052.917    23852061.928
       217.000         156.000
  22403997.463    11382513.21949   8877662.96046  22403997.096    22404003.204
       231.000         182.000
  20557922.035   -14051389.70649 -10926371.25847  20557922.117    20557926.513
       247.000         212.000
  21231614.950     2626784.75449   2056425.05547  21231614.619    21231620.397
       241.000         201.000
  21836753.666   -16122748.61749 -12545678.52747  21836753.670    21836758.545
       236.000         194.000
  21012588.124   -10120996.62949  -7852450.27947  21012587.358    21012592.698
       242.000         205.000
 99  4 24 21 49  0.0000000  0  6G17G24G30G 5G 6G10
  23837711.354   -12468547.13249  -8683671.65445  23837710.187    23837719.191
       216.000         157.000
  22417472.293    11453323.47449   8932839.74946  22417472.107    22417477.432
       231.000         182.000
  20558454.211   -14048592.89149 -10924191.93547  20558454.368    20558458.729
       246.000         212.000
  21245376.137     2699099.90149   2112774.47647  21245375.363    21245381.324
       240.000         200.000
  21824905.123   -16185013.19149 -12594196.35847  21824904.793    21824909.596
       236.000         194.000
  21017618.027   -10094564.43749  -7831853.76047  21017617.336    21017622.285
       242.000         205.000
 99  4 24 21 49 30.0000000  0  6G17G24G30G 5G 6G10
  23823410.571   -12543697.16149  -8742229.93445  23823409.157    23823418.610
       217.000         157.000
  22430961.634    11524209.99149   8988075.97246  22430961.389    22430967.014
       230.000         181.000
  20559109.143   -14045150.94749 -10921509.91247  20559109.385    20559113.835
       247.000         212.000
  21259222.797     2771864.62249   2169474.20447  21259222.536    21259228.258
       241.000         200.000
  21813078.806   -16247160.62149 -12642622.90047  21813078.340    21813083.127
       237.000         194.000
  21022763.693   -10067523.91949  -7810783.22047  21022762.554    21022767.627
       242.000         205.000
 99  4 24 21 50  0.0000000  0  6G17G24G30G 5G 6G10
  23809152.421   -12618624.06149  -8800614.35145  23809150.488    23809160.178
       217.000         159.000
  22444458.200    11595135.24249   9043342.37946  22444457.865    22444463.622
       229.000         180.000
  20559877.709   -14041112.14649 -10918362.80247  20559877.873    20559882.270
       247.000         212.000
  21273146.002     2845031.09149   2226486.98447  21273145.408    21273151.552
       240.000         200.000
  21801269.352   -16309219.61649 -12690980.52747  21801268.976    21801274.075
       236.000         194.000
  21028021.477   -10039893.55749  -7789253.05447  21028020.404    21028025.737
       242.000         205.000
 99  4 24 21 50 30.0000000  0  6G17G24G30G 5G 6G10
  23794940.954   -12693305.08149  -8858807.19045  23794939.246    23794948.957
       218.000         158.000
  22457962.986    11666104.07049   9098642.73346  22457962.496    22457969.208
       229.000         179.000
  20560761.232   -14036469.24249 -10914744.96747  20560761.361    20560765.743
       247.000         212.000
  21287147.647     2918610.57449   2283821.59447  21287147.395    21287153.024
       240.000         200.000
  21789478.767   -16371179.36649 -12739260.81847  21789478.318    21789483.433
       237.000         195.000
  21033393.617   -10011662.68249  -7767254.96647  21033392.805    21033398.283
       242.000         205.000
 99  4 24 21 51  0.0000000  0  6G17G24G30G 5G 6G10
  23780763.417   -12767807.64249  -8916860.97145  23780762.571    23780771.108
       219.000         159.000
  22471464.152    11737053.59249   9153928.04746  22471463.500    22471470.397
       229.000         179.000
  20561744.872   -14031300.03049 -10910717.02347  20561745.160    20561749.715
       247.000         212.000
  21301213.893     2992528.62849   2341420.02647  21301213.177    21301219.333
       240.000         200.000
  21777693.151   -16433113.03649 -12787520.79047  21777692.877    21777697.874
       237.000         195.000
  21038870.319    -9982882.39849  -7744828.76347  21038869.264    21038874.745
       242.000         205.000
 99  4 24 21 51 30.0000000  0  6G17G24G30G 5G 6G10
  23766614.751   -12842159.43649  -8974797.25145  23766613.026    23766622.279
       219.000         160.000
  22484960.807    11807979.07549   9209194.62146  22484961.175    22484967.102
       231.000         179.000
  20562825.939   -14025618.99849 -10906290.25847  20562826.212    20562830.804
       246.000         212.000
  21315341.209     3066768.18149   2399268.97347  21315340.867    21315346.543
       240.000         199.000
  21765915.719   -16495003.79849 -12835747.32447  21765915.440    21765920.575
       237.000         196.000
  21044451.374    -9953553.74449  -7721975.26447  21044450.590    21044455.732
       242.000         205.000
 99  4 24 21 52  0.0000000  0  6G17G24G30G 5G 6G10
  23752493.856   -12916363.65949  -9032618.54645  23752493.431    23752501.746
       219.000         160.000
  22498457.469    11878903.69049   9264460.54146  22498457.382    22498463.757
       231.000         180.000
  20564012.118   -14019385.67149 -10901433.13447  20564012.490    20564016.927
       247.000         212.000
  21329537.458     3141369.92449   2457400.14947  21329536.849    21329542.766
       239.000         199.000
  21754152.701   -16556818.79549 -12883914.82347  21754152.484    21754157.306
       238.000         196.000
  21050138.403    -9923667.92349  -7698687.60347  21050137.473    21050142.887
       242.000         205.000
 99  4 24 21 52 30.0000000  0  6G17G24G30G 5G 6G10
  23738405.556   -12990397.87049  -9090307.35845  23738403.845    23738412.860
       218.000         160.000
  22511966.345    11949893.06849   9319776.90646  22511966.420    22511972.622
       230.000         180.000
  20565317.078   -14012528.10649 -10896089.59247  20565317.397    20565321.815
       247.000         212.000
  21343815.067     3216399.11149   2515864.39247  21343814.735    21343820.661
       239.000         199.000
  21742413.666   -16618507.80049 -12931984.14947  21742413.480    21742417.781
       238.000         196.000
  21055941.075    -9893174.40549  -7674926.41347  21055940.286    21055945.778
       242.000         205.000
 99  4 24 21 53  0.0000000  0  6G17G24G30G 5G 6G10
  23724349.364   -13064262.16049  -9147863.78845  23724348.675    23724356.407
       219.000         160.000
  22525492.334    12020972.43149   9375163.39546  22525492.396    22525498.801
       231.000         180.000
  20566744.643   -14005026.45049 -10890244.15847  20566745.009    20566749.504
       248.000         212.000
  21358173.435     3291852.44649   2574659.14547  21358173.114    21358179.203
       239.000         199.000
  21730703.893   -16680042.96249 -12979933.60447  21730703.737    21730708.116
       237.000         196.000
  21061862.456    -9862057.21149  -7650679.24347  21061861.547    21061866.855
       242.000         205.000
 99  4 24 21 53 30.0000000  0  6G17G24G30G 5G 6G10
  23710329.957   -13137934.03249  -9205270.26045  23710328.671    23710337.953
       218.000         160.000
  22539039.599    12092162.63449   9430636.23846  22539039.478    22539045.474
       231.000         180.000
  20568299.516   -13996855.94349 -10883877.54347  20568299.822    20568303.992
       247.000         212.000
  21372616.868     3367752.74749   2633802.17947  21372616.755    21372622.145
       239.000         198.000
  21719026.446   -16741407.86949 -13027750.38147  21719026.281    21719031.010
       237.000         195.000
  21067901.464    -9830322.22049  -7625950.67047  21067900.536    21067906.090
       241.000         205.000
 99  4 24 21 54  0.0000000  0  6G17G24G30G 5G 6G10
  23696346.923   -13211415.43549  -9262528.32445  23696345.661    23696354.823
       220.000         161.000
  22552603.856    12163443.07049   9486179.40546  22552603.168    22552609.643
       230.000         179.000
  20569978.513   -13988032.95249 -10877002.49447  20569978.780    20569983.351
       247.000         212.000
  21387140.801     3444075.86149   2693274.68247  21387140.231    21387146.050
       239.000         198.000
  21707374.987   -16802636.67449 -13075461.11047  21707374.757    21707379.866
       237.000         196.000
  21074052.507    -9797998.35349  -7600763.23247  21074051.887    21074057.048
       242.000         205.000
 99  4 24 21 54 30.0000000  0  6G17G24G30G 5G 6G10
  23682406.622   -13284671.96949  -9319611.17545  23682404.682    23682413.926
       219.000         161.000
  22566187.124    12234823.65849   9541800.61546  22566187.304    22566193.377
       231.000         178.000
  20571780.158   -13978565.57249 -10869625.32647  20571780.593    20571784.787
       248.000         212.000
  21401742.636     3520808.68749   2753066.44047  21401742.282    21401748.363
       239.000         197.000
  21695751.357   -16863719.51749 -13123058.10347  21695751.234    21695755.804
       238.000         197.000
  21080317.453    -9765075.91949  -7575109.37547  21080316.441    21080321.691
       242.000         205.000
 99  4 24 21 55  0.0000000  0  6G17G24G30G 5G 6G10
  23668503.125   -13357734.18849  -9376542.60445  23668501.837    23668510.633
       219.000         161.000
  22579777.197    12306239.60449   9597449.37446  22579777.465    22579782.385
       231.000         178.000
  20573691.727   -13968520.37749 -10861797.91647  20573691.860    20573696.361
       247.000         212.000
  21416412.074     3597897.24549   2813135.38747  21416411.667    21416417.583
       239.000         197.000
  21684146.843   -16924701.55849 -13170576.55147  21684146.628    21684151.551
       238.000         198.000
  21086684.473    -9731616.78149  -7549037.31047  21086683.373    21086689.043
       241.000         204.000
 99  4 24 21 55 30.0000000  0  6G17G24G30G 5G 6G10
  23654637.870   -13430596.28049  -9433318.08845  23654636.136    23654645.326
       217.000         161.000
  22593370.801    12377674.36049   9653112.78646  22593370.115    22593376.204
       230.000         178.000
  20575712.182   -13957902.79149 -10853524.48947  20575712.551    20575716.622
       247.000         212.000
  21431151.804     3675354.94149   2873491.98147  21431151.563    21431157.146
       239.000         197.000
  21672559.034   -16985595.85449 -13218026.62247  21672558.930    21672563.564
       239.000         198.000
  21093152.430    -9697627.47749  -7522552.12747  21093151.665    21093157.045
       242.000         204.000
 99  4 24 21 56  0.0000000  0  6G17G24G30G 5G 6G10
  23640802.425   -13503300.76749  -9489970.76245  23640800.774    23640809.346
       219.000         161.000
  22606959.462    12449082.92049   9708755.79846  22606959.528    22606964.656
       231.000         178.000
  20577834.010   -13946752.50249 -10844835.96547  20577833.972    20577838.579
       247.000         212.000
  21445953.564     3753138.32049   2934102.35347  21445953.186    21445959.088
       239.000         197.000
                   -582932.76745                                  21660987.080
       238.000         161.000
  21099717.044    -9663130.16349  -7495671.09547  21099716.220    21099721.507
       242.000         204.000
 99  4 24 21 56 30.0000000  0  6G17G24G30G 5G 6G10
  23627006.129   -13575800.26649  -9546463.72945  23627005.405    23627013.727
       218.000         162.000
  22620551.209    12520507.67749   9764411.42346  22620550.619    22620556.542
       231.000         178.000
  20580067.166   -13935017.27749 -10835691.65447  20580067.366    20580071.671
       247.000         212.000
  21460827.876     3831303.34249   2995010.09747  21460827.628    21460833.620
       239.000         196.000
  21649427.233     -853831.99949   -630248.97947  21649427.093    21649431.864
       239.000         193.000
  21106391.025    -9628058.25549  -7468342.32347  21106390.020    21106395.328
       241.000         204.000
 99  4 24 21 57  0.0000000  0  6G17G24G30G 5G 6G10
  23613236.173   -13648160.76649  -9602848.36545  23613235.337    23613244.073
       220.000         162.000
  22634133.973    12591885.50849   9820030.47246  22634133.615    22634139.676
       228.000         177.000
  20582402.992   -13922742.58649 -10826126.97847  20582403.019    20582407.246
       247.000         212.000
  21475766.446     3909805.54249   3056180.58547  21475766.526    21475772.043
       239.000         196.000
  21637882.534     -914497.71349   -677520.94147  21637882.416    21637887.169
       238.000         197.000
  21113163.586    -9592468.04049  -7440609.68547  21113163.171    21113168.414
       242.000         204.000
 99  4 24 21 57 30.0000000  0  6G17G24G30G 5G 6G10
  23599508.798   -13720298.14949  -9659059.16245  23599507.481    23599516.032
       218.000         162.000
  22647726.996    12663318.07649   9875692.17346  22647726.925    22647733.343
       226.000         176.000
  20584861.094   -13909825.05149 -10816061.38247  20584861.257    20584865.477
       247.000         212.000
  21490784.506     3988725.53049   3117676.62447  21490783.970    21490789.636
       238.000         196.000
  21626366.966     -975012.88049   -724675.59147  21626366.848    21626371.660
       239.000         198.000
  21120054.503    -9556256.55249  -7412392.93047  21120053.601    21120058.801
       241.000         204.000
 99  4 24 21 58  0.0000000  0  6G17G24G30G 5G 6G10
  23585822.893   -13792217.48649  -9715100.04645  23585821.236    23585830.715
       220.000         162.000
  22661329.644    12734800.84749   9931393.00846  22661329.588    22661334.901
       227.000         176.000
  20587440.868   -13896268.16049 -10805497.58747  20587441.091    20587445.479
       247.000         212.000
  21505878.560     4068045.57049   3179484.38747  21505877.801    21505884.166
       238.000         195.000
  21614880.293    -1035376.12849   -771711.86447  21614880.090    21614884.904
       240.000         199.000
  21127062.930    -9519427.24249  -7383694.75847  21127061.969    21127067.220
       241.000         204.000
 99  4 24 21 58 30.0000000  0  6G17G24G30G 5G 6G10
  23572178.332   -13863919.56549  -9770971.66046  23572177.351    23572185.528
       220.000         163.000
  22674940.165    12806324.78549   9987125.91246  22674939.386    22674946.131
       227.000         176.000
  20590140.780   -13882080.29749 -10794442.12847  20590141.082    20590145.576
       246.000         212.000
  21521047.566     4147758.99449   3241598.67947  21521047.089    21521053.140
       238.000         195.000
  21603419.785    -1095602.16449   -818641.21947  21603419.564    21603424.386
       239.000         200.000
  21134183.503    -9482008.01349  -7354536.90947  21134182.490    21134187.886
       241.000         203.000
 99  4 24 21 59  0.0000000  0  6G17G24G30G 5G 6G10
  23558573.457   -13935412.74549  -9826680.48146  23558572.620    23558580.794
       219.000         163.000
  22688560.853    12877901.58549  10042900.00646  22688560.876    22688566.804
       229.000         176.000
  20592959.813   -13867266.24349 -10782898.72647  20592959.911    20592964.378
       246.000         211.000
  21536291.945     4227868.45449   3304021.57947  21536292.105    21536297.875
       239.000         195.000
  21591986.188    -1155685.99249   -865459.75547  21591985.749    21591990.808
       239.000         200.000
  21141413.168    -9444015.84149  -7324932.61247  21141412.285    21141417.678
       241.000         203.000
 99  4 24 21 59 30.0000000  0  6G17G24G30G 5G 6G10
  23545002.051   -14006731.16249  -9882253.13946  23545001.465    23545009.423
       221.000         164.000
  22702185.219    12949496.92049  10098688.54846  22702185.214    22702190.963
       229.000         176.000
  20595891.380   -13851860.78749 -10770894.49447  20595891.611    20595896.034
       245.000         211.000
  21551604.337     4308334.86749   3366722.62547  21551603.645    21551610.137
       238.000         195.000
  21580572.686    -1215664.10849   -912195.92547  21580572.351    21580577.170
       239.000         200.000
  21148744.784    -9405487.63649  -7294910.62847  21148743.709    21148749.271
       241.000         203.000
 99  4 24 22  0  0.0000000  0  6G17G24G30G 5G 6G10
  23531462.148   -14077883.18249  -9937696.13846  23531461.338    23531468.739
       221.000         163.000
  22715809.246    13021091.49449  10154476.49546  22715809.043    22715815.215
       228.000         176.000
  20598930.827   -13835888.60049 -10758448.65047  20598930.817    20598935.505
       245.000         211.000
  21566984.144     4389156.20649   3429700.22447  21566983.958    21566989.689
       238.000         195.000
  21569178.486    -1275541.17649   -958853.35247  21569178.259    21569182.648
       240.000         200.000
  21156174.311    -9366445.11649  -7264487.88347  21156173.706    21156178.826
       242.000         203.000
 99  4 24 22  0 30.0000000  0  6G17G24G30G 5G 6G10
  23517960.978   -14148831.98349  -9992980.78246  23517959.585    23517967.292
       219.000         164.000
  22729440.589    13092724.20649  10210294.16446  22729440.516    22729446.095
       228.000         175.000
  20602082.820   -13819324.58449 -10745541.64647  20602083.015    20602087.288
       245.000         211.000
  21582437.354     4470363.21449   3492978.34847  21582436.760    21582442.804
       238.000         195.000
  21557811.979    -1335272.65949  -1005397.34847  21557811.747    21557816.139
       240.000         200.000
  21163709.045    -9326850.28649  -7233634.76347  21163708.090    21163713.556
       241.000         203.000
 99  4 24 22  1  0.0000000  0  6G17G24G30G 5G 6G10
  23504489.893   -14219621.90349 -10048141.62046  23504488.831    23504496.944
       221.000         163.000
  22743070.086    13164347.79249  10266104.71246  22743069.171    22743076.048
       227.000         174.000
  20605337.640   -13802220.43949 -10732213.75747  20605337.712    20605342.328
       245.000         211.000
  21597953.258     4551899.20249   3556512.82947  21597952.728    21597958.426
       238.000         194.000
  21546464.864    -1394902.00449  -1051861.75447  21546464.453    21546469.041
       240.000         200.000
  21171340.904    -9286744.20449  -7202383.26447  21171339.996    21171345.211
       241.000         203.000
 99  4 24 22  1 30.0000000  0  6G17G24G30G 5G 6G10
  23491057.981   -14290206.93949 -10103142.81246  23491057.649    23491064.580
       222.000         164.000
  22756701.487    13235982.07249  10321923.58846  22756701.573    22756706.940
       226.000         174.000
  20608702.156   -13784539.56349 -10718436.46847  20608702.252    20608706.813
       245.000         211.000
  21613535.293     4633782.91549   3620318.25647  21613534.861    21613540.553
       238.000         194.000
  21535143.596    -1454395.61549  -1098220.39047  21535143.271    21535147.948
       240.000         200.000
  21179077.617    -9246087.53449  -7170702.74047  21179076.800    21179082.097
       241.000         203.000
 99  4 24 22  2  0.0000000  0  6G17G24G30G 5G 6G10
  23477661.068   -14360607.83649 -10158000.53846  23477659.834    23477668.248
       221.000         164.000
  22770330.553    13307603.06249  10377732.11846  22770330.648    22770336.494
       228.000         175.000
  20612170.585   -13766312.99049 -10704233.96647  20612170.821    20612175.404
       245.000         211.000
  21629178.528     4715988.83749   3684374.75747  21629178.152    21629183.821
       237.000         193.000
  21523844.049    -1513775.10749  -1144490.10747  21523843.433    21523848.591
       240.000         200.000
  21186916.395    -9204894.54849  -7138604.30347  21186915.534    21186920.756
       241.000         203.000
 99  4 24 22  2 30.0000000  0  6G17G24G30G 5G 6G10
  23464296.125   -14430840.27949 -10212726.96546  23464295.057    23464302.890
       221.000         164.000
  22783955.411    13379201.51449  10433523.07946  22783955.166    22783961.471
       228.000         175.000
  20615742.482   -13747542.82949 -10689607.87947  20615742.488    20615747.197
       245.000         211.000
  21644878.494     4798492.45249   3748663.22747  21644877.653    21644884.133
       237.000         193.000
  21512561.051    -1573067.26649  -1190691.75947  21512560.594    21512565.476
       239.000         201.000
  21194855.662    -9163173.49449  -7106094.38347  21194854.607    21194860.286
       241.000         203.000
 99  4 24 22  3  0.0000000  0  6G17G24G30G 5G 6G10
  23450968.659   -14500875.81649 -10267299.99646  23450967.753    23450976.011
       221.000         164.000
  22797580.984    13450803.96549  10489317.17046  22797581.033    22797586.668
       229.000         175.000
  20619425.418   -13728188.79749 -10674526.83647  20619425.649    20619430.224
       245.000         211.000
  21660641.102     4881325.34349   3813208.27147  21660641.010    21660646.645
       238.000         193.000
  21501299.532    -1632246.60049  -1236805.50647  21501299.400    21501304.112
       240.000         201.000
  21202900.553    -9120897.13149  -7073151.75947  21202899.508    21202904.934
       241.000         203.000
 99  4 24 22  3 30.0000000  0  6G17G24G30G 5G 6G10
  23437678.222   -14570717.32949 -10321721.83346  23437677.024    23437685.111
       220.000         164.000
  22811208.991    13522418.84549  10545120.93346  22811208.159    22811214.223
       228.000         174.000
  20623225.007   -13708221.91449 -10658968.23947  20623225.158    20623229.667
       245.000         211.000
  21676470.366     4964508.34149   3878026.12847  21676470.112    21676476.449
       237.000         193.000
  21490062.982    -1691295.15249  -1282817.34547  21490062.789    21490067.776
       241.000         201.000
  21211056.033    -9078039.82549  -7039756.45247  21211055.332    21211060.368
       241.000         203.000
 99  4 24 22  4  0.0000000  0  6G17G24G30G 5G 6G10
  23424430.999   -14640331.16249 -10375966.25246  23424430.094    23424437.908
       220.000         164.000
  22824848.661    13594096.16549  10600973.36746  22824848.896    22824854.301
       227.000         173.000
  20627148.546   -13687603.97349 -10642902.32647  20627148.812    20627153.230
       245.000         211.000
  21692374.677     5048085.81049   3943151.36747  21692374.012    21692380.922
       237.000         192.000
  21478858.440    -1750175.48649  -1328698.10847  21478858.106    21478862.736
       240.000         201.000
  21219328.735    -9034566.42849  -7005881.07447  21219327.925    21219333.137
       241.000         202.000
 99  4 24 22  4 30.0000000  0  6G17G24G30G 5G 6G10
  23411228.615   -14709710.28949 -10430027.78646  23411228.164    23411235.248
       223.000         165.000
  22838501.312    13665841.14149  10656878.52446  22838500.305    22838506.700
       227.000         172.000
  20631197.031   -13666329.10649 -10626324.52747  20631197.149    20631201.901
       245.000         210.000
  21708352.956     5132052.17449   4008579.63647  21708353.070    21708358.933
       237.000         192.000
  21467686.702    -1808883.21649  -1374444.38247  21467686.610    21467690.685
       240.000         201.000
  21227717.110    -8990485.39549  -6971532.21947  21227715.968    21227721.224
       241.000         202.000
 99  4 24 22  5  0.0000000  0  6G17G24G30G 5G 6G10
  23398061.587   -14778903.30649 -10483944.30046  23398060.380    23398068.472
       220.000         166.000
  22852156.411    13737599.58949  10712794.16746  22852155.912    22852162.341
       225.000         171.000
  20635361.465   -13644445.04749 -10609272.02947  20635361.746    20635365.862
       245.000         210.000
  21724398.475     5216371.43149   4074282.89247  21724398.082    21724404.208
       236.000         191.000
  21456542.423    -1867446.83349  -1420078.34747  21456541.975    21456546.642
       240.000         200.000
  21236209.867    -8945855.53349  -6936755.70147  21236208.879    21236214.438
       241.000         202.000
 99  4 24 22  5 30.0000000  0  6G17G24G30G 5G 6G10
  23384932.652   -14847895.53149 -10537704.35346  23384932.048    23384939.841
       222.000         166.000
  22865816.312    13809383.28149  10768729.47446  22865816.675    22865821.660
       226.000         171.000
  20639642.504   -13621948.13249 -10591741.98047  20639642.453    20639646.900
       245.000         210.000
  21740512.166     5301049.60949   4140265.81747  21740511.747    21740517.831
       235.000         191.000
  21445428.609    -1925850.13849  -1465587.39647  21445428.369    21445432.990
       240.000         201.000
  21244807.566    -8900674.72149  -6901549.87347  21244806.477    21244811.858
       241.000         202.000
 99  4 24 22  6  0.0000000  0  6G17G24G30G 5G 6G10
  23371839.460   -14916700.18649 -10591318.24146  23371838.373    23371846.379
       221.000         166.000
  22879476.939    13881170.33849  10824667.41146  22879476.418    22879482.618
       226.000         171.000
  20644030.405   -13598889.29749 -10573774.07647  20644030.695    20644035.253
       245.000         210.000
  21756685.477     5386040.82249   4206492.66947  21756685.520    21756691.195
       236.000         191.000
  21434341.158    -1984114.77049  -1510988.38747  21434340.725    21434345.500
       241.000         201.000
  21253502.266    -8854983.36149  -6865946.21147  21253501.357    21253506.669
       241.000         202.000
 99  4 24 22  6 30.0000000  0  6G17G24G30G 5G 6G10
  23358780.897   -14985322.53549 -10644790.08846  23358779.743    23358787.366
       221.000         166.000
  22893136.454    13952951.76649  10880600.95146  22893136.371    22893142.752
       226.000         172.000
  20648526.393   -13575262.76049 -10555363.80847  20648526.832    20648531.190
       245.000         210.000
  21772917.834     5471341.55949   4272960.70747  21772917.333    21772923.753
       235.000         190.000
  21423281.757    -2042231.81249  -1556274.37747  21423281.771    21423286.040
       241.000         202.000
  21262294.936    -8808777.49049  -6829941.63747  21262294.150    21262299.378
       240.000         202.000
 99  4 24 22  7  0.0000000  0  6G17G24G30G 5G 6G10
  23345765.839   -15053716.31149 -10698083.82046  23345764.943    23345772.713
       220.000         166.000
  22906804.983    14024779.82449  10936570.84046  22906804.149    22906811.049
       226.000         172.000
  20653140.596   -13551015.33849 -10536469.72647  20653140.908    20653145.323
       245.000         210.000
  21789218.307     5557001.26749   4339708.46547  21789217.469    21789224.546
       235.000         190.000
  21412262.741    -2100137.60049  -1601395.74747  21412262.449    21412267.263
       241.000         202.000
  21271196.372    -8762000.11449  -6793491.73247  21271195.738    21271200.964
       241.000         202.000
 99  4 24 22  7 30.0000000  0  6G17G24G30G 5G 6G10
  23332788.460   -15121911.54349 -10751222.84146  23332787.587    23332795.134
       220.000         165.000
  22920477.421    14096628.78849  10992557.01146  22920477.204    22920483.983
       227.000         173.000
  20657865.151   -13526187.74249 -10517123.56447  20657865.397    20657869.665
       245.000         210.000
  21805578.379     5642974.21849   4406700.30447  21805578.312    21805584.299
       235.000         190.000
  21401272.997    -2157888.87349  -1646396.71547  21401272.537    21401277.408
       240.000         202.000
  21280202.476    -8714672.91449  -6756613.38947  21280201.503    21280207.068
       240.000         201.000
 99  4 24 22  8  0.0000000  0  6G17G24G30G 5G 6G10
  23319844.932   -15189930.19849 -10804224.26346  23319844.168    23319852.022
       219.000         166.000
  22934152.040    14168488.86449  11048551.83546  22934152.926    22934158.297
       226.000         173.000
  20662698.392   -13500788.71749 -10497332.13247  20662698.711    20662702.915
       245.000         210.000
  21821997.256     5729255.09049   4473932.07747  21821996.746    21822003.098
       233.000         189.000
  21390307.794    -2215510.96149  -1691297.02347  21390307.508    21390311.872
       241.000         202.000
  21289310.876    -8666807.93549  -6719315.99747  21289310.157    21289315.392
       240.000         201.000
 99  4 24 22  8 30.0000000  0  6G17G24G30G 5G 6G10
  23306933.534   -15257778.97549 -10857093.30646  23306932.346    23306940.010
       220.000         166.000
  22947827.019    14240350.59049  11104547.94746  22947826.790    22947833.251
       225.000         171.000
  20667641.050   -13474815.27649 -10477093.10147  20667641.090    20667645.619
       246.000         210.000
  21838474.655     5815844.63549   4541404.38447  21838474.239    21838480.808
       236.000         189.000
  21379365.337    -2273014.22749  -1736104.73747  21379364.964    21379369.534
       241.000         202.000
  21298518.604    -8618421.07549  -6681611.94847  21298517.353    21298522.682
       240.000         201.000
 99  4 24 22  9  0.0000000  0  6G17G24G30G 5G 6G10
  23294059.861   -15325429.79049 -10909808.10746  23294059.138    23294066.711
       219.000         167.000
  22961505.990    14312233.53749  11160560.57846  22961505.960    22961512.221
       225.000         170.000
  20672693.604   -13448263.81649 -10456403.66847  20672693.882    20672698.067
       245.000         211.000
  21855014.408     5902761.20049   4609131.49747  21855013.549    21855020.411
       233.000         189.000
  21368447.320    -2330388.92049  -1780812.26947  21368447.122    21368451.591
       242.000         203.000
  21307824.904    -8569516.04349  -6643504.13447  21307823.990    21307829.134
       240.000         201.000
 99  4 24 22  9 30.0000000  0  6G17G24G30G 5G 6G10
  23281220.494   -15392900.46949 -10962382.53646  23281219.387    23281227.124
       221.000         168.000
  22975184.518    14384114.88249  11216571.98246  22975184.141    22975190.866
       225.000         170.000
  20677852.023   -13421156.10149 -10435280.78247  20677852.111    20677856.677
       245.000         211.000
  21871613.397     5989989.46049   4677101.50047  21871613.597    21871619.509
       236.000         188.000
  21357547.852    -2387665.78849  -1825443.57247  21357547.747    21357552.482
       241.000         203.000
  21317223.316    -8520126.86449  -6605019.05047  21317222.274    21317227.623
       240.000         201.000
 99  4 24 22 10  0.0000000  0  6G17G24G30G 5G 6G10
  23268408.332   -15460228.20449 -11014845.59146  23268407.517    23268415.333
       221.000         169.000
  22988853.912    14455947.62649  11272545.50646  22988854.167    22988859.538
       226.000         170.000
  20683109.756   -13393526.42449 -10413751.17747  20683109.961    20683114.352
       245.000         211.000
  21888263.175     6077483.98749   4745278.98247  21888262.391    21888269.367
       234.000         188.000
  21346664.773    -2444856.67249  -1870007.86447  21346664.202    21346669.062
       241.000         203.000
  21326703.686    -8470307.18149  -6566198.52247  21326703.001    21326708.062
       240.000         201.000
 99  4 24 22 10 30.0000000  0  6G17G24G30G 5G 6G10
  23255635.809   -15527347.83749 -11067146.48746  23255635.668    23255643.651
       223.000         170.000
  23002522.952    14527778.23949  11328517.38446  23002521.766    23002528.655
       227.000         171.000
  20688477.303   -13365319.75749 -10391771.97147  20688477.415    20688482.150
       245.000         211.000
  21904971.135     6165284.72049   4813695.05947  21904970.904    21904977.251
       234.000         188.000
  21335811.048    -2501892.87449  -1914451.63447  21335810.636    21335815.462
       240.000         203.000
  21336275.130    -8420008.84849  -6527005.01947  21336274.325    21336279.317
       240.000         201.000
 99  4 24 22 11  0.0000000  0  6G17G24G30G 5G 6G10
  23242898.104   -15594284.84149 -11119305.07846  23242897.247    23242904.935
       222.000         170.000
  23016187.033    14599582.67649  11384468.86146  23016186.216    23016191.955
       226.000         171.000
  20693950.565   -13336557.66549 -10369359.96647  20693950.966    20693955.502
       245.000         211.000
  21921732.660     6253367.15649   4882330.63647  21921732.450    21921738.524
       233.000         188.000
  21324982.949    -2558794.61349  -1958790.62447  21324982.492    21324987.194
       241.000         203.000
  21345935.100    -8369245.65249  -6487449.28347  21345934.507    21345939.331
       241.000         201.000
 99  4 24 22 11 30.0000000  0  6G17G24G30G 5G 6G10
  23230198.724   -15661020.22049 -11171306.56146  23230197.919    23230205.407
       223.000         172.000
  23029851.149    14671387.97349  11440421.00746  23029851.715    23029857.128
       226.000         171.000
  20699536.772   -13307201.89049 -10346485.35047  20699536.909    20699541.617
       245.000         210.000
  21938551.342     6341749.30649   4951199.77746  21938550.837    21938557.357
       233.000         187.000
  21314188.194    -2615521.29849  -2002993.20747  21314187.775    21314192.888
       241.000         203.000
  21355691.915    -8317973.40549  -6447496.87747  21355691.073    21355695.998
       240.000         201.000
 99  4 24 22 12  0.0000000  0  6G17G24G30G 5G 6G10
  23217536.101   -15727561.85649 -11223157.05946  23217535.495    23217542.981
       222.000         171.000
  23043515.053    14743192.52249  11496372.56046  23043514.067    23043520.232
       224.000         170.000
  20705235.566   -13277254.55149 -10323149.77747  20705235.484    20705240.352
       245.000         210.000
  21955426.470     6430428.79149   5020300.58946  21955426.215    21955432.389
       233.000         187.000
  21303428.837    -2672062.12149  -2047050.96847  21303428.463    21303433.236
       241.000         203.000
  21365547.944    -8266179.40449  -6407137.91947  21365547.110    21365552.142
       239.000         201.000
 99  4 24 22 12 30.0000000  0  6G17G24G30G 5G 6G10
  23204911.514   -15793904.23049 -11274852.30446  23204911.174    23204918.530
       223.000         172.000
  23057180.927    14815008.52349  11552333.03746  23057180.286    23057187.267
       222.000         169.000
  20711047.627   -13246711.55049 -10299350.05647  20711047.800    20711052.435
       245.000         210.000
  21972360.945     6519419.43349   5089643.86646  21972360.142    21972366.812
       233.000         186.000
  21292705.030    -2728415.84749  -2090962.94047  21292704.707    21292709.424
       241.000         204.000
  21375506.155    -8213848.82149  -6366360.84047  21375505.286    21375510.559
       240.000         201.000
 99  4 24 22 13  0.0000000  0  6G17G24G30G 5G 6G10
  23192326.649   -15860037.84349 -11326384.88046  23192326.786    23192333.038
       224.000         172.000
  23070851.592    14886848.78049  11608312.41546  23070850.942    23070857.242
       222.000         168.000
  20716974.796   -13215564.37149 -10275079.54547  20716974.967    20716979.546
       245.000         210.000
  21989358.486     6608742.28549   5159246.00446  21989358.224    21989364.554
       233.000         186.000
  21282020.553    -2784563.32149  -2134714.18647  21282020.224    21282025.009
       241.000         204.000
  21385572.878    -8160947.81449  -6325139.28747  21385572.286    21385577.196
       240.000         200.000
 99  4 24 22 13 30.0000000  0  6G17G24G30G 5G 6G10
  23179781.841   -15925960.99049 -11377753.44246  23179781.101    23179788.511
       223.000         172.000
  23084527.701    14958717.71249  11664314.12946  23084526.695    23084533.759
       223.000         167.000
  20723016.677   -13183814.05949 -10250339.06047  20723016.984    20723021.479
       246.000         211.000
  22006419.235     6698396.78849   5229106.56746  22006418.873    22006425.320
       232.000         185.000
  21271376.392    -2840498.59549  -2178300.08247  21271376.153    21271381.267
       241.000         205.000
  21395749.099    -8107471.27349  -6283469.25447  21395748.382    21395753.300
       240.000         200.000
 99  4 24 22 14  0.0000000  0  6G17G24G30G 5G 6G10
  23167279.073   -15991663.55249 -11428950.13146  23167278.107    23167286.139
       223.000         173.000
  23098209.343    15030614.71249  11720337.73646  23098209.163    23098215.221
       224.000         166.000
  20729173.573   -13151459.49549 -10225127.72547  20729173.792    20729178.293
       245.000         211.000
  22023545.017     6788392.44749   5299232.97646  22023545.357    22023551.671
       234.000         185.000
  21260772.248    -2896223.45049  -2221722.01947  21260772.014    21260776.534
       242.000         205.000
  21406035.074    -8053418.18949  -6241349.96947  21406034.021    21406039.535
       240.000         200.000
 99  4 24 22 14 30.0000000  0  6G17G24G30G 5G 6G10
  23154820.373   -16057133.97749 -11479965.92946  23154820.172    23154827.484
       226.000         173.000
  23111894.939    15102532.24249  11776377.32746  23111895.168    23111900.861
       224.000         166.000
  20735445.802   -13118498.75849 -10199444.05647  20735446.109    20735450.741
       245.000         211.000
  22040733.193     6878716.40149   5369615.19546  22040732.339    22040738.958
       232.000         184.000
  21250208.417    -2951737.00249  -2264979.31247  21250208.167    21250212.642
       242.000         205.000
  21416429.664    -7998794.12049  -6198785.76647  21416428.575    21416434.284
       240.000         200.000
 99  4 24 22 15  0.0000000  0  6G17G24G30G 5G 6G10
  23142395.091   -16122429.51049 -11530845.44946  23142394.614    23142401.449
       224.000         174.000
  23125574.616    15174419.73949  11832393.52246  23125574.758    23125580.188
       224.000         165.000
  20741822.306   -13084990.27649 -10173333.56447  20741822.635    20741826.917
       246.000         211.000
  22057973.407     6969314.44749   5440210.99146  22057972.713    22057979.652
       232.000         184.000
  21239675.402    -3007087.90849  -2308109.86347  21239675.079    21239679.912
       242.000         205.000
  21426923.432    -7943649.12549  -6155815.64147  21426922.150    21426928.038
       240.000         199.000
 99  4 24 22 15 30.0000000  0  6G17G24G30G 5G 6G10
  23130004.796   -16187539.91849 -11581580.72146  23130003.622    23130010.945
       225.000         173.000
  23139251.077    15246289.20649  11888395.68046  23139250.930    23139256.472
       224.000         165.000
  20748303.932   -13050929.21949 -10146792.49947  20748304.208    20748308.520
       245.000         211.000
  22075265.272     7060183.85049   5511018.21846  22075264.412    22075271.497
       231.000         184.000
  21229172.652    -3062280.19749  -2351116.82147  21229172.210    21229177.025
       241.000         205.000
  21437512.602    -7888002.27249  -6112454.45647  21437511.719    21437517.516
       239.000         199.000
 99  4 24 22 16  0.0000000  0  6G17G24G30G 5G 6G10
  23117652.177   -16252453.10249 -11632162.29146  23117651.273    23117658.514
       224.000         173.000
  23152923.524    15318138.66349  11944382.22646  23152922.575    23152929.117
       222.000         165.000
  20754892.212   -13016307.68949 -10119814.70247  20754892.477    20754897.017
       245.000         211.000
  22092609.379     7151327.58349   5582039.22046  22092609.115    22092615.572
       232.000         184.000
  21218701.207    -3117307.57449  -2393995.26947  21218700.759    21218705.812
       241.000         205.000
  21448193.615    -7831872.98849  -6068717.35447  21448192.725    21448197.995
       239.000         199.000
 99  4 24 22 16 30.0000000  0  6G17G24G30G 5G 6G10
  23105340.381   -16317151.37949 -11682576.42746  23105339.996    23105346.983
       225.000         173.000
  23166595.214    15389984.38149  12000365.85146  23166594.580    23166601.512
       222.000         164.000
  20761588.435   -12981119.05649 -10092395.00847  20761588.671    20761593.319
       245.000         211.000
  22110007.845     7242756.70049   5653282.59546  22110007.810    22110014.358
       231.000         184.000
  21208263.464    -3172158.34449  -2436736.10647  21208263.335    21208267.810
       242.000         206.000
  21458966.699    -7775260.22649  -6024603.52147  21458966.007    21458971.370
       239.000         198.000
 99  4 24 22 17  0.0000000  0  6G17G24G30G 5G 6G10
  23093072.002   -16381622.04949 -11732813.20346  23093071.349    23093078.317
       225.000         173.000
  23180270.604    15461848.78749  12056364.03946  23180270.003    23180277.946
       220.000         165.000
  20768394.704   -12945351.91249 -10064524.52247  20768394.799    20768399.510
       246.000         211.000
  22127463.607     7334486.99049   5724760.65346  22127462.956    22127470.462
       230.000         183.000
  21197860.755    -3226824.89349  -2479333.39747  21197860.537    21197865.321
       244.000         207.000
  21469831.403    -7718165.50249  -5980114.12547  21469830.666    21469836.186
       239.000         198.000
 99  4 24 22 17 30.0000000  0  6G17G24G30G 5G 6G10
  23080836.391   -16445920.14549 -11782915.49746  23080835.650    23080841.928
       225.000         172.000
  23193936.474    15533663.02149  12112323.12446  23193937.391    23193942.511
       223.000         165.000
  20775301.240   -12909058.06449 -10036243.61947  20775301.208    20775306.087
       246.000         211.000
  22144963.913     7426451.30649   5796421.06846  22144963.431    22144969.470
       231.000         183.000
  21187480.263    -3281374.84149  -2521839.83547  21187480.073    21187484.372
       244.000         206.000
  21480771.885    -7660672.82149  -5935314.62847  21480771.381    21480776.304
       238.000         198.000
 99  4 24 22 18  0.0000000  0  6G17G24G30G 5G 6G10
  23068630.269   -16510062.92549 -11832896.78146  23068629.660    23068635.420
       225.000         173.000
  23207592.328    15605423.61249  12168240.40946  23207592.248    23207598.377
       223.000         166.000
  20782305.763   -12872249.24649 -10007561.44347  20782305.979    20782310.491
       246.000         211.000
  22162505.417     7518631.83149   5868249.95746  22162504.857    22162511.942
       231.000         183.000
  21177123.652    -3335799.35849  -2564248.53047  21177123.323    21177127.831
       243.000         206.000
  21491787.532    -7602785.20749  -5890207.40047  21491786.656    21491792.073
       239.000         197.000
 99  4 24 22 18 30.0000000  0  6G17G24G30G 5G 6G10
  23056456.031   -16574038.47749 -11882747.75646  23056454.788    23056462.648
       224.000         173.000
  23221243.620    15677161.58749  12224140.09746  23221243.837    23221248.820
       223.000         166.000
  20789409.787   -12834917.31649  -9978471.64247  20789410.011    20789414.518
       246.000         211.000
  22180089.395     7611035.42149   5940252.67446  22180088.884    22180095.762
       230.000         183.000
  21166794.932    -3390076.99549  -2606542.77847  21166794.513    21166799.175
       244.000         206.000
  21502886.674    -7544459.19449  -5844758.55947  21502885.842    21502890.563
       239.000         197.000
 99  4 24 22 19  0.0000000  0  7G17G24G30G 5G 6G26G10
  23044324.156   -16637791.04149 -11932424.96746  23044322.907    23044331.389
       226.000         173.000
  23234904.599    15748949.86349  12280078.96446  23234904.270    23234910.369
       223.000         166.000
  20796624.038   -12797006.25749  -9948930.57747  20796624.426    20796628.863
       245.000         211.000
  22197725.248     7703712.63549   6012468.58546  22197724.505    22197731.507
       230.000         182.000
  21156508.764    -3444131.19549  -2648662.91447  21156508.454    21156513.196
       244.000         207.000
  24269039.326    -7904227.78149  -5855528.33745  24269039.254    24269051.926
       207.000         134.000
  21514083.328    -7485620.20549  -5798909.99547  21514082.670    21514087.701
       239.000         197.000
 99  4 24 22 19 30.0000000  0  7G17G24G30G 5G 6G26G10
  23032218.401   -16701407.29949 -11981995.97346  23032217.438    23032224.986
       224.000         173.000
  23248560.404    15820711.68949  12335997.22346  23248559.847    23248565.755
       222.000         166.000
  20803933.809   -12758593.24749  -9918998.38147  20803933.906    20803938.657
       245.000         211.000
  22215398.747     7796587.04749   6084838.15646  22215398.889    22215405.046
       231.000         182.000
  21146253.312    -3498023.62149  -2690656.99147  21146253.034    21146257.831
       244.000         208.000
  24253145.424    -7987749.19949  -5920609.62145  24253145.217    24253158.666
       207.000         134.000
  21525365.127    -7426333.98349  -5752712.94347  21525364.370    21525369.380
       239.000         197.000
 99  4 24 22 20  0.0000000  0  7G17G24G30G 5G 6G26G10
  23020143.125   -16764863.20249 -12031442.03646  23020142.277    23020149.603
       225.000         173.000
  23262214.301    15892463.42949  12391907.62846  23262213.804    23262220.120
       222.000         165.000
  20811341.834   -12719663.81249  -9888663.77547  20811341.898    20811346.341
       245.000         211.000
  22233114.241     7889681.79249   6157379.42046  22233113.955    22233120.313
       230.000         182.000
  21136032.274    -3551735.51549  -2732510.39647  21136032.030    21136036.847
       244.000         208.000
  24237241.843    -8071321.65549  -5985730.69245  24237241.707    24237253.200
       202.000         132.000
  21536739.329    -7366562.41749  -5706137.69747  21536738.676    21536743.560
       239.000         197.000
 99  4 24 22 20 30.0000000  0  8G17G24G30G 5G 6G13G26G10
  23008090.688   -16828198.70549 -12080794.26946  23008089.541    23008096.956
       225.000         173.000
  23275853.460    15964137.39249  12447757.40746  23275852.682    23275859.833
       221.000         164.000
  20818839.818   -12680261.40249  -9857960.61947  20818839.947    20818844.656
       245.000         210.000
  22250865.392     7982964.53649   6230067.17946  22250864.547    22250872.547
       230.000         181.000
  21125834.889    -3605323.20549  -2774267.01547  21125834.469    21125839.539
       244.000         208.000
  24752327.242   -10137733.99149  -7427320.51244  24752328.020    24752335.181
       209.000         131.000
  24221318.212    -8154998.42449  -6050933.03244  24221317.181    24221331.533
       201.000         131.000
  21548197.469    -7306349.76649  -5659218.75147  21548196.624    21548201.630
       239.000         197.000
 99  4 24 22 21  0.0000000  0  8G17G24G30G 5G 6G13G26G10
  22996076.326   -16891333.81649 -12129990.35246  22996075.298    22996082.370
       224.000         173.000
  23289489.876    16035797.33949  12503596.27746  23289490.211    23289495.899
       221.000         163.000
  20826447.669   -12640282.09849  -9826807.93347  20826447.750    20826452.509
       245.000         210.000
  22268670.842     8076532.85749   6302977.45646  22268670.450    22268677.462
       230.000         181.000
  21115677.014    -3658702.83349  -2815861.50347  21115676.871    21115681.119
       244.000         208.000
  24750862.602   -10145431.40849  -7433318.44344  24750862.724    24750869.366
       206.000         131.000
  24205391.023    -8238695.20149  -6116150.97444  24205390.377    24205401.199
       204.000         131.000
  21559752.398    -7245628.05649  -5611903.13147  21559751.375    21559756.635
       239.000         197.000
 99  4 24 22 21 30.0000000  0  8G17G24G30G 5G 6G13G26G10
  22984112.132   -16954205.78949 -12178981.39146  22984111.631    22984117.564
       225.000         173.000
  23303131.703    16107485.06849  12559456.80046  23303131.458    23303138.224
       222.000         164.000
  20834180.995   -12599643.16249  -9795141.25247  20834181.436    20834186.025
       245.000         210.000
  22286545.650     8170465.20349   6376171.38146  22286545.156    22286552.194
       229.000         180.000
  21105567.217    -3711830.20849  -2857259.43947  21105567.030    21105571.675
       244.000         208.000
  24749495.233   -10152616.24649  -7438916.98745  24749495.731    24749500.097
       209.000         132.000
  24189468.267    -8322368.27549  -6181350.40945  24189467.920    24189480.500
       206.000         132.000
  21571414.558    -7184343.03749  -5564148.57947  21571413.781    21571418.954
       239.000         197.000
 99  4 24 22 22  0.0000000  0  8G17G24G30G 5G 6G13G26G10
  22972198.529   -17016811.77449 -12227765.17646  22972198.088    22972204.663
       226.000         174.000
  23316777.374    16179193.49749  12615333.43146  23316776.362    23316783.871
       220.000         164.000
  20842039.397   -12558347.34849  -9762962.71547  20842039.536    20842044.043
       245.000         210.000
  22304488.303     8264753.96849   6449643.04446  22304487.555    22304494.952
       229.000         180.000
  21095504.348    -3764710.98849  -2898465.21947  21095504.346    21095508.693
       245.000         208.000
  24748222.861   -10159303.10049  -7444127.43945  24748222.302    24748228.229
       207.000         133.000
  24173549.311    -8406021.40149  -6246534.27844  24173546.662    24173558.044
       204.000         131.000
  21583183.920    -7122494.78549  -5515955.14447  21583183.153    21583188.475
       239.000         197.000
 99  4 24 22 22 30.0000000  0  8G17G24G30G 5G 6G13G26G10
  22960328.538   -17079189.27749 -12276370.91346  22960328.166    22960333.972
       225.000         174.000
  23330425.457    16250914.67749  12671220.01046  23330425.433    23330431.484
       223.000         165.000
  20850018.097   -12516419.11449  -9730291.38647  20850018.093    20850022.941
       245.000         210.000
  22322492.635     8359366.86949   6523367.28346  22322492.130    22322499.884
       229.000         180.000
  21085486.862    -3817353.22549  -2939485.11647  21085486.511    21085491.170
       244.000         208.000
  24747041.971   -10165508.46849  -7448962.75045  24747042.559    24747048.970
       208.000         132.000
  24157632.931    -8489659.96949  -6311706.81245  24157633.019    24157645.867
       202.000         133.000
  21595053.426    -7060120.25949  -5467351.63147  21595052.686    21595057.928
       238.000         197.000
 99  4 24 22 23  0.0000000  0  8G17G24G30G 5G 6G13G26G10
  22948496.212   -17141367.69849 -12324821.52546  22948495.387    22948501.666
       225.000         174.000
  23344075.607    16322646.06949  12727114.55046  23344074.593    23344082.482
       221.000         165.000
  20858110.446   -12473893.24449  -9697154.36647  20858110.601    20858115.226
       245.000         210.000
  22340550.777     8454262.51049   6597311.83346  22340550.099    22340557.336
       229.000         180.000
  21075510.713    -3869777.87049  -2980335.45847  21075510.408    21075514.985
       244.000         209.000
  24745949.083   -10171251.22049  -7453437.57144  24745949.246    24745955.149
       207.000         130.000
  24141717.460    -8573294.56249  -6376876.24545  24141716.947    24141730.262
       206.000         136.000
  21607015.938    -6997256.89849  -5418367.19847  21607015.245    21607020.456
       238.000         196.000
 99  4 24 22 23 30.0000000  0  8G17G24G30G 5G 6G13G26G10
  22936706.559   -17203321.79649 -12373097.33946  22936705.869    22936712.674
       225.000         174.000
  23357735.172    16394427.58149  12783048.14446  23357734.937    23357742.238
       223.000         164.000
  20866313.806   -12430784.51949  -9663563.17347  20866314.211    20866318.608
       245.000         210.000
  22358661.964     8549436.77749   6671473.49846  22358661.371    22358668.943
       229.000         179.000
  21065580.716    -3921960.11649  -3020996.92247  21065580.592    21065584.978
       245.000         208.000
  24744950.854   -10176497.03849  -7457525.18444  24744950.127    24744956.780
       205.000         130.000
  24125807.756    -8656900.85949  -6442023.60445  24125807.291    24125818.571
       209.000         138.000
  21619073.354    -6933894.57249  -5368993.96447  21619072.747    21619078.126
       239.000         196.000
 99  4 24 22 24  0.0000000  0  8G17G24G30G 5G 6G13G26G10
  22924952.221   -17265090.62249 -12421228.79046  22924950.887    22924958.256
       225.000         175.000
  23371397.688    16466223.63449  12838993.07045  23371397.408    23371402.550
       220.000         162.000
  20874614.192   -12387165.76249  -9629574.55447  20874614.445    20874618.801
       245.000         210.000
  22376812.985     8644820.79249   6745798.59846  22376812.545    22376819.715
       229.000         178.000
  21055692.885    -3973921.21749  -3061486.06747  21055692.717    21055696.939
       245.000         209.000
  24744042.363   -10181270.20649  -7461244.49345  24744043.045    24744049.111
       207.000         132.000
  24109898.073    -8740505.29649  -6507169.49245  24109897.425    24109909.674
       211.000         141.000
  21631214.940    -6870090.28049  -5319276.34247  21631213.922    21631219.397
       238.000         196.000
 99  4 24 22 24 30.0000000  0  8G17G24G30G 5G 6G13G26G10
  22913230.105   -17326690.08849 -12469228.28646  22913229.092    22913235.817
       224.000         175.000
  23385057.862    16538009.54249  12894930.10545  23385057.092    23385064.639
       218.000         159.000
  20883005.727   -12343068.29749  -9595212.91547  20883005.876    20883010.645
       245.000         210.000
  22394999.293     8740390.96149   6820268.74846  22394998.975    22395006.339
       228.000         177.000
  21045843.841    -4025678.11549  -3101816.09647  21045843.546    21045847.722
       245.000         209.000
  24743224.815   -10185566.10149  -7464591.90145  24743224.072    24743230.554
       208.000         133.000
  24093986.728    -8824119.27649  -6572322.82945  24093984.771    24093997.796
       210.000         143.000
  21643434.099    -6805878.38049  -5269241.10647  21643433.013    21643438.338
       238.000         196.000
 99  4 24 22 25  0.0000000  0  9G17G24G30G23G 5G 6G13G26G10
  22901529.572   -17388176.50349 -12517139.66546  22901528.792    22901535.967
       226.000         175.000
  23398699.705    16609697.98149  12950791.18645  23398700.047    23398705.867
       218.000         158.000
  20891473.412   -12298570.36549  -9560539.22847  20891473.334    20891478.073
       244.000         210.000
  24594817.109    -7044824.16949  -5098829.60445  24594815.174    24594831.266
       213.000         147.000
  22413205.916     8836066.69449   6894821.14946  22413206.270    22413213.141
       229.000         177.000
  21036018.091    -4077312.69549  -3142050.81647  21036017.788    21036022.453
       244.000         209.000
  24742483.727   -10189460.62649  -7467626.58345  24742485.624    24742489.584
       206.000         133.000
  24078057.886    -8907824.25949  -6637547.04345  24078057.158    24078069.149
       212.000         145.000
  21655717.451    -6741328.61849  -5218942.59347  21655716.739    21655721.519
       238.000         195.000
 99  4 24 22 25 30.0000000  0  9G17G24G30G23G 5G 6G13G26G10
  22889861.520   -17449492.54349 -12564918.30446  22889860.299    22889867.094
       225.000         176.000
  23412327.630    16681313.40449  13006595.36845  23412326.963    23412334.787
       219.000         158.000
  20900026.768   -12253622.22349  -9525514.72147  20900026.773    20900031.602
       245.000         209.000
  24574692.895    -7150575.01249  -5181232.24745  24574690.915    24574705.990
       211.000         145.000
  22431442.591     8931900.26449   6969496.56246  22431441.956    22431449.911
       227.000         177.000
  21026222.861    -4128786.76149  -3182160.45147  21026222.549    21026227.118
       243.000         209.000
  24741828.615   -10192902.68049  -7470308.66245  24741828.658    24741836.363
       208.000         133.000
  24062119.416    -8991580.71149  -6702811.36745  24062118.752    24062130.615
       210.000         148.000
  21668075.056    -6676389.08849  -5168340.36647  21668074.124    21668079.296
       238.000         195.000
 99  4 24 22 26  0.0000000  0  9G17G24G30G23G 5G 6G13G26G10
  22878224.651   -17510643.88049 -12612568.60246  22878224.095    22878230.796
       225.000         176.000
  23425938.726    16752839.95149  13062330.26945  23425938.230    23425945.118
       219.000         158.000
  20908670.252   -12208200.29949  -9490121.03847  20908670.389    20908675.186
       245.000         209.000
  24554573.120    -7256303.11849  -5263617.16745  24554571.094    24554587.553
       212.000         144.000
  22449710.605     9027899.44449   7044301.01846  22449710.079    22449716.882
       229.000         176.000
  21016457.011    -4180106.38249  -3222149.74147  21016456.840    21016461.624
       244.000         209.000
  24741258.042   -10195900.64449  -7472644.71845  24741256.954    24741262.742
       208.000         132.000
  24046170.900    -9075388.87649  -6768115.97945  24046170.333    24046182.015
       212.000         149.000
  21680508.136    -6611052.58849  -5117428.81247  21680507.237    21680512.640
       238.000         195.000
 99  4 24 22 26 30.0000000  0  9G17G24G30G23G 5G 6G13G26G10
  22866625.384   -17571597.79749 -12660065.06846  22866624.435    22866631.316
       227.000         176.000
  23439541.929    16824324.69049  13118032.63545  23439541.373    23439548.089
       220.000         160.000
  20917414.875   -12162247.24449  -9454313.48247  20917415.035    20917419.778
       244.000         209.000
  24534466.112    -7361965.08949  -5345950.52645  24534463.115    24534479.042
       208.000         141.000
  22468017.794     9124103.76749   7119265.30946  22468017.115    22468025.213
       227.000         176.000
  21006724.492    -4231250.86949  -3262002.56947  21006724.317    21006728.814
       244.000         210.000
  24740774.193   -10198443.09749  -7474625.82644  24740775.488    24740781.675
       208.000         131.000
  24030220.906    -9159204.88749  -6833426.71645  24030219.485    24030231.545
       214.000         149.000
  21693024.042    -6545281.13049  -5066178.32547  21693023.063    21693028.538
       238.000         195.000
 99  4 24 22 27  0.0000000  0  9G17G24G30G23G 5G 6G13G26G10
  22855067.794   -17632332.99949 -12707391.12946  22855067.676    22855073.501
       229.000         176.000
  23453140.646    16895786.29049  13173716.94445  23453139.929    23453148.468
       221.000         162.000
  20926265.899   -12115734.69749  -9418069.96547  20926265.958    20926270.859
       244.000         209.000
  24514374.889    -7467543.42749  -5428218.67245  24514372.703    24514387.176
       208.000         136.000
  22486367.146     9220529.70949   7194402.30346  22486366.812    22486374.454
       228.000         176.000
  20997029.064    -4282200.81249  -3301703.80347  20997028.879    20997033.499
       244.000         210.000
  24740377.667   -10200526.84549  -7476249.50744  24740376.254    24740383.649
       206.000         131.000
  24014274.380    -9243002.61149  -6898723.21045  24014274.304    24014285.171
       213.000         149.000
  21705627.501    -6479049.25349  -5014569.06947  21705626.517    21705632.097
       238.000         195.000
 99  4 24 22 27 30.0000000  0  9G17G24G30G23G 5G 6G13G26G10
  22843550.397   -17692857.58149 -12754553.04546  22843549.380    22843556.681
       228.000         176.000
  23466735.891    16967229.29749  13229386.77245  23466735.757    23466743.869
       222.000         162.000
  20935225.188   -12068653.17649  -9381383.09347  20935225.555    20935230.186
       244.000         209.000
  24494302.407    -7573022.65649  -5510409.63245  24494300.039    24494315.243
       207.000         136.000
  22504761.869     9317194.44349   7269725.36746  22504761.208    22504768.399
       227.000         175.000
  20987374.172    -4332937.49549  -3341238.86247  20987374.033    20987378.354
       244.000         210.000
  24740071.760   -10202133.86349  -7477501.68845  24740070.855    24740077.630
       208.000         132.000
  23998334.792    -9326764.27649  -6963991.61245  23998333.919    23998345.855
       214.000         148.000
  21718320.053    -6412349.26949  -4962595.05747  21718319.310    21718324.526
       237.000         194.000
 99  4 24 22 28  0.0000000  0  9G17G24G30G23G 5G 6G13G26G10
  22832067.867   -17753198.21349 -12801571.64046  22832066.819    22832074.430
       227.000         177.000
  23480328.523    17038658.62949  13285045.94546  23480328.017    23480335.522
       221.000         163.000
  20944290.701   -12021013.98249  -9344261.66047  20944291.009    20944295.594
       245.000         209.000
  24474247.792    -7678407.33049  -5592526.94245  24474246.532    24474258.732
       208.000         132.000
  22523199.404     9414084.22949   7345223.78846  22523199.284    22523206.581
       227.000         176.000
  20977760.955    -4383455.35349  -3380603.40447  20977760.858    20977765.478
       244.000         210.000
  24739853.599   -10203280.12349  -7478394.83945  24739854.015    24739860.509
       207.000         132.000
  23982402.004    -9410490.42249  -7029232.33445  23982401.449    23982411.515
       212.000         147.000
  21731098.277    -6345199.44049  -4910270.52247  21731097.544    21731102.292
       237.000         194.000
 99  4 24 22 28 30.0000000  0  9G17G24G30G23G 5G 6G13G26G10
  22820624.214   -17813334.52449 -12848431.03246  22820623.051    22820629.438
       227.000         177.000
  23493921.403    17110089.09149  13340705.98846  23493920.817    23493928.218
       220.000         163.000
  20953463.816   -11972808.87949  -9306699.26647  20953464.059    20953468.688
       244.000         209.000
  24454214.849    -7783677.65449  -5674555.21844  24454212.061    24454225.797
       201.000         131.000
  22541685.718     9511229.88849   7420921.58846  22541685.746    22541692.832
       230.000         176.000
  20968194.646    -4433726.71549  -3419775.87347  20968194.391    20968198.932
       244.000         210.000
  24739726.559   -10203947.31749  -7478914.70245  24739725.734    24739731.611
       208.000         133.000
  23966479.332    -9494162.91949  -7094431.27845  23966478.272    23966489.916
       211.000         146.000
  21743966.418    -6277577.25149  -4857577.90847  21743965.476    21743970.956
       237.000         194.000
 99  4 24 22 29  0.0000000  0  9G17G24G30G23G 5G 6G13G26G10
  22809218.668   -17873270.49549 -12895134.29746  22809217.088    22809224.828
       227.000         177.000
  23507510.632    17181501.62849  13396352.06745  23507509.330    23507517.374
       217.000         160.000
  20962741.763   -11924052.97949  -9268707.66947  20962742.066    20962746.738
       244.000         208.000
  24434204.151    -7888830.38349  -5756491.75645  24434201.424    24434216.377
       203.000         135.000
  22560222.954     9608643.06549   7496827.84646  22560223.113    22560230.295
       226.000         175.000
  20958678.002    -4483737.00549  -3458744.90647  20958677.719    20958682.400
       245.000         211.000
  24739694.874   -10204113.78249  -7479044.38345  24739695.485    24739700.493
       208.000         133.000
  23950564.989    -9577791.59549  -7159596.08945  23950563.640    23950574.866
       212.000         146.000
  21756924.881    -6209479.94149  -4804515.07347  21756924.095    21756929.456
       237.000         194.000
 99  4 24 22 29 30.0000000  0  9G17G24G30G23G 5G 6G13G26G10
  22797852.467   -17932999.77049 -12941676.51446  22797851.236    22797858.174
       228.000         178.000
  23521101.821    17252924.93549  13452006.53845  23521101.021    23521107.296
       219.000         158.000
  20972126.052   -11874738.07449  -9230280.49447  20972126.319    20972130.988
       244.000         208.000
  24414221.851    -7993835.25849  -5838313.12145  24414219.987    24414233.848
       202.000         135.000
  22578813.490     9706336.55449   7572952.52846  22578813.123    22578820.329
       227.000         175.000
  20949213.367    -4533473.54149  -3497500.62947  20949212.972    20949217.738
       244.000         211.000
  24739762.617   -10203758.90749  -7478767.80245  24739762.369    24739768.744
       209.000         134.000
  23934659.664    -9661372.68849  -7224723.81645  23934659.380    23934669.310
       210.000         146.000
  21769974.801    -6140902.18749  -4751077.87147  21769974.180    21769979.108
       237.000         194.000
 99  4 24 22 30  0.0000000  0  9G17G24G30G23G 5G 6G13G26G10
  22786519.683   -17992553.52149 -12988081.96146  22786518.931    22786525.928
       227.000         178.000
  23534688.759    17324323.89849  13507642.03845  23534689.773    23534695.301
       219.000         157.000
  20981607.812   -11824911.00949  -9191454.23347  20981608.005    20981612.655
       245.000         208.000
  24394260.045    -8098733.70349  -5920051.56045  24394257.557    24394272.918
       205.000         138.000
  22597446.059     9804250.88449   7649249.30346  22597444.565    22597453.125
       226.000         175.000
  20939792.010    -4582982.75949  -3536079.21847  20939791.514    20939796.242
       243.000         210.000
  24739918.693   -10202938.31249  -7478128.28845  24739919.250    24739924.439
       209.000         135.000
  23918753.975    -9744956.35249  -7289853.56645  23918752.092    23918763.423
       212.000         146.000
  21783105.330    -6071900.65049  -4697310.44747  21783104.491    21783109.946
       237.000         194.000
 99  4 24 22 30 30.0000000  0  9G17G24G30G23G 5G 6G13G26G10
  22775222.112   -18051922.41749 -13034343.36446  22775220.713    22775228.385
       229.000         179.000
  23548268.809    17395686.65649  13563249.31845  23548267.703    23548275.694
       218.000         158.000
  20991185.437   -11774580.52149  -9152235.69047  20991185.834    20991190.459
       244.000         208.000
  24374320.891    -8203513.97449  -6001697.91545  24374318.420    24374331.464
       207.000         139.000
  22616118.167     9902373.24349   7725708.15146  22616117.048    22616125.856
       226.000         175.000
  20930413.333    -4632267.53749  -3574482.91847  20930413.077    20930417.714
       244.000         210.000
  24740164.929   -10201643.88649  -7477119.57645  24740164.301    24740172.014
       206.000         135.000
  23902847.945    -9828540.77649  -7354983.90745  23902846.304    23902857.395
       210.000         146.000
  21796316.416    -6002476.13849  -4643213.44047  21796315.685    21796321.106
       237.000         194.000
 99  4 24 22 31  0.0000000  0  9G17G24G30G23G 5G 6G13G26G10
  22763969.267   -18111056.66149 -13080421.91446  22763967.913    22763975.341
       228.000         179.000
  23561852.235    17467068.92649  13618871.80945  23561852.769    23561858.908
       218.000         158.000
  21000865.836   -11723709.73249  -9112596.13147  21000866.163    21000870.958
       244.000         208.000
  24354412.134    -8308133.47849  -6083219.02545  24354410.013    24354425.340
       209.000         143.000
  22634833.745    10000724.11449   7802345.07646  22634833.361    22634841.480
       225.000         174.000
  20921085.732    -4681284.68549  -3612678.07647  20921085.484    20921090.357
       244.000         211.000
  24740510.015   -10199829.81949  -7475705.94245  24740510.351    24740517.223
       206.000         135.000
  23886951.778    -9912074.60349  -7420074.81145  23886950.498    23886962.256
       208.000         146.000
  21809613.018    -5932602.07849  -4588766.12847  21809612.020    21809617.730
       237.000         193.000
 99  4 24 22 31 30.0000000  0  9G17G24G30G23G 5G 6G13G26G10
  22752750.186   -18170013.06849 -13126361.89646  22752749.679    22752756.528
       229.000         180.000
  23575431.358    17538427.33549  13674475.70445  23575432.708    23575437.602
       221.000         159.000
  21010640.002   -11672346.07749  -9072572.52547  21010640.206    21010644.803
       244.000         208.000
  24334520.750    -8412661.04149  -6164668.51945  24334519.173    24334532.148
       209.000         144.000
  22653578.846    10099229.50749   7879102.40446  22653578.214    22653586.290
       226.000         174.000
  20911798.623    -4730088.66649  -3650707.13447  20911798.483    20911803.370
       244.000         211.000
  24740942.068   -10197558.95749  -7473936.38545  24740942.592    24740948.339
       208.000         136.000
  23871057.458    -9995598.29849  -7485157.84945  23871056.851    23871067.668
       207.000         145.000
  21822983.716    -5862338.59049  -4534015.36547  21822982.973    21822988.554
       237.000         193.000
 99  4 24 22 32  0.0000000  0  9G17G24G30G23G 5G 6G13G26G10
  22741563.446   -18228799.47449 -13172169.41046  22741562.744    22741569.092
       229.000         180.000
  23589000.229    17609730.96549  13730036.93345  23589000.265    23589006.859
       220.000         160.000
  21020507.319   -11620492.88549  -9032167.46547  21020507.755    21020512.232
       244.000         208.000
  24314641.995    -8517121.95249  -6246066.07045  24314638.556    24314653.536
       210.000         144.000
  22672349.902    10197871.67349   7955966.30146  22672349.899    22672357.117
       226.000         174.000
  20902550.550    -4778687.56249  -3688576.38447  20902550.216    20902554.769
       244.000         211.000
  24741460.153   -10194836.66349  -7471815.04645  24741461.862    24741466.348
       206.000         136.000
  23855166.494   -10079103.43649  -7550226.43945  23855165.033    23855177.295
       205.000         144.000
  21836428.000    -5791688.57249  -4478963.41147  21836426.926    21836432.482
       236.000         193.000
 99  4 24 22 32 30.0000000  0  9G17G24G30G23G 5G 6G13G26G10
  22730409.908   -18287411.42249 -13217840.98246  22730408.696    22730415.679
       229.000         181.000
  23602559.901    17680987.05449  13785561.08845  23602559.578    23602566.990
       217.000         160.000
  21030468.384   -11568147.53249  -8991378.90247  21030468.660    21030473.335
       244.000         208.000
  24294776.030    -8621516.10049  -6327411.60545  24294774.068    24294788.094
       211.000         147.000
  22691148.437    10296657.80349   8032942.38146  22691148.535    22691155.624
       226.000         174.000
  20893342.259    -4827077.20049  -3726282.57547  20893341.790    20893346.636
       244.000         211.000
  24742067.288   -10191645.41449  -7469328.29045  24742068.942    24742073.762
       207.000         134.000
  23839282.349   -10162572.91349  -7615267.21745  23839281.519    23839292.276
       204.000         142.000
  21849949.197    -5720634.26549  -4423596.43547  21849948.256    21849953.548
       235.000         192.000
 99  4 24 22 33  0.0000000  0  9G17G24G30G23G 5G 6G13G26G10
  22719293.494   -18345828.46349 -13263360.67846  22719292.811    22719299.961
       230.000         181.000
  23616115.369    17752222.10449  13841068.88345  23616114.784    23616121.684
       216.000         158.000
  21040528.645   -11515280.33049  -8950183.70847  21040529.035    21040533.420
       244.000         207.000
  24274925.113    -8725830.98949  -6408695.40145  24274923.340    24274936.090
       211.000         147.000
  22709979.461    10395614.85549   8110051.64246  22709979.308    22709987.506
       226.000         173.000
  20884179.085    -4875229.69449  -3763803.98947  20884178.874    20884183.164
       245.000         211.000
  24742769.406   -10187956.04449  -7466453.39945  24742769.827    24742775.493
       206.000         134.000
  23823411.585   -10245972.38149  -7680253.46445  23823411.555    23823420.972
       207.000         141.000
  21863550.019    -5649161.29949  -4367903.23347  21863549.210    21863554.315
       236.000         192.000
 99  4 24 22 33 30.0000000  0  9G17G24G30G23G 5G 6G13G26G10
  22708219.199   -18404023.98849 -13308707.75346  22708218.058    22708224.537
       230.000         181.000
  23629671.132    17823458.39949  13896577.62045  23629671.519    23629677.757
       218.000         158.000
  21050693.618   -11461863.18049  -8908559.97647  21050693.738    21050698.728
       243.000         207.000
  24255097.602    -8830022.19449  -6489882.83845  24255095.277    24255110.002
       214.000         150.000
  22728848.918    10494774.44349   8187318.73746  22728848.156    22728856.229
       224.000         172.000
  20875065.805    -4923120.51949  -3801121.49947  20875065.843    20875069.968
       245.000         211.000
  24743572.074   -10183737.61249  -7463166.28345  24743571.832    24743577.512
       203.000         132.000
  23807560.502   -10329268.64949  -7745159.33845  23807559.130    23807570.199
       206.000         141.000
  21877236.323    -5577239.57549  -4311860.34047  21877235.635    21877240.809
       234.000         192.000
 99  4 24 22 34  0.0000000  0  9G17G24G30G23G 5G 6G13G26G10
  22697176.665   -18462052.28749 -13353924.53246  22697175.293    22697182.162
       228.000         181.000
  23643213.338    17894622.54049  13952030.12545  23643213.774    23643220.289
       216.000         158.000
  21060948.882   -11407971.77749  -8866566.70147  21060949.128    21060953.885
       244.000         207.000
  24235287.091    -8934124.32249  -6571000.86645  24235285.471    24235299.240
       212.000         151.000
  22747748.298    10594091.13849   8264708.22846  22747747.192    22747756.036
       225.000         171.000
  20865990.657    -4970811.02649  -3838282.91847  20865990.256    20865994.814
       244.000         211.000
  24744462.770   -10179056.63949  -7459518.72845  24744463.834    24744468.710
       208.000         133.000
  23791715.712   -10412532.43349  -7810039.90445  23791714.918    23791725.592
       207.000         141.000
  21890995.161    -5504936.04449  -4255519.93447  21890993.770    21890999.522
       235.000         191.000
 99  4 24 22 34 30.0000000  0  9G17G24G30G23G 5G 6G13G26G10
  22686168.770   -18519898.71049 -13398999.59146  22686167.393    22686174.501
       228.000         181.000
  23656748.492    17965750.49249  14007454.46145  23656748.174    23656755.166
       217.000         158.000
  21071294.590   -11353604.81949  -8824202.86647  21071294.846    21071299.487
       243.000         207.000
  24215501.372    -9038097.27449  -6652018.28445  24215499.019    24215512.310
       214.000         150.000
  22766685.053    10693604.13349   8342250.70146  22766684.962    22766692.673
       225.000         172.000
  20856958.581    -5018274.69549  -3875267.57547  20856958.348    20856963.069
       245.000         212.000
  24745443.753   -10173902.05149  -7455502.14545  24745443.406    24745450.015
       206.000         134.000
  23775880.292   -10495747.17049  -7874882.20545  23775879.221    23775890.626
       205.000         140.000
  21904827.356    -5432246.91249  -4198879.07347  21904826.554    21904832.546
       235.000         191.000
 99  4 24 22 35  0.0000000  0  9G17G24G30G23G 5G 6G13G26G10
  22675199.446   -18577542.63949 -13443916.85346  22675198.587    22675206.135
       229.000         181.000
  23670281.321    18036866.03849  14062869.11945  23670281.195    23670288.051
       216.000         156.000
  21081735.863   -11298735.61049  -8781447.66747  21081736.078    21081740.775
       244.000         207.000
  24195747.831    -9141901.67149  -6732904.36645  24195746.683    24195759.282
       210.000         150.000
  22785666.310    10793350.80749   8419975.24546  22785665.512    22785673.864
       225.000         171.000
  20847976.855    -5065473.99349  -3912046.22647  20847976.566    20847980.888
       245.000         212.000
  24746517.257   -10168261.10649  -7451106.55245  24746517.113    24746522.958
       204.000         134.000
  23760057.431   -10578894.80549  -7939672.27445  23760056.895    23760067.161
       209.000         142.000
  21918737.343    -5359149.94449  -4141920.40447  21918736.684    21918741.960
       236.000         191.000
 99  4 24 22 35 30.0000000  0  9G17G24G30G23G 5G 6G13G26G10
  22664258.146   -18635039.44649 -13488719.47646  22664256.881    22664263.610
       229.000         181.000
  23683802.730    18107920.79049  14118236.38545  23683804.234    23683809.826
       220.000         157.000
  21092261.078   -11243425.14449  -8738348.62947  21092261.281    21092266.026
       243.000         207.000
  24176018.866    -9245576.46349  -6813689.46945  24176016.982    24176030.626
       211.000         147.000
  22804682.446    10893280.65149   8497842.53446  22804682.697    22804690.574
       226.000         169.000
  20839034.846    -5112464.34749  -3948662.07547  20839034.746    20839038.966
       245.000         212.000
  24747671.028   -10162196.90049  -7446381.17345  24747671.404    24747677.938
       210.000         136.000
  23744234.579   -10662043.34249  -8004463.03345  23744234.329    23744243.802
       209.000         142.000
  21932718.022    -5285680.84349  -4084671.77347  21932716.966    21932722.316
       235.000         190.000
 99  4 24 22 36  0.0000000  0  9G17G24G30G23G 5G 6G13G26G10
  22653352.333   -18692349.14849 -13533376.30846  22653351.661    22653358.095
       229.000         182.000
  23697321.619    18178961.18049  14173592.49745  23697321.576    23697327.941
       219.000         157.000
  21102879.933   -11187622.92149  -8694866.40747  21102880.200    21102885.029
       244.000         206.000
  24156320.454    -9349090.33949  -6894349.21645  24156318.489    24156332.810
       211.000         148.000
  22823741.424    10993434.66449   8575884.49646  22823740.893    22823749.033
       226.000         170.000
  20830142.437    -5159194.35149  -3985075.05847  20830142.333    20830146.680
       245.000         212.000
  24748915.335   -10155657.99949  -7441285.88345  24748914.253    24748922.599
       209.000         134.000
  23728420.863   -10745143.52249  -8069216.12645  23728420.816    23728430.459
       210.000         144.000
  21946779.197    -5211788.72349  -4027093.51447  21946778.461    21946783.624
       234.000         189.000
 99  4 24 22 36 30.0000000  0  9G17G24G30G23G 5G 6G13G26G10
  22642478.054   -18749493.42949 -13577904.23046  22642476.839    22642483.349
       229.000         182.000
  23710836.953    18249984.83749  14228935.55845  23710836.250    23710844.247
       219.000         156.000
  21113592.700   -11131327.24049  -8650999.66147  21113592.834    21113597.685
       243.000         206.000
  24136646.077    -9452478.34049  -6974910.84745  24136644.848    24136656.529
       211.000         146.000
  22842834.674    11093769.97949   8654067.73746  22842835.004    22842842.515
       226.000         169.000
  20821296.263    -5205681.59149  -4021298.86147  20821295.997    20821300.440
       245.000         212.000
  24750249.771   -10148645.52049  -7435821.61345  24750249.019    24750256.502
       210.000         135.000
  23712616.481   -10828194.97649  -8133931.23545  23712615.458    23712625.982
       212.000         146.000
  21960918.078    -5137488.65049  -3969197.36747  21960917.243    21960922.675
       235.000         190.000
 99  4 24 22 37  0.0000000  0  9G17G24G30G23G 5G 6G13G26G10
  22631642.215   -18806435.38149 -13622274.50546  22631641.501    22631647.811
       229.000         182.000
  23724353.996    18321017.79349  14284285.85145  23724353.472    23724360.947
       219.000         155.000
  21124408.493   -11074489.67649  -8606710.68347  21124408.896    21124413.543
       243.000         206.000
  24117000.319    -9555715.88749  -7055355.28145  24116998.639    24117011.332
       210.000         145.000
  22861961.769    11194283.15749   8732389.54846  22861961.883    22861969.610
       224.000         168.000
  20812502.358    -5251893.81449  -4057308.36947  20812502.155    20812506.791
       245.000         212.000
  24751683.037   -10141113.62249  -7429952.56745  24751684.036    24751690.559
       207.000         135.000
  23696828.982   -10911158.27349  -8198577.67545  23696828.117    23696837.903
       213.000         147.000
  21975141.332    -5062745.30649  -3910955.81047  21975140.417    21975145.454
       235.000         190.000
 99  4 24 22 37 30.0000000  0  9G17G24G30G23G 5G 6G13G26G10
  22620850.067   -18863148.31649 -13666466.31946  22620849.362    22620856.494
       229.000         182.000
  23737875.729    18392073.90849  14339654.19945  23737876.030    23737882.803
       218.000         154.000
  21135330.330   -11017095.25949  -8561987.78647  21135330.785    21135335.351
       244.000         206.000
  24097385.803    -9658789.11949  -7135671.64245  24097383.668    24097396.491
       207.000         145.000
  22881122.335    11294972.93749   8810848.96646  22881122.608    22881130.669
       224.000         168.000
  20803763.994    -5297814.11449  -4093090.39847  20803763.984    20803768.263
       245.000         212.000
  24753222.736   -10133021.47249  -7423646.94045  24753221.252    24753228.149
       206.000         133.000
  23681065.882   -10993992.31149  -8263123.39745  23681065.569    23681075.487
       214.000         148.000
  21989449.518    -4987555.51849  -3852366.38947  21989448.252    21989454.170
       234.000         189.000
 99  4 24 22 38  0.0000000  0  9G17G24G30G23G 5G 6G13G26G10
  22610086.142   -18919713.19749 -13710542.77646  22610085.164    22610092.307
       230.000         182.000
  23751385.416    18463067.46649  14394973.81145  23751385.578    23751392.781
       217.000         152.000
  21146341.077   -10959233.76849  -8516900.93747  21146341.442    21146345.969
       243.000         206.000
  24077782.145    -9761804.34649  -7215942.79345  24077779.940    24077792.983
       210.000         145.000
  22900296.488    11395733.42649   8889363.50846  22900297.214    22900304.444
       225.000         168.000
  20795064.841    -5343528.54949  -4128712.01547  20795064.546    20795068.748
       245.000         212.000
  24754852.839   -10124455.14749  -7416971.85245  24754854.071    24754858.164
       207.000         133.000
  23665314.726   -11076764.62849  -8327621.02545  23665314.324    23665323.300
       214.000         149.000
  22003821.628    -4912029.24149  -3793514.76047  22003820.722    22003825.967
       233.000         188.000
